<?xml version="1.0" encoding="UTF-8" standalone="yes"?>
<gpx
 xmlns="http://www.topografix.com/GPX/1/1"
 creator="OziExplorer Version 3956f - http://www.oziexplorer.com"
 version="1.1"
 xmlns:xsi="http://www.w3.org/2001/XMLSchema-instance"
 xsi:schemaLocation="http://www.topografix.com/GPX/1/1 http://www.topografix.com/GPX/1/1/gpx.xsd">
<metadata>
 <time>2025-06-27T10:25:08Z</time>
 <bounds minlat="31.790080" minlon="35.026080" maxlat="31.823610" maxlon="35.140360"/>
</metadata>
<trk>
 <name>NeveILan,38km,930m.gpx</name>
 <desc>NeveILan,38km,930m.gpx</desc>
<trkseg>
<trkpt lat="31.8180800" lon="35.0261000">
<ele>284.479980</ele>
<time>2025-06-27T13:25:08.443Z</time>
</trkpt>
<trkpt lat="31.8180900" lon="35.0261500">
<ele>285.130005</ele>
<time>2025-06-27T13:25:08.443Z</time>
</trkpt>
<trkpt lat="31.8181000" lon="35.0262200">
<ele>286.010010</ele>
<time>2025-06-27T13:25:08.443Z</time>
</trkpt>
<trkpt lat="31.8181100" lon="35.0263300">
<ele>287.230011</ele>
<time>2025-06-27T13:25:08.444Z</time>
</trkpt>
<trkpt lat="31.8181200" lon="35.0264700">
<ele>288.440002</ele>
<time>2025-06-27T13:25:08.444Z</time>
</trkpt>
<trkpt lat="31.8181200" lon="35.0269600">
<ele>292.440002</ele>
<time>2025-06-27T13:25:08.444Z</time>
</trkpt>
<trkpt lat="31.8180700" lon="35.0272100">
<ele>291.510010</ele>
<time>2025-06-27T13:25:08.444Z</time>
</trkpt>
<trkpt lat="31.8180000" lon="35.0274800">
<ele>291.300018</ele>
<time>2025-06-27T13:25:08.444Z</time>
</trkpt>
<trkpt lat="31.8175000" lon="35.0284000">
<ele>291.240021</ele>
<time>2025-06-27T13:25:08.444Z</time>
</trkpt>
<trkpt lat="31.8174300" lon="35.0288000">
<ele>294.269989</ele>
<time>2025-06-27T13:25:08.444Z</time>
</trkpt>
<trkpt lat="31.8173100" lon="35.0293000">
<ele>294.720001</ele>
<time>2025-06-27T13:25:08.444Z</time>
</trkpt>
<trkpt lat="31.8172900" lon="35.0296200">
<ele>295.339996</ele>
<time>2025-06-27T13:25:08.444Z</time>
</trkpt>
<trkpt lat="31.8172900" lon="35.0297400">
<ele>296.010010</ele>
<time>2025-06-27T13:25:08.444Z</time>
</trkpt>
<trkpt lat="31.8173200" lon="35.0300300">
<ele>301.510010</ele>
<time>2025-06-27T13:25:08.445Z</time>
</trkpt>
<trkpt lat="31.8174700" lon="35.0307100">
<ele>307.809998</ele>
<time>2025-06-27T13:25:08.445Z</time>
</trkpt>
<trkpt lat="31.8175100" lon="35.0307600">
<ele>308.259979</ele>
<time>2025-06-27T13:25:08.445Z</time>
</trkpt>
<trkpt lat="31.8175700" lon="35.0308900">
<ele>308.750000</ele>
<time>2025-06-27T13:25:08.445Z</time>
</trkpt>
<trkpt lat="31.8176000" lon="35.0309400">
<ele>308.589996</ele>
<time>2025-06-27T13:25:08.445Z</time>
</trkpt>
<trkpt lat="31.8176800" lon="35.0310700">
<ele>307.679993</ele>
<time>2025-06-27T13:25:08.445Z</time>
</trkpt>
<trkpt lat="31.8177500" lon="35.0311700">
<ele>306.750000</ele>
<time>2025-06-27T13:25:08.445Z</time>
</trkpt>
<trkpt lat="31.8177700" lon="35.0312300">
<ele>305.839996</ele>
<time>2025-06-27T13:25:08.445Z</time>
</trkpt>
<trkpt lat="31.8178200" lon="35.0313800">
<ele>304.850006</ele>
<time>2025-06-27T13:25:08.446Z</time>
</trkpt>
<trkpt lat="31.8179000" lon="35.0316400">
<ele>306.759979</ele>
<time>2025-06-27T13:25:08.446Z</time>
</trkpt>
<trkpt lat="31.8179300" lon="35.0317000">
<ele>307.209991</ele>
<time>2025-06-27T13:25:08.446Z</time>
</trkpt>
<trkpt lat="31.8180900" lon="35.0321000">
<ele>309.399994</ele>
<time>2025-06-27T13:25:08.446Z</time>
</trkpt>
<trkpt lat="31.8181300" lon="35.0323100">
<ele>310.110016</ele>
<time>2025-06-27T13:25:08.446Z</time>
</trkpt>
<trkpt lat="31.8181500" lon="35.0325300">
<ele>309.519989</ele>
<time>2025-06-27T13:25:08.446Z</time>
</trkpt>
<trkpt lat="31.8181700" lon="35.0325800">
<ele>310.149994</ele>
<time>2025-06-27T13:25:08.446Z</time>
</trkpt>
<trkpt lat="31.8182100" lon="35.0328500">
<ele>311.830017</ele>
<time>2025-06-27T13:25:08.447Z</time>
</trkpt>
<trkpt lat="31.8182500" lon="35.0329600">
<ele>312.839996</ele>
<time>2025-06-27T13:25:08.447Z</time>
</trkpt>
<trkpt lat="31.8183400" lon="35.0331000">
<ele>312.789978</ele>
<time>2025-06-27T13:25:08.447Z</time>
</trkpt>
<trkpt lat="31.8183800" lon="35.0331500">
<ele>313.049988</ele>
<time>2025-06-27T13:25:08.447Z</time>
</trkpt>
<trkpt lat="31.8185500" lon="35.0334400">
<ele>313.080017</ele>
<time>2025-06-27T13:25:08.447Z</time>
</trkpt>
<trkpt lat="31.8186000" lon="35.0335600">
<ele>312.440002</ele>
<time>2025-06-27T13:25:08.447Z</time>
</trkpt>
<trkpt lat="31.8186200" lon="35.0336400">
<ele>312.399994</ele>
<time>2025-06-27T13:25:08.447Z</time>
</trkpt>
<trkpt lat="31.8186600" lon="35.0338800">
<ele>313.609985</ele>
<time>2025-06-27T13:25:08.447Z</time>
</trkpt>
<trkpt lat="31.8186800" lon="35.0340600">
<ele>315.470001</ele>
<time>2025-06-27T13:25:08.448Z</time>
</trkpt>
<trkpt lat="31.8187000" lon="35.0341900">
<ele>316.769989</ele>
<time>2025-06-27T13:25:08.448Z</time>
</trkpt>
<trkpt lat="31.8187800" lon="35.0345600">
<ele>319.880005</ele>
<time>2025-06-27T13:25:08.448Z</time>
</trkpt>
<trkpt lat="31.8187900" lon="35.0346100">
<ele>320.270020</ele>
<time>2025-06-27T13:25:08.448Z</time>
</trkpt>
<trkpt lat="31.8187900" lon="35.0346900">
<ele>320.740021</ele>
<time>2025-06-27T13:25:08.448Z</time>
</trkpt>
<trkpt lat="31.8187900" lon="35.0348200">
<ele>321.059998</ele>
<time>2025-06-27T13:25:08.448Z</time>
</trkpt>
<trkpt lat="31.8187600" lon="35.0349200">
<ele>320.940002</ele>
<time>2025-06-27T13:25:08.448Z</time>
</trkpt>
<trkpt lat="31.8186400" lon="35.0351000">
<ele>320.360016</ele>
<time>2025-06-27T13:25:08.448Z</time>
</trkpt>
<trkpt lat="31.8185000" lon="35.0354900">
<ele>323.679993</ele>
<time>2025-06-27T13:25:08.448Z</time>
</trkpt>
<trkpt lat="31.8184600" lon="35.0362200">
<ele>321.579987</ele>
<time>2025-06-27T13:25:08.449Z</time>
</trkpt>
<trkpt lat="31.8182100" lon="35.0369700">
<ele>325.480011</ele>
<time>2025-06-27T13:25:08.449Z</time>
</trkpt>
<trkpt lat="31.8181800" lon="35.0372100">
<ele>330.399994</ele>
<time>2025-06-27T13:25:08.449Z</time>
</trkpt>
<trkpt lat="31.8180800" lon="35.0373600">
<ele>325.540009</ele>
<time>2025-06-27T13:25:08.449Z</time>
</trkpt>
<trkpt lat="31.8180300" lon="35.0375300">
<ele>321.300018</ele>
<time>2025-06-27T13:25:08.449Z</time>
</trkpt>
<trkpt lat="31.8179000" lon="35.0377100">
<ele>321.119995</ele>
<time>2025-06-27T13:25:08.449Z</time>
</trkpt>
<trkpt lat="31.8177600" lon="35.0378200">
<ele>319.299988</ele>
<time>2025-06-27T13:25:08.449Z</time>
</trkpt>
<trkpt lat="31.8174800" lon="35.0380300">
<ele>323.119995</ele>
<time>2025-06-27T13:25:08.449Z</time>
</trkpt>
<trkpt lat="31.8173000" lon="35.0382400">
<ele>328.860016</ele>
<time>2025-06-27T13:25:08.449Z</time>
</trkpt>
<trkpt lat="31.8171200" lon="35.0385700">
<ele>334.579987</ele>
<time>2025-06-27T13:25:08.450Z</time>
</trkpt>
<trkpt lat="31.8169600" lon="35.0389400">
<ele>334.279999</ele>
<time>2025-06-27T13:25:08.450Z</time>
</trkpt>
<trkpt lat="31.8168700" lon="35.0391900">
<ele>336.869995</ele>
<time>2025-06-27T13:25:08.450Z</time>
</trkpt>
<trkpt lat="31.8162000" lon="35.0416600">
<ele>361.049988</ele>
<time>2025-06-27T13:25:08.450Z</time>
</trkpt>
<trkpt lat="31.8161200" lon="35.0418900">
<ele>361.459991</ele>
<time>2025-06-27T13:25:08.450Z</time>
</trkpt>
<trkpt lat="31.8159500" lon="35.0424900">
<ele>368.959991</ele>
<time>2025-06-27T13:25:08.450Z</time>
</trkpt>
<trkpt lat="31.8158900" lon="35.0426100">
<ele>369.209991</ele>
<time>2025-06-27T13:25:08.450Z</time>
</trkpt>
<trkpt lat="31.8156100" lon="35.0430700">
<ele>368.959991</ele>
<time>2025-06-27T13:25:08.450Z</time>
</trkpt>
<trkpt lat="31.8155700" lon="35.0432000">
<ele>367.820007</ele>
<time>2025-06-27T13:25:08.450Z</time>
</trkpt>
<trkpt lat="31.8155700" lon="35.0433200">
<ele>367.459991</ele>
<time>2025-06-27T13:25:08.450Z</time>
</trkpt>
<trkpt lat="31.8155700" lon="35.0435100">
<ele>368.149994</ele>
<time>2025-06-27T13:25:08.451Z</time>
</trkpt>
<trkpt lat="31.8155900" lon="35.0437300">
<ele>369.849976</ele>
<time>2025-06-27T13:25:08.451Z</time>
</trkpt>
<trkpt lat="31.8156400" lon="35.0440800">
<ele>372.440002</ele>
<time>2025-06-27T13:25:08.451Z</time>
</trkpt>
<trkpt lat="31.8156600" lon="35.0442000">
<ele>373.089996</ele>
<time>2025-06-27T13:25:08.451Z</time>
</trkpt>
<trkpt lat="31.8156900" lon="35.0447700">
<ele>374.019989</ele>
<time>2025-06-27T13:25:08.451Z</time>
</trkpt>
<trkpt lat="31.8157400" lon="35.0452700">
<ele>376.650024</ele>
<time>2025-06-27T13:25:08.451Z</time>
</trkpt>
<trkpt lat="31.8157400" lon="35.0454800">
<ele>377.139984</ele>
<time>2025-06-27T13:25:08.451Z</time>
</trkpt>
<trkpt lat="31.8157200" lon="35.0457200">
<ele>378.490021</ele>
<time>2025-06-27T13:25:08.451Z</time>
</trkpt>
<trkpt lat="31.8157000" lon="35.0457900">
<ele>378.730011</ele>
<time>2025-06-27T13:25:08.451Z</time>
</trkpt>
<trkpt lat="31.8156800" lon="35.0458300">
<ele>378.660004</ele>
<time>2025-06-27T13:25:08.451Z</time>
</trkpt>
<trkpt lat="31.8154800" lon="35.0465600">
<ele>380.039978</ele>
<time>2025-06-27T13:25:08.452Z</time>
</trkpt>
<trkpt lat="31.8153300" lon="35.0468300">
<ele>378.339996</ele>
<time>2025-06-27T13:25:08.452Z</time>
</trkpt>
<trkpt lat="31.8150500" lon="35.0470500">
<ele>378.779999</ele>
<time>2025-06-27T13:25:08.452Z</time>
</trkpt>
<trkpt lat="31.8147800" lon="35.0472700">
<ele>384.759979</ele>
<time>2025-06-27T13:25:08.452Z</time>
</trkpt>
<trkpt lat="31.8136700" lon="35.0485000">
<ele>388.089996</ele>
<time>2025-06-27T13:25:08.452Z</time>
</trkpt>
<trkpt lat="31.8135000" lon="35.0486400">
<ele>387.449982</ele>
<time>2025-06-27T13:25:08.452Z</time>
</trkpt>
<trkpt lat="31.8133000" lon="35.0488400">
<ele>386.719971</ele>
<time>2025-06-27T13:25:08.452Z</time>
</trkpt>
<trkpt lat="31.8132000" lon="35.0489800">
<ele>386.869995</ele>
<time>2025-06-27T13:25:08.452Z</time>
</trkpt>
<trkpt lat="31.8128200" lon="35.0497400">
<ele>388.349976</ele>
<time>2025-06-27T13:25:08.452Z</time>
</trkpt>
<trkpt lat="31.8126400" lon="35.0501700">
<ele>397.630005</ele>
<time>2025-06-27T13:25:08.452Z</time>
</trkpt>
<trkpt lat="31.8125700" lon="35.0507000">
<ele>408.490021</ele>
<time>2025-06-27T13:25:08.453Z</time>
</trkpt>
<trkpt lat="31.8125600" lon="35.0509900">
<ele>409.309998</ele>
<time>2025-06-27T13:25:08.453Z</time>
</trkpt>
<trkpt lat="31.8125400" lon="35.0511400">
<ele>409.559998</ele>
<time>2025-06-27T13:25:08.453Z</time>
</trkpt>
<trkpt lat="31.8125200" lon="35.0513000">
<ele>409.449982</ele>
<time>2025-06-27T13:25:08.453Z</time>
</trkpt>
<trkpt lat="31.8125000" lon="35.0515200">
<ele>409.940002</ele>
<time>2025-06-27T13:25:08.453Z</time>
</trkpt>
<trkpt lat="31.8125000" lon="35.0521000">
<ele>417.239990</ele>
<time>2025-06-27T13:25:08.453Z</time>
</trkpt>
<trkpt lat="31.8125200" lon="35.0528200">
<ele>424.429993</ele>
<time>2025-06-27T13:25:08.453Z</time>
</trkpt>
<trkpt lat="31.8125300" lon="35.0529000">
<ele>424.819977</ele>
<time>2025-06-27T13:25:08.453Z</time>
</trkpt>
<trkpt lat="31.8125400" lon="35.0533100">
<ele>425.559998</ele>
<time>2025-06-27T13:25:08.453Z</time>
</trkpt>
<trkpt lat="31.8126000" lon="35.0535800">
<ele>426.369995</ele>
<time>2025-06-27T13:25:08.454Z</time>
</trkpt>
<trkpt lat="31.8126700" lon="35.0536900">
<ele>427.460022</ele>
<time>2025-06-27T13:25:08.454Z</time>
</trkpt>
<trkpt lat="31.8127700" lon="35.0537600">
<ele>428.580017</ele>
<time>2025-06-27T13:25:08.454Z</time>
</trkpt>
<trkpt lat="31.8129300" lon="35.0538600">
<ele>434.089996</ele>
<time>2025-06-27T13:25:08.454Z</time>
</trkpt>
<trkpt lat="31.8131200" lon="35.0540200">
<ele>439.969971</ele>
<time>2025-06-27T13:25:08.454Z</time>
</trkpt>
<trkpt lat="31.8133300" lon="35.0544800">
<ele>435.730011</ele>
<time>2025-06-27T13:25:08.454Z</time>
</trkpt>
<trkpt lat="31.8134900" lon="35.0547500">
<ele>440.449982</ele>
<time>2025-06-27T13:25:08.454Z</time>
</trkpt>
<trkpt lat="31.8136800" lon="35.0551200">
<ele>438.829987</ele>
<time>2025-06-27T13:25:08.454Z</time>
</trkpt>
<trkpt lat="31.8138900" lon="35.0554700">
<ele>441.009979</ele>
<time>2025-06-27T13:25:08.454Z</time>
</trkpt>
<trkpt lat="31.8138900" lon="35.0555400">
<ele>440.250000</ele>
<time>2025-06-27T13:25:08.454Z</time>
</trkpt>
<trkpt lat="31.8138800" lon="35.0556200">
<ele>439.859985</ele>
<time>2025-06-27T13:25:08.455Z</time>
</trkpt>
<trkpt lat="31.8138100" lon="35.0558100">
<ele>439.360016</ele>
<time>2025-06-27T13:25:08.455Z</time>
</trkpt>
<trkpt lat="31.8137400" lon="35.0571200">
<ele>447.889984</ele>
<time>2025-06-27T13:25:08.455Z</time>
</trkpt>
<trkpt lat="31.8137600" lon="35.0576700">
<ele>449.139984</ele>
<time>2025-06-27T13:25:08.455Z</time>
</trkpt>
<trkpt lat="31.8137700" lon="35.0584300">
<ele>451.980011</ele>
<time>2025-06-27T13:25:08.455Z</time>
</trkpt>
<trkpt lat="31.8137600" lon="35.0587200">
<ele>455.350006</ele>
<time>2025-06-27T13:25:08.455Z</time>
</trkpt>
<trkpt lat="31.8137300" lon="35.0590300">
<ele>461.830017</ele>
<time>2025-06-27T13:25:08.455Z</time>
</trkpt>
<trkpt lat="31.8136400" lon="35.0593800">
<ele>456.140015</ele>
<time>2025-06-27T13:25:08.455Z</time>
</trkpt>
<trkpt lat="31.8135900" lon="35.0595000">
<ele>452.660004</ele>
<time>2025-06-27T13:25:08.455Z</time>
</trkpt>
<trkpt lat="31.8135600" lon="35.0595400">
<ele>453.230011</ele>
<time>2025-06-27T13:25:08.455Z</time>
</trkpt>
<trkpt lat="31.8133900" lon="35.0597400">
<ele>455.029999</ele>
<time>2025-06-27T13:25:08.456Z</time>
</trkpt>
<trkpt lat="31.8133200" lon="35.0598000">
<ele>456.369995</ele>
<time>2025-06-27T13:25:08.456Z</time>
</trkpt>
<trkpt lat="31.8132400" lon="35.0599300">
<ele>459.850006</ele>
<time>2025-06-27T13:25:08.456Z</time>
</trkpt>
<trkpt lat="31.8130700" lon="35.0604900">
<ele>462.879974</ele>
<time>2025-06-27T13:25:08.456Z</time>
</trkpt>
<trkpt lat="31.8130500" lon="35.0605400">
<ele>462.990021</ele>
<time>2025-06-27T13:25:08.456Z</time>
</trkpt>
<trkpt lat="31.8130000" lon="35.0606000">
<ele>463.080017</ele>
<time>2025-06-27T13:25:08.456Z</time>
</trkpt>
<trkpt lat="31.8127900" lon="35.0608700">
<ele>462.750000</ele>
<time>2025-06-27T13:25:08.456Z</time>
</trkpt>
<trkpt lat="31.8126800" lon="35.0610500">
<ele>463.160004</ele>
<time>2025-06-27T13:25:08.456Z</time>
</trkpt>
<trkpt lat="31.8125600" lon="35.0612700">
<ele>462.059998</ele>
<time>2025-06-27T13:25:08.456Z</time>
</trkpt>
<trkpt lat="31.8124900" lon="35.0614600">
<ele>461.070007</ele>
<time>2025-06-27T13:25:08.456Z</time>
</trkpt>
<trkpt lat="31.8123700" lon="35.0616800">
<ele>465.300018</ele>
<time>2025-06-27T13:25:08.457Z</time>
</trkpt>
<trkpt lat="31.8122400" lon="35.0619100">
<ele>463.869995</ele>
<time>2025-06-27T13:25:08.457Z</time>
</trkpt>
<trkpt lat="31.8121300" lon="35.0620900">
<ele>466.729980</ele>
<time>2025-06-27T13:25:08.457Z</time>
</trkpt>
<trkpt lat="31.8120900" lon="35.0621200">
<ele>466.850006</ele>
<time>2025-06-27T13:25:08.457Z</time>
</trkpt>
<trkpt lat="31.8119100" lon="35.0623000">
<ele>464.360016</ele>
<time>2025-06-27T13:25:08.457Z</time>
</trkpt>
<trkpt lat="31.8118400" lon="35.0623500">
<ele>465.279999</ele>
<time>2025-06-27T13:25:08.457Z</time>
</trkpt>
<trkpt lat="31.8117900" lon="35.0623800">
<ele>465.820007</ele>
<time>2025-06-27T13:25:08.457Z</time>
</trkpt>
<trkpt lat="31.8116400" lon="35.0624500">
<ele>467.390015</ele>
<time>2025-06-27T13:25:08.457Z</time>
</trkpt>
<trkpt lat="31.8114500" lon="35.0625800">
<ele>469.959991</ele>
<time>2025-06-27T13:25:08.457Z</time>
</trkpt>
<trkpt lat="31.8111900" lon="35.0628600">
<ele>476.109985</ele>
<time>2025-06-27T13:25:08.457Z</time>
</trkpt>
<trkpt lat="31.8110500" lon="35.0630300">
<ele>478.499969</ele>
<time>2025-06-27T13:25:08.458Z</time>
</trkpt>
<trkpt lat="31.8109600" lon="35.0630800">
<ele>480.590027</ele>
<time>2025-06-27T13:25:08.458Z</time>
</trkpt>
<trkpt lat="31.8107100" lon="35.0632300">
<ele>482.949982</ele>
<time>2025-06-27T13:25:08.458Z</time>
</trkpt>
<trkpt lat="31.8105900" lon="35.0633400">
<ele>482.009979</ele>
<time>2025-06-27T13:25:08.458Z</time>
</trkpt>
<trkpt lat="31.8103900" lon="35.0635900">
<ele>482.359985</ele>
<time>2025-06-27T13:25:08.458Z</time>
</trkpt>
<trkpt lat="31.8100200" lon="35.0642000">
<ele>486.110016</ele>
<time>2025-06-27T13:25:08.458Z</time>
</trkpt>
<trkpt lat="31.8096700" lon="35.0646200">
<ele>489.940002</ele>
<time>2025-06-27T13:25:08.458Z</time>
</trkpt>
<trkpt lat="31.8094000" lon="35.0650800">
<ele>496.690002</ele>
<time>2025-06-27T13:25:08.459Z</time>
</trkpt>
<trkpt lat="31.8093100" lon="35.0652600">
<ele>497.089996</ele>
<time>2025-06-27T13:25:08.459Z</time>
</trkpt>
<trkpt lat="31.8092400" lon="35.0653700">
<ele>497.209991</ele>
<time>2025-06-27T13:25:08.459Z</time>
</trkpt>
<trkpt lat="31.8091800" lon="35.0655800">
<ele>495.700012</ele>
<time>2025-06-27T13:25:08.459Z</time>
</trkpt>
<trkpt lat="31.8091100" lon="35.0657300">
<ele>495.539978</ele>
<time>2025-06-27T13:25:08.459Z</time>
</trkpt>
<trkpt lat="31.8090600" lon="35.0658200">
<ele>495.830017</ele>
<time>2025-06-27T13:25:08.459Z</time>
</trkpt>
<trkpt lat="31.8089200" lon="35.0662800">
<ele>500.779999</ele>
<time>2025-06-27T13:25:08.459Z</time>
</trkpt>
<trkpt lat="31.8087500" lon="35.0665400">
<ele>502.729980</ele>
<time>2025-06-27T13:25:08.459Z</time>
</trkpt>
<trkpt lat="31.8086600" lon="35.0667300">
<ele>502.299988</ele>
<time>2025-06-27T13:25:08.459Z</time>
</trkpt>
<trkpt lat="31.8085300" lon="35.0668400">
<ele>503.209991</ele>
<time>2025-06-27T13:25:08.460Z</time>
</trkpt>
<trkpt lat="31.8084000" lon="35.0672900">
<ele>505.729980</ele>
<time>2025-06-27T13:25:08.460Z</time>
</trkpt>
<trkpt lat="31.8082400" lon="35.0677300">
<ele>503.220001</ele>
<time>2025-06-27T13:25:08.460Z</time>
</trkpt>
<trkpt lat="31.8081900" lon="35.0678300">
<ele>501.990021</ele>
<time>2025-06-27T13:25:08.460Z</time>
</trkpt>
<trkpt lat="31.8080500" lon="35.0679800">
<ele>498.369995</ele>
<time>2025-06-27T13:25:08.460Z</time>
</trkpt>
<trkpt lat="31.8079500" lon="35.0681200">
<ele>500.700012</ele>
<time>2025-06-27T13:25:08.460Z</time>
</trkpt>
<trkpt lat="31.8077600" lon="35.0686900">
<ele>506.519989</ele>
<time>2025-06-27T13:25:08.460Z</time>
</trkpt>
<trkpt lat="31.8076100" lon="35.0690100">
<ele>510.980011</ele>
<time>2025-06-27T13:25:08.460Z</time>
</trkpt>
<trkpt lat="31.8075800" lon="35.0690600">
<ele>511.869995</ele>
<time>2025-06-27T13:25:08.460Z</time>
</trkpt>
<trkpt lat="31.8075400" lon="35.0691800">
<ele>513.359985</ele>
<time>2025-06-27T13:25:08.461Z</time>
</trkpt>
<trkpt lat="31.8074400" lon="35.0696500">
<ele>517.090027</ele>
<time>2025-06-27T13:25:08.461Z</time>
</trkpt>
<trkpt lat="31.8074100" lon="35.0697600">
<ele>518.429993</ele>
<time>2025-06-27T13:25:08.461Z</time>
</trkpt>
<trkpt lat="31.8073200" lon="35.0700500">
<ele>520.520020</ele>
<time>2025-06-27T13:25:08.461Z</time>
</trkpt>
<trkpt lat="31.8071600" lon="35.0703100">
<ele>519.489990</ele>
<time>2025-06-27T13:25:08.461Z</time>
</trkpt>
<trkpt lat="31.8070800" lon="35.0704000">
<ele>519.789978</ele>
<time>2025-06-27T13:25:08.461Z</time>
</trkpt>
<trkpt lat="31.8069900" lon="35.0705000">
<ele>519.469971</ele>
<time>2025-06-27T13:25:08.461Z</time>
</trkpt>
<trkpt lat="31.8069300" lon="35.0705400">
<ele>519.229980</ele>
<time>2025-06-27T13:25:08.461Z</time>
</trkpt>
<trkpt lat="31.8068100" lon="35.0705800">
<ele>520.059998</ele>
<time>2025-06-27T13:25:08.461Z</time>
</trkpt>
<trkpt lat="31.8066400" lon="35.0707200">
<ele>520.890015</ele>
<time>2025-06-27T13:25:08.461Z</time>
</trkpt>
<trkpt lat="31.8065200" lon="35.0707700">
<ele>522.410034</ele>
<time>2025-06-27T13:25:08.462Z</time>
</trkpt>
<trkpt lat="31.8064700" lon="35.0708400">
<ele>522.130005</ele>
<time>2025-06-27T13:25:08.462Z</time>
</trkpt>
<trkpt lat="31.8063000" lon="35.0711400">
<ele>523.130005</ele>
<time>2025-06-27T13:25:08.462Z</time>
</trkpt>
<trkpt lat="31.8061400" lon="35.0713600">
<ele>526.659973</ele>
<time>2025-06-27T13:25:08.462Z</time>
</trkpt>
<trkpt lat="31.8061200" lon="35.0714000">
<ele>526.989990</ele>
<time>2025-06-27T13:25:08.462Z</time>
</trkpt>
<trkpt lat="31.8058200" lon="35.0718200">
<ele>532.869995</ele>
<time>2025-06-27T13:25:08.462Z</time>
</trkpt>
<trkpt lat="31.8057100" lon="35.0719500">
<ele>531.890015</ele>
<time>2025-06-27T13:25:08.462Z</time>
</trkpt>
<trkpt lat="31.8053800" lon="35.0722600">
<ele>530.400024</ele>
<time>2025-06-27T13:25:08.462Z</time>
</trkpt>
<trkpt lat="31.8052500" lon="35.0723800">
<ele>533.909973</ele>
<time>2025-06-27T13:25:08.462Z</time>
</trkpt>
<trkpt lat="31.8051400" lon="35.0724900">
<ele>536.899963</ele>
<time>2025-06-27T13:25:08.462Z</time>
</trkpt>
<trkpt lat="31.8049200" lon="35.0726200">
<ele>538.960022</ele>
<time>2025-06-27T13:25:08.463Z</time>
</trkpt>
<trkpt lat="31.8046500" lon="35.0729200">
<ele>540.399963</ele>
<time>2025-06-27T13:25:08.463Z</time>
</trkpt>
<trkpt lat="31.8044600" lon="35.0730400">
<ele>540.210022</ele>
<time>2025-06-27T13:25:08.463Z</time>
</trkpt>
<trkpt lat="31.8043600" lon="35.0731900">
<ele>538.389954</ele>
<time>2025-06-27T13:25:08.463Z</time>
</trkpt>
<trkpt lat="31.8043000" lon="35.0732500">
<ele>537.739990</ele>
<time>2025-06-27T13:25:08.463Z</time>
</trkpt>
<trkpt lat="31.8042000" lon="35.0733000">
<ele>537.250000</ele>
<time>2025-06-27T13:25:08.463Z</time>
</trkpt>
<trkpt lat="31.8041100" lon="35.0733700">
<ele>537.719971</ele>
<time>2025-06-27T13:25:08.463Z</time>
</trkpt>
<trkpt lat="31.8040600" lon="35.0734200">
<ele>538.340027</ele>
<time>2025-06-27T13:25:08.463Z</time>
</trkpt>
<trkpt lat="31.8039500" lon="35.0735300">
<ele>539.029968</ele>
<time>2025-06-27T13:25:08.463Z</time>
</trkpt>
<trkpt lat="31.8037800" lon="35.0737900">
<ele>543.309998</ele>
<time>2025-06-27T13:25:08.463Z</time>
</trkpt>
<trkpt lat="31.8037300" lon="35.0738900">
<ele>544.309998</ele>
<time>2025-06-27T13:25:08.464Z</time>
</trkpt>
<trkpt lat="31.8037000" lon="35.0740700">
<ele>547.190002</ele>
<time>2025-06-27T13:25:08.464Z</time>
</trkpt>
<trkpt lat="31.8036800" lon="35.0743800">
<ele>548.489990</ele>
<time>2025-06-27T13:25:08.464Z</time>
</trkpt>
<trkpt lat="31.8037000" lon="35.0747300">
<ele>547.660034</ele>
<time>2025-06-27T13:25:08.464Z</time>
</trkpt>
<trkpt lat="31.8037600" lon="35.0750400">
<ele>550.179993</ele>
<time>2025-06-27T13:25:08.464Z</time>
</trkpt>
<trkpt lat="31.8038100" lon="35.0751300">
<ele>550.289978</ele>
<time>2025-06-27T13:25:08.464Z</time>
</trkpt>
<trkpt lat="31.8039300" lon="35.0753100">
<ele>551.119995</ele>
<time>2025-06-27T13:25:08.464Z</time>
</trkpt>
<trkpt lat="31.8040500" lon="35.0756500">
<ele>556.669983</ele>
<time>2025-06-27T13:25:08.464Z</time>
</trkpt>
<trkpt lat="31.8041100" lon="35.0758500">
<ele>558.679993</ele>
<time>2025-06-27T13:25:08.464Z</time>
</trkpt>
<trkpt lat="31.8042500" lon="35.0763200">
<ele>563.730042</ele>
<time>2025-06-27T13:25:08.465Z</time>
</trkpt>
<trkpt lat="31.8044500" lon="35.0768700">
<ele>568.460022</ele>
<time>2025-06-27T13:25:08.465Z</time>
</trkpt>
<trkpt lat="31.8045100" lon="35.0769800">
<ele>568.789978</ele>
<time>2025-06-27T13:25:08.465Z</time>
</trkpt>
<trkpt lat="31.8049200" lon="35.0775900">
<ele>568.839966</ele>
<time>2025-06-27T13:25:08.465Z</time>
</trkpt>
<trkpt lat="31.8049500" lon="35.0777300">
<ele>569.619995</ele>
<time>2025-06-27T13:25:08.465Z</time>
</trkpt>
<trkpt lat="31.8049500" lon="35.0777900">
<ele>569.859985</ele>
<time>2025-06-27T13:25:08.465Z</time>
</trkpt>
<trkpt lat="31.8049000" lon="35.0779700">
<ele>570.330017</ele>
<time>2025-06-27T13:25:08.465Z</time>
</trkpt>
<trkpt lat="31.8048000" lon="35.0785300">
<ele>574.070007</ele>
<time>2025-06-27T13:25:08.465Z</time>
</trkpt>
<trkpt lat="31.8047800" lon="35.0788100">
<ele>576.019958</ele>
<time>2025-06-27T13:25:08.465Z</time>
</trkpt>
<trkpt lat="31.8047700" lon="35.0788500">
<ele>576.380005</ele>
<time>2025-06-27T13:25:08.465Z</time>
</trkpt>
<trkpt lat="31.8047500" lon="35.0788900">
<ele>576.809998</ele>
<time>2025-06-27T13:25:08.466Z</time>
</trkpt>
<trkpt lat="31.8046800" lon="35.0791300">
<ele>580.859985</ele>
<time>2025-06-27T13:25:08.466Z</time>
</trkpt>
<trkpt lat="31.8046400" lon="35.0792800">
<ele>581.880005</ele>
<time>2025-06-27T13:25:08.466Z</time>
</trkpt>
<trkpt lat="31.8045700" lon="35.0801100">
<ele>586.099976</ele>
<time>2025-06-27T13:25:08.466Z</time>
</trkpt>
<trkpt lat="31.8045700" lon="35.0804800">
<ele>584.719971</ele>
<time>2025-06-27T13:25:08.466Z</time>
</trkpt>
<trkpt lat="31.8045500" lon="35.0805500">
<ele>584.059998</ele>
<time>2025-06-27T13:25:08.466Z</time>
</trkpt>
<trkpt lat="31.8043500" lon="35.0810700">
<ele>590.340027</ele>
<time>2025-06-27T13:25:08.466Z</time>
</trkpt>
<trkpt lat="31.8042600" lon="35.0815600">
<ele>594.690002</ele>
<time>2025-06-27T13:25:08.466Z</time>
</trkpt>
<trkpt lat="31.8042000" lon="35.0822200">
<ele>594.250000</ele>
<time>2025-06-27T13:25:08.466Z</time>
</trkpt>
<trkpt lat="31.8041900" lon="35.0825900">
<ele>597.349976</ele>
<time>2025-06-27T13:25:08.466Z</time>
</trkpt>
<trkpt lat="31.8041500" lon="35.0829000">
<ele>598.570007</ele>
<time>2025-06-27T13:25:08.467Z</time>
</trkpt>
<trkpt lat="31.8041300" lon="35.0831300">
<ele>599.630005</ele>
<time>2025-06-27T13:25:08.467Z</time>
</trkpt>
<trkpt lat="31.8039500" lon="35.0839200">
<ele>602.820007</ele>
<time>2025-06-27T13:25:08.467Z</time>
</trkpt>
<trkpt lat="31.8039000" lon="35.0840600">
<ele>602.789978</ele>
<time>2025-06-27T13:25:08.467Z</time>
</trkpt>
<trkpt lat="31.8038600" lon="35.0844100">
<ele>605.859985</ele>
<time>2025-06-27T13:25:08.467Z</time>
</trkpt>
<trkpt lat="31.8038700" lon="35.0846100">
<ele>607.919983</ele>
<time>2025-06-27T13:25:08.467Z</time>
</trkpt>
<trkpt lat="31.8039500" lon="35.0851600">
<ele>619.390015</ele>
<time>2025-06-27T13:25:08.467Z</time>
</trkpt>
<trkpt lat="31.8040000" lon="35.0854600">
<ele>621.070007</ele>
<time>2025-06-27T13:25:08.467Z</time>
</trkpt>
<trkpt lat="31.8040000" lon="35.0855800">
<ele>620.979980</ele>
<time>2025-06-27T13:25:08.467Z</time>
</trkpt>
<trkpt lat="31.8040000" lon="35.0857000">
<ele>620.900024</ele>
<time>2025-06-27T13:25:08.467Z</time>
</trkpt>
<trkpt lat="31.8039100" lon="35.0861300">
<ele>620.619995</ele>
<time>2025-06-27T13:25:08.468Z</time>
</trkpt>
<trkpt lat="31.8038200" lon="35.0863900">
<ele>621.020020</ele>
<time>2025-06-27T13:25:08.468Z</time>
</trkpt>
<trkpt lat="31.8037700" lon="35.0864500">
<ele>621.720032</ele>
<time>2025-06-27T13:25:08.468Z</time>
</trkpt>
<trkpt lat="31.8037100" lon="35.0864900">
<ele>621.880005</ele>
<time>2025-06-27T13:25:08.468Z</time>
</trkpt>
<trkpt lat="31.8035700" lon="35.0865400">
<ele>621.539978</ele>
<time>2025-06-27T13:25:08.468Z</time>
</trkpt>
<trkpt lat="31.8034600" lon="35.0866500">
<ele>621.940002</ele>
<time>2025-06-27T13:25:08.468Z</time>
</trkpt>
<trkpt lat="31.8033700" lon="35.0868800">
<ele>622.869995</ele>
<time>2025-06-27T13:25:08.468Z</time>
</trkpt>
<trkpt lat="31.8033100" lon="35.0872500">
<ele>627.490051</ele>
<time>2025-06-27T13:25:08.468Z</time>
</trkpt>
<trkpt lat="31.8032600" lon="35.0874700">
<ele>631.380005</ele>
<time>2025-06-27T13:25:08.468Z</time>
</trkpt>
<trkpt lat="31.8032400" lon="35.0876600">
<ele>634.729980</ele>
<time>2025-06-27T13:25:08.468Z</time>
</trkpt>
<trkpt lat="31.8032400" lon="35.0877800">
<ele>637.040039</ele>
<time>2025-06-27T13:25:08.469Z</time>
</trkpt>
<trkpt lat="31.8032700" lon="35.0881700">
<ele>643.500000</ele>
<time>2025-06-27T13:25:08.469Z</time>
</trkpt>
<trkpt lat="31.8034200" lon="35.0885600">
<ele>647.059937</ele>
<time>2025-06-27T13:25:08.469Z</time>
</trkpt>
<trkpt lat="31.8034400" lon="35.0886500">
<ele>647.720032</ele>
<time>2025-06-27T13:25:08.469Z</time>
</trkpt>
<trkpt lat="31.8034700" lon="35.0888300">
<ele>649.459961</ele>
<time>2025-06-27T13:25:08.469Z</time>
</trkpt>
<trkpt lat="31.8035500" lon="35.0890500">
<ele>651.790039</ele>
<time>2025-06-27T13:25:08.469Z</time>
</trkpt>
<trkpt lat="31.8037000" lon="35.0892100">
<ele>655.710022</ele>
<time>2025-06-27T13:25:08.469Z</time>
</trkpt>
<trkpt lat="31.8038300" lon="35.0892600">
<ele>658.130005</ele>
<time>2025-06-27T13:25:08.469Z</time>
</trkpt>
<trkpt lat="31.8039400" lon="35.0892800">
<ele>660.549988</ele>
<time>2025-06-27T13:25:08.469Z</time>
</trkpt>
<trkpt lat="31.8041000" lon="35.0892800">
<ele>664.809998</ele>
<time>2025-06-27T13:25:08.469Z</time>
</trkpt>
<trkpt lat="31.8041800" lon="35.0893000">
<ele>666.640015</ele>
<time>2025-06-27T13:25:08.470Z</time>
</trkpt>
<trkpt lat="31.8042200" lon="35.0893300">
<ele>666.909973</ele>
<time>2025-06-27T13:25:08.470Z</time>
</trkpt>
<trkpt lat="31.8043500" lon="35.0895900">
<ele>667.279968</ele>
<time>2025-06-27T13:25:08.470Z</time>
</trkpt>
<trkpt lat="31.8044100" lon="35.0896700">
<ele>667.719971</ele>
<time>2025-06-27T13:25:08.470Z</time>
</trkpt>
<trkpt lat="31.8044700" lon="35.0897000">
<ele>668.340027</ele>
<time>2025-06-27T13:25:08.470Z</time>
</trkpt>
<trkpt lat="31.8047000" lon="35.0897400">
<ele>670.630005</ele>
<time>2025-06-27T13:25:08.470Z</time>
</trkpt>
<trkpt lat="31.8048100" lon="35.0897700">
<ele>670.080017</ele>
<time>2025-06-27T13:25:08.470Z</time>
</trkpt>
<trkpt lat="31.8048600" lon="35.0898000">
<ele>669.590027</ele>
<time>2025-06-27T13:25:08.470Z</time>
</trkpt>
<trkpt lat="31.8051200" lon="35.0901100">
<ele>666.450012</ele>
<time>2025-06-27T13:25:08.470Z</time>
</trkpt>
<trkpt lat="31.8052400" lon="35.0902300">
<ele>664.719971</ele>
<time>2025-06-27T13:25:08.471Z</time>
</trkpt>
<trkpt lat="31.8053000" lon="35.0902700">
<ele>664.059998</ele>
<time>2025-06-27T13:25:08.471Z</time>
</trkpt>
<trkpt lat="31.8053700" lon="35.0902800">
<ele>663.679993</ele>
<time>2025-06-27T13:25:08.471Z</time>
</trkpt>
<trkpt lat="31.8055800" lon="35.0902900">
<ele>663.489990</ele>
<time>2025-06-27T13:25:08.471Z</time>
</trkpt>
<trkpt lat="31.8060300" lon="35.0902300">
<ele>671.710022</ele>
<time>2025-06-27T13:25:08.471Z</time>
</trkpt>
<trkpt lat="31.8060400" lon="35.0901900">
<ele>672.330017</ele>
<time>2025-06-27T13:25:08.471Z</time>
</trkpt>
<trkpt lat="31.8060900" lon="35.0898900">
<ele>676.660034</ele>
<time>2025-06-27T13:25:08.471Z</time>
</trkpt>
<trkpt lat="31.8061500" lon="35.0895700">
<ele>679.279968</ele>
<time>2025-06-27T13:25:08.471Z</time>
</trkpt>
<trkpt lat="31.8061700" lon="35.0894500">
<ele>679.420044</ele>
<time>2025-06-27T13:25:08.472Z</time>
</trkpt>
<trkpt lat="31.8063200" lon="35.0884700">
<ele>672.870056</ele>
<time>2025-06-27T13:25:08.472Z</time>
</trkpt>
<trkpt lat="31.8063300" lon="35.0884900">
<ele>672.909973</ele>
<time>2025-06-27T13:25:08.472Z</time>
</trkpt>
<trkpt lat="31.8063400" lon="35.0884300">
<ele>672.889954</ele>
<time>2025-06-27T13:25:08.472Z</time>
</trkpt>
<trkpt lat="31.8063800" lon="35.0882600">
<ele>672.700012</ele>
<time>2025-06-27T13:25:08.472Z</time>
</trkpt>
<trkpt lat="31.8064000" lon="35.0882000">
<ele>672.460022</ele>
<time>2025-06-27T13:25:08.472Z</time>
</trkpt>
<trkpt lat="31.8064400" lon="35.0881500">
<ele>672.150024</ele>
<time>2025-06-27T13:25:08.472Z</time>
</trkpt>
<trkpt lat="31.8064700" lon="35.0881300">
<ele>672.029968</ele>
<time>2025-06-27T13:25:08.472Z</time>
</trkpt>
<trkpt lat="31.8065000" lon="35.0881000">
<ele>671.969971</ele>
<time>2025-06-27T13:25:08.472Z</time>
</trkpt>
<trkpt lat="31.8065100" lon="35.0880600">
<ele>672.000000</ele>
<time>2025-06-27T13:25:08.472Z</time>
</trkpt>
<trkpt lat="31.8065100" lon="35.0880100">
<ele>671.820007</ele>
<time>2025-06-27T13:25:08.473Z</time>
</trkpt>
<trkpt lat="31.8065000" lon="35.0879700">
<ele>671.630005</ele>
<time>2025-06-27T13:25:08.473Z</time>
</trkpt>
<trkpt lat="31.8064700" lon="35.0879400">
<ele>671.410034</ele>
<time>2025-06-27T13:25:08.473Z</time>
</trkpt>
<trkpt lat="31.8064600" lon="35.0878800">
<ele>671.059998</ele>
<time>2025-06-27T13:25:08.473Z</time>
</trkpt>
<trkpt lat="31.8064500" lon="35.0878200">
<ele>670.680054</ele>
<time>2025-06-27T13:25:08.473Z</time>
</trkpt>
<trkpt lat="31.8064500" lon="35.0877500">
<ele>670.320007</ele>
<time>2025-06-27T13:25:08.473Z</time>
</trkpt>
<trkpt lat="31.8064500" lon="35.0876200">
<ele>669.750000</ele>
<time>2025-06-27T13:25:08.473Z</time>
</trkpt>
<trkpt lat="31.8065000" lon="35.0868900">
<ele>669.520020</ele>
<time>2025-06-27T13:25:08.473Z</time>
</trkpt>
<trkpt lat="31.8065900" lon="35.0864400">
<ele>669.960022</ele>
<time>2025-06-27T13:25:08.474Z</time>
</trkpt>
<trkpt lat="31.8067400" lon="35.0858600">
<ele>671.760010</ele>
<time>2025-06-27T13:25:08.474Z</time>
</trkpt>
<trkpt lat="31.8068900" lon="35.0852800">
<ele>670.810059</ele>
<time>2025-06-27T13:25:08.474Z</time>
</trkpt>
<trkpt lat="31.8069100" lon="35.0852100">
<ele>670.389954</ele>
<time>2025-06-27T13:25:08.474Z</time>
</trkpt>
<trkpt lat="31.8069500" lon="35.0850900">
<ele>669.679993</ele>
<time>2025-06-27T13:25:08.474Z</time>
</trkpt>
<trkpt lat="31.8069800" lon="35.0849600">
<ele>668.839966</ele>
<time>2025-06-27T13:25:08.474Z</time>
</trkpt>
<trkpt lat="31.8070100" lon="35.0848100">
<ele>667.580017</ele>
<time>2025-06-27T13:25:08.474Z</time>
</trkpt>
<trkpt lat="31.8070500" lon="35.0844200">
<ele>664.970032</ele>
<time>2025-06-27T13:25:08.474Z</time>
</trkpt>
<trkpt lat="31.8070500" lon="35.0843300">
<ele>664.840027</ele>
<time>2025-06-27T13:25:08.474Z</time>
</trkpt>
<trkpt lat="31.8070500" lon="35.0842800">
<ele>664.780029</ele>
<time>2025-06-27T13:25:08.475Z</time>
</trkpt>
<trkpt lat="31.8070500" lon="35.0842300">
<ele>664.710022</ele>
<time>2025-06-27T13:25:08.475Z</time>
</trkpt>
<trkpt lat="31.8070400" lon="35.0841900">
<ele>664.680054</ele>
<time>2025-06-27T13:25:08.475Z</time>
</trkpt>
<trkpt lat="31.8069400" lon="35.0840400">
<ele>666.359985</ele>
<time>2025-06-27T13:25:08.475Z</time>
</trkpt>
<trkpt lat="31.8066500" lon="35.0837600">
<ele>667.820007</ele>
<time>2025-06-27T13:25:08.475Z</time>
</trkpt>
<trkpt lat="31.8066000" lon="35.0837100">
<ele>667.279968</ele>
<time>2025-06-27T13:25:08.475Z</time>
</trkpt>
<trkpt lat="31.8065700" lon="35.0836600">
<ele>666.960022</ele>
<time>2025-06-27T13:25:08.475Z</time>
</trkpt>
<trkpt lat="31.8065400" lon="35.0836300">
<ele>666.629944</ele>
<time>2025-06-27T13:25:08.475Z</time>
</trkpt>
<trkpt lat="31.8065000" lon="35.0835500">
<ele>666.070007</ele>
<time>2025-06-27T13:25:08.475Z</time>
</trkpt>
<trkpt lat="31.8064800" lon="35.0834300">
<ele>665.549988</ele>
<time>2025-06-27T13:25:08.475Z</time>
</trkpt>
<trkpt lat="31.8064700" lon="35.0833000">
<ele>665.049988</ele>
<time>2025-06-27T13:25:08.476Z</time>
</trkpt>
<trkpt lat="31.8064700" lon="35.0830900">
<ele>664.290039</ele>
<time>2025-06-27T13:25:08.476Z</time>
</trkpt>
<trkpt lat="31.8064900" lon="35.0815600">
<ele>662.500000</ele>
<time>2025-06-27T13:25:08.476Z</time>
</trkpt>
<trkpt lat="31.8065100" lon="35.0814000">
<ele>662.100037</ele>
<time>2025-06-27T13:25:08.476Z</time>
</trkpt>
<trkpt lat="31.8065300" lon="35.0812600">
<ele>661.630005</ele>
<time>2025-06-27T13:25:08.476Z</time>
</trkpt>
<trkpt lat="31.8065800" lon="35.0811200">
<ele>661.879944</ele>
<time>2025-06-27T13:25:08.476Z</time>
</trkpt>
<trkpt lat="31.8066200" lon="35.0809800">
<ele>659.760010</ele>
<time>2025-06-27T13:25:08.476Z</time>
</trkpt>
<trkpt lat="31.8068300" lon="35.0804000">
<ele>653.150024</ele>
<time>2025-06-27T13:25:08.476Z</time>
</trkpt>
<trkpt lat="31.8068800" lon="35.0803100">
<ele>651.909973</ele>
<time>2025-06-27T13:25:08.476Z</time>
</trkpt>
<trkpt lat="31.8069400" lon="35.0802000">
<ele>650.560059</ele>
<time>2025-06-27T13:25:08.477Z</time>
</trkpt>
<trkpt lat="31.8070600" lon="35.0801000">
<ele>647.590027</ele>
<time>2025-06-27T13:25:08.477Z</time>
</trkpt>
<trkpt lat="31.8071400" lon="35.0800300">
<ele>644.950012</ele>
<time>2025-06-27T13:25:08.477Z</time>
</trkpt>
<trkpt lat="31.8072500" lon="35.0799900">
<ele>642.649963</ele>
<time>2025-06-27T13:25:08.477Z</time>
</trkpt>
<trkpt lat="31.8073700" lon="35.0799700">
<ele>640.690002</ele>
<time>2025-06-27T13:25:08.477Z</time>
</trkpt>
<trkpt lat="31.8079000" lon="35.0799500">
<ele>642.959961</ele>
<time>2025-06-27T13:25:08.477Z</time>
</trkpt>
<trkpt lat="31.8080000" lon="35.0799300">
<ele>645.799988</ele>
<time>2025-06-27T13:25:08.477Z</time>
</trkpt>
<trkpt lat="31.8080700" lon="35.0799100">
<ele>647.540039</ele>
<time>2025-06-27T13:25:08.477Z</time>
</trkpt>
<trkpt lat="31.8081800" lon="35.0798600">
<ele>648.330017</ele>
<time>2025-06-27T13:25:08.477Z</time>
</trkpt>
<trkpt lat="31.8082700" lon="35.0798000">
<ele>648.200012</ele>
<time>2025-06-27T13:25:08.478Z</time>
</trkpt>
<trkpt lat="31.8083800" lon="35.0797200">
<ele>647.469971</ele>
<time>2025-06-27T13:25:08.478Z</time>
</trkpt>
<trkpt lat="31.8084600" lon="35.0796300">
<ele>647.040039</ele>
<time>2025-06-27T13:25:08.478Z</time>
</trkpt>
<trkpt lat="31.8085500" lon="35.0795100">
<ele>646.280029</ele>
<time>2025-06-27T13:25:08.478Z</time>
</trkpt>
<trkpt lat="31.8087100" lon="35.0792000">
<ele>642.790039</ele>
<time>2025-06-27T13:25:08.478Z</time>
</trkpt>
<trkpt lat="31.8088900" lon="35.0788900">
<ele>641.029968</ele>
<time>2025-06-27T13:25:08.478Z</time>
</trkpt>
<trkpt lat="31.8091500" lon="35.0784100">
<ele>641.750000</ele>
<time>2025-06-27T13:25:08.478Z</time>
</trkpt>
<trkpt lat="31.8091700" lon="35.0783400">
<ele>641.119995</ele>
<time>2025-06-27T13:25:08.478Z</time>
</trkpt>
<trkpt lat="31.8091800" lon="35.0783000">
<ele>640.619995</ele>
<time>2025-06-27T13:25:08.478Z</time>
</trkpt>
<trkpt lat="31.8091800" lon="35.0782600">
<ele>640.049988</ele>
<time>2025-06-27T13:25:08.479Z</time>
</trkpt>
<trkpt lat="31.8091900" lon="35.0782100">
<ele>639.429993</ele>
<time>2025-06-27T13:25:08.479Z</time>
</trkpt>
<trkpt lat="31.8091900" lon="35.0781600">
<ele>638.720032</ele>
<time>2025-06-27T13:25:08.479Z</time>
</trkpt>
<trkpt lat="31.8092000" lon="35.0781100">
<ele>638.119995</ele>
<time>2025-06-27T13:25:08.479Z</time>
</trkpt>
<trkpt lat="31.8092100" lon="35.0780700">
<ele>637.670044</ele>
<time>2025-06-27T13:25:08.479Z</time>
</trkpt>
<trkpt lat="31.8092400" lon="35.0780400">
<ele>637.769958</ele>
<time>2025-06-27T13:25:08.479Z</time>
</trkpt>
<trkpt lat="31.8093000" lon="35.0780200">
<ele>638.260010</ele>
<time>2025-06-27T13:25:08.479Z</time>
</trkpt>
<trkpt lat="31.8093600" lon="35.0779900">
<ele>638.499939</ele>
<time>2025-06-27T13:25:08.479Z</time>
</trkpt>
<trkpt lat="31.8093900" lon="35.0779600">
<ele>638.369995</ele>
<time>2025-06-27T13:25:08.479Z</time>
</trkpt>
<trkpt lat="31.8094200" lon="35.0779300">
<ele>638.130005</ele>
<time>2025-06-27T13:25:08.480Z</time>
</trkpt>
<trkpt lat="31.8095300" lon="35.0776600">
<ele>635.299988</ele>
<time>2025-06-27T13:25:08.480Z</time>
</trkpt>
<trkpt lat="31.8095600" lon="35.0775800">
<ele>634.700012</ele>
<time>2025-06-27T13:25:08.480Z</time>
</trkpt>
<trkpt lat="31.8095600" lon="35.0775500">
<ele>634.559937</ele>
<time>2025-06-27T13:25:08.480Z</time>
</trkpt>
<trkpt lat="31.8095700" lon="35.0774300">
<ele>633.959961</ele>
<time>2025-06-27T13:25:08.480Z</time>
</trkpt>
<trkpt lat="31.8095800" lon="35.0773000">
<ele>633.349976</ele>
<time>2025-06-27T13:25:08.480Z</time>
</trkpt>
<trkpt lat="31.8095700" lon="35.0759800">
<ele>623.599976</ele>
<time>2025-06-27T13:25:08.480Z</time>
</trkpt>
<trkpt lat="31.8095900" lon="35.0758700">
<ele>622.530029</ele>
<time>2025-06-27T13:25:08.480Z</time>
</trkpt>
<trkpt lat="31.8097300" lon="35.0758700">
<ele>619.169983</ele>
<time>2025-06-27T13:25:08.480Z</time>
</trkpt>
<trkpt lat="31.8098300" lon="35.0758800">
<ele>618.039978</ele>
<time>2025-06-27T13:25:08.480Z</time>
</trkpt>
<trkpt lat="31.8099400" lon="35.0759500">
<ele>616.830017</ele>
<time>2025-06-27T13:25:08.481Z</time>
</trkpt>
<trkpt lat="31.8100300" lon="35.0760200">
<ele>615.890015</ele>
<time>2025-06-27T13:25:08.481Z</time>
</trkpt>
<trkpt lat="31.8101600" lon="35.0763300">
<ele>616.299988</ele>
<time>2025-06-27T13:25:08.481Z</time>
</trkpt>
<trkpt lat="31.8102400" lon="35.0763600">
<ele>615.409973</ele>
<time>2025-06-27T13:25:08.481Z</time>
</trkpt>
<trkpt lat="31.8103000" lon="35.0763800">
<ele>614.729980</ele>
<time>2025-06-27T13:25:08.481Z</time>
</trkpt>
<trkpt lat="31.8103200" lon="35.0765400">
<ele>616.010010</ele>
<time>2025-06-27T13:25:08.481Z</time>
</trkpt>
<trkpt lat="31.8103300" lon="35.0771000">
<ele>622.460022</ele>
<time>2025-06-27T13:25:08.481Z</time>
</trkpt>
<trkpt lat="31.8105000" lon="35.0775200">
<ele>631.120056</ele>
<time>2025-06-27T13:25:08.481Z</time>
</trkpt>
<trkpt lat="31.8111800" lon="35.0780800">
<ele>622.119995</ele>
<time>2025-06-27T13:25:08.481Z</time>
</trkpt>
<trkpt lat="31.8113400" lon="35.0782100">
<ele>618.809998</ele>
<time>2025-06-27T13:25:08.482Z</time>
</trkpt>
<trkpt lat="31.8115400" lon="35.0784600">
<ele>617.100037</ele>
<time>2025-06-27T13:25:08.482Z</time>
</trkpt>
<trkpt lat="31.8117200" lon="35.0787100">
<ele>616.340027</ele>
<time>2025-06-27T13:25:08.482Z</time>
</trkpt>
<trkpt lat="31.8117600" lon="35.0787100">
<ele>615.529968</ele>
<time>2025-06-27T13:25:08.482Z</time>
</trkpt>
<trkpt lat="31.8117800" lon="35.0785900">
<ele>613.260010</ele>
<time>2025-06-27T13:25:08.482Z</time>
</trkpt>
<trkpt lat="31.8118500" lon="35.0786000">
<ele>611.869995</ele>
<time>2025-06-27T13:25:08.482Z</time>
</trkpt>
<trkpt lat="31.8122100" lon="35.0789400">
<ele>608.669983</ele>
<time>2025-06-27T13:25:08.482Z</time>
</trkpt>
<trkpt lat="31.8126400" lon="35.0793600">
<ele>602.840027</ele>
<time>2025-06-27T13:25:08.482Z</time>
</trkpt>
<trkpt lat="31.8126800" lon="35.0795100">
<ele>601.609985</ele>
<time>2025-06-27T13:25:08.482Z</time>
</trkpt>
<trkpt lat="31.8125900" lon="35.0799000">
<ele>595.619995</ele>
<time>2025-06-27T13:25:08.483Z</time>
</trkpt>
<trkpt lat="31.8126400" lon="35.0800100">
<ele>592.799988</ele>
<time>2025-06-27T13:25:08.483Z</time>
</trkpt>
<trkpt lat="31.8128900" lon="35.0800700">
<ele>588.429993</ele>
<time>2025-06-27T13:25:08.483Z</time>
</trkpt>
<trkpt lat="31.8132400" lon="35.0800400">
<ele>584.100037</ele>
<time>2025-06-27T13:25:08.483Z</time>
</trkpt>
<trkpt lat="31.8132700" lon="35.0801100">
<ele>582.679993</ele>
<time>2025-06-27T13:25:08.483Z</time>
</trkpt>
<trkpt lat="31.8129400" lon="35.0804900">
<ele>578.890015</ele>
<time>2025-06-27T13:25:08.483Z</time>
</trkpt>
<trkpt lat="31.8130000" lon="35.0805700">
<ele>576.969971</ele>
<time>2025-06-27T13:25:08.483Z</time>
</trkpt>
<trkpt lat="31.8135000" lon="35.0805600">
<ele>570.690002</ele>
<time>2025-06-27T13:25:08.483Z</time>
</trkpt>
<trkpt lat="31.8136400" lon="35.0805900">
<ele>566.630005</ele>
<time>2025-06-27T13:25:08.483Z</time>
</trkpt>
<trkpt lat="31.8137200" lon="35.0805900">
<ele>564.899963</ele>
<time>2025-06-27T13:25:08.484Z</time>
</trkpt>
<trkpt lat="31.8143900" lon="35.0802900">
<ele>557.030029</ele>
<time>2025-06-27T13:25:08.484Z</time>
</trkpt>
<trkpt lat="31.8146800" lon="35.0802400">
<ele>553.020020</ele>
<time>2025-06-27T13:25:08.484Z</time>
</trkpt>
<trkpt lat="31.8147800" lon="35.0802200">
<ele>551.910034</ele>
<time>2025-06-27T13:25:08.484Z</time>
</trkpt>
<trkpt lat="31.8149000" lon="35.0801500">
<ele>550.869995</ele>
<time>2025-06-27T13:25:08.484Z</time>
</trkpt>
<trkpt lat="31.8151900" lon="35.0796000">
<ele>543.989990</ele>
<time>2025-06-27T13:25:08.484Z</time>
</trkpt>
<trkpt lat="31.8154300" lon="35.0793900">
<ele>537.289978</ele>
<time>2025-06-27T13:25:08.484Z</time>
</trkpt>
<trkpt lat="31.8154800" lon="35.0793800">
<ele>536.349976</ele>
<time>2025-06-27T13:25:08.484Z</time>
</trkpt>
<trkpt lat="31.8155100" lon="35.0794300">
<ele>536.469971</ele>
<time>2025-06-27T13:25:08.484Z</time>
</trkpt>
<trkpt lat="31.8155400" lon="35.0794200">
<ele>535.890015</ele>
<time>2025-06-27T13:25:08.484Z</time>
</trkpt>
<trkpt lat="31.8156700" lon="35.0792200">
<ele>530.390015</ele>
<time>2025-06-27T13:25:08.485Z</time>
</trkpt>
<trkpt lat="31.8159700" lon="35.0789700">
<ele>522.479980</ele>
<time>2025-06-27T13:25:08.485Z</time>
</trkpt>
<trkpt lat="31.8163300" lon="35.0779800">
<ele>508.700012</ele>
<time>2025-06-27T13:25:08.485Z</time>
</trkpt>
<trkpt lat="31.8164200" lon="35.0774500">
<ele>508.129974</ele>
<time>2025-06-27T13:25:08.485Z</time>
</trkpt>
<trkpt lat="31.8164600" lon="35.0774500">
<ele>506.539978</ele>
<time>2025-06-27T13:25:08.485Z</time>
</trkpt>
<trkpt lat="31.8164800" lon="35.0775200">
<ele>505.200012</ele>
<time>2025-06-27T13:25:08.485Z</time>
</trkpt>
<trkpt lat="31.8165200" lon="35.0786900">
<ele>500.729980</ele>
<time>2025-06-27T13:25:08.485Z</time>
</trkpt>
<trkpt lat="31.8165100" lon="35.0788600">
<ele>500.940002</ele>
<time>2025-06-27T13:25:08.485Z</time>
</trkpt>
<trkpt lat="31.8163900" lon="35.0794900">
<ele>502.129974</ele>
<time>2025-06-27T13:25:08.485Z</time>
</trkpt>
<trkpt lat="31.8163400" lon="35.0799500">
<ele>504.860016</ele>
<time>2025-06-27T13:25:08.486Z</time>
</trkpt>
<trkpt lat="31.8161800" lon="35.0804600">
<ele>507.009979</ele>
<time>2025-06-27T13:25:08.486Z</time>
</trkpt>
<trkpt lat="31.8160700" lon="35.0811100">
<ele>501.449982</ele>
<time>2025-06-27T13:25:08.486Z</time>
</trkpt>
<trkpt lat="31.8157900" lon="35.0817600">
<ele>498.400024</ele>
<time>2025-06-27T13:25:08.486Z</time>
</trkpt>
<trkpt lat="31.8157500" lon="35.0821200">
<ele>495.620026</ele>
<time>2025-06-27T13:25:08.486Z</time>
</trkpt>
<trkpt lat="31.8157400" lon="35.0822000">
<ele>495.100006</ele>
<time>2025-06-27T13:25:08.486Z</time>
</trkpt>
<trkpt lat="31.8158100" lon="35.0822000">
<ele>495.889984</ele>
<time>2025-06-27T13:25:08.486Z</time>
</trkpt>
<trkpt lat="31.8158300" lon="35.0822000">
<ele>496.119995</ele>
<time>2025-06-27T13:25:08.486Z</time>
</trkpt>
<trkpt lat="31.8159000" lon="35.0822000">
<ele>497.540009</ele>
<time>2025-06-27T13:25:08.486Z</time>
</trkpt>
<trkpt lat="31.8162600" lon="35.0820700">
<ele>503.299988</ele>
<time>2025-06-27T13:25:08.486Z</time>
</trkpt>
<trkpt lat="31.8163400" lon="35.0820100">
<ele>503.899994</ele>
<time>2025-06-27T13:25:08.487Z</time>
</trkpt>
<trkpt lat="31.8165600" lon="35.0817900">
<ele>509.700012</ele>
<time>2025-06-27T13:25:08.487Z</time>
</trkpt>
<trkpt lat="31.8168000" lon="35.0815200">
<ele>516.769958</ele>
<time>2025-06-27T13:25:08.487Z</time>
</trkpt>
<trkpt lat="31.8170000" lon="35.0812300">
<ele>520.169983</ele>
<time>2025-06-27T13:25:08.487Z</time>
</trkpt>
<trkpt lat="31.8170300" lon="35.0812000">
<ele>520.830017</ele>
<time>2025-06-27T13:25:08.487Z</time>
</trkpt>
<trkpt lat="31.8170500" lon="35.0812300">
<ele>521.869995</ele>
<time>2025-06-27T13:25:08.487Z</time>
</trkpt>
<trkpt lat="31.8169500" lon="35.0816700">
<ele>523.239990</ele>
<time>2025-06-27T13:25:08.487Z</time>
</trkpt>
<trkpt lat="31.8168400" lon="35.0824400">
<ele>531.549988</ele>
<time>2025-06-27T13:25:08.487Z</time>
</trkpt>
<trkpt lat="31.8168100" lon="35.0827300">
<ele>536.140015</ele>
<time>2025-06-27T13:25:08.487Z</time>
</trkpt>
<trkpt lat="31.8168100" lon="35.0830100">
<ele>538.809998</ele>
<time>2025-06-27T13:25:08.488Z</time>
</trkpt>
<trkpt lat="31.8168400" lon="35.0835800">
<ele>541.080017</ele>
<time>2025-06-27T13:25:08.488Z</time>
</trkpt>
<trkpt lat="31.8168400" lon="35.0838600">
<ele>542.239990</ele>
<time>2025-06-27T13:25:08.488Z</time>
</trkpt>
<trkpt lat="31.8168200" lon="35.0840500">
<ele>543.600037</ele>
<time>2025-06-27T13:25:08.488Z</time>
</trkpt>
<trkpt lat="31.8165600" lon="35.0850900">
<ele>552.760010</ele>
<time>2025-06-27T13:25:08.488Z</time>
</trkpt>
<trkpt lat="31.8165200" lon="35.0854500">
<ele>558.840027</ele>
<time>2025-06-27T13:25:08.488Z</time>
</trkpt>
<trkpt lat="31.8164900" lon="35.0859000">
<ele>563.750000</ele>
<time>2025-06-27T13:25:08.488Z</time>
</trkpt>
<trkpt lat="31.8164800" lon="35.0876700">
<ele>574.580017</ele>
<time>2025-06-27T13:25:08.488Z</time>
</trkpt>
<trkpt lat="31.8164700" lon="35.0887400">
<ele>586.880005</ele>
<time>2025-06-27T13:25:08.488Z</time>
</trkpt>
<trkpt lat="31.8164700" lon="35.0892900">
<ele>593.959961</ele>
<time>2025-06-27T13:25:08.488Z</time>
</trkpt>
<trkpt lat="31.8164800" lon="35.0895800">
<ele>597.260010</ele>
<time>2025-06-27T13:25:08.489Z</time>
</trkpt>
<trkpt lat="31.8165100" lon="35.0897300">
<ele>599.510010</ele>
<time>2025-06-27T13:25:08.489Z</time>
</trkpt>
<trkpt lat="31.8165700" lon="35.0899200">
<ele>601.250000</ele>
<time>2025-06-27T13:25:08.489Z</time>
</trkpt>
<trkpt lat="31.8167300" lon="35.0902600">
<ele>604.399963</ele>
<time>2025-06-27T13:25:08.489Z</time>
</trkpt>
<trkpt lat="31.8170200" lon="35.0906800">
<ele>604.710022</ele>
<time>2025-06-27T13:25:08.489Z</time>
</trkpt>
<trkpt lat="31.8170900" lon="35.0908200">
<ele>604.080017</ele>
<time>2025-06-27T13:25:08.489Z</time>
</trkpt>
<trkpt lat="31.8171500" lon="35.0910000">
<ele>605.219971</ele>
<time>2025-06-27T13:25:08.489Z</time>
</trkpt>
<trkpt lat="31.8171500" lon="35.0910700">
<ele>605.030029</ele>
<time>2025-06-27T13:25:08.489Z</time>
</trkpt>
<trkpt lat="31.8171500" lon="35.0911800">
<ele>605.909973</ele>
<time>2025-06-27T13:25:08.489Z</time>
</trkpt>
<trkpt lat="31.8171500" lon="35.0916100">
<ele>613.489990</ele>
<time>2025-06-27T13:25:08.490Z</time>
</trkpt>
<trkpt lat="31.8171000" lon="35.0925200">
<ele>621.700012</ele>
<time>2025-06-27T13:25:08.490Z</time>
</trkpt>
<trkpt lat="31.8170800" lon="35.0931600">
<ele>626.630005</ele>
<time>2025-06-27T13:25:08.490Z</time>
</trkpt>
<trkpt lat="31.8170800" lon="35.0935900">
<ele>628.830017</ele>
<time>2025-06-27T13:25:08.490Z</time>
</trkpt>
<trkpt lat="31.8170900" lon="35.0939600">
<ele>631.529968</ele>
<time>2025-06-27T13:25:08.490Z</time>
</trkpt>
<trkpt lat="31.8171500" lon="35.0943300">
<ele>633.899963</ele>
<time>2025-06-27T13:25:08.490Z</time>
</trkpt>
<trkpt lat="31.8172700" lon="35.0948200">
<ele>641.179993</ele>
<time>2025-06-27T13:25:08.490Z</time>
</trkpt>
<trkpt lat="31.8172900" lon="35.0950800">
<ele>643.159973</ele>
<time>2025-06-27T13:25:08.490Z</time>
</trkpt>
<trkpt lat="31.8172900" lon="35.0952900">
<ele>645.039978</ele>
<time>2025-06-27T13:25:08.490Z</time>
</trkpt>
<trkpt lat="31.8172900" lon="35.0953900">
<ele>645.760010</ele>
<time>2025-06-27T13:25:08.490Z</time>
</trkpt>
<trkpt lat="31.8172900" lon="35.0954300">
<ele>646.049988</ele>
<time>2025-06-27T13:25:08.491Z</time>
</trkpt>
<trkpt lat="31.8172600" lon="35.0955300">
<ele>645.900024</ele>
<time>2025-06-27T13:25:08.491Z</time>
</trkpt>
<trkpt lat="31.8170300" lon="35.0960500">
<ele>648.589966</ele>
<time>2025-06-27T13:25:08.491Z</time>
</trkpt>
<trkpt lat="31.8165700" lon="35.0969400">
<ele>650.900024</ele>
<time>2025-06-27T13:25:08.491Z</time>
</trkpt>
<trkpt lat="31.8161700" lon="35.0976500">
<ele>660.799988</ele>
<time>2025-06-27T13:25:08.491Z</time>
</trkpt>
<trkpt lat="31.8160900" lon="35.0978200">
<ele>663.260010</ele>
<time>2025-06-27T13:25:08.491Z</time>
</trkpt>
<trkpt lat="31.8160500" lon="35.0979200">
<ele>664.290039</ele>
<time>2025-06-27T13:25:08.491Z</time>
</trkpt>
<trkpt lat="31.8160200" lon="35.0979800">
<ele>664.990051</ele>
<time>2025-06-27T13:25:08.491Z</time>
</trkpt>
<trkpt lat="31.8159100" lon="35.0986700">
<ele>675.560059</ele>
<time>2025-06-27T13:25:08.491Z</time>
</trkpt>
<trkpt lat="31.8159000" lon="35.0989000">
<ele>678.780029</ele>
<time>2025-06-27T13:25:08.492Z</time>
</trkpt>
<trkpt lat="31.8159100" lon="35.0994300">
<ele>681.479980</ele>
<time>2025-06-27T13:25:08.492Z</time>
</trkpt>
<trkpt lat="31.8159200" lon="35.0996900">
<ele>682.419983</ele>
<time>2025-06-27T13:25:08.492Z</time>
</trkpt>
<trkpt lat="31.8159700" lon="35.0999600">
<ele>684.369995</ele>
<time>2025-06-27T13:25:08.492Z</time>
</trkpt>
<trkpt lat="31.8160400" lon="35.1001500">
<ele>685.929993</ele>
<time>2025-06-27T13:25:08.492Z</time>
</trkpt>
<trkpt lat="31.8160900" lon="35.1002300">
<ele>687.340027</ele>
<time>2025-06-27T13:25:08.492Z</time>
</trkpt>
<trkpt lat="31.8167000" lon="35.1009800">
<ele>699.540039</ele>
<time>2025-06-27T13:25:08.492Z</time>
</trkpt>
<trkpt lat="31.8167500" lon="35.1011100">
<ele>700.200012</ele>
<time>2025-06-27T13:25:08.492Z</time>
</trkpt>
<trkpt lat="31.8167600" lon="35.1012600">
<ele>701.950012</ele>
<time>2025-06-27T13:25:08.492Z</time>
</trkpt>
<trkpt lat="31.8167500" lon="35.1014600">
<ele>703.969971</ele>
<time>2025-06-27T13:25:08.492Z</time>
</trkpt>
<trkpt lat="31.8167400" lon="35.1017500">
<ele>707.110046</ele>
<time>2025-06-27T13:25:08.493Z</time>
</trkpt>
<trkpt lat="31.8164700" lon="35.1027700">
<ele>719.049988</ele>
<time>2025-06-27T13:25:08.493Z</time>
</trkpt>
<trkpt lat="31.8164600" lon="35.1029100">
<ele>720.569946</ele>
<time>2025-06-27T13:25:08.493Z</time>
</trkpt>
<trkpt lat="31.8164600" lon="35.1030700">
<ele>722.440002</ele>
<time>2025-06-27T13:25:08.493Z</time>
</trkpt>
<trkpt lat="31.8164700" lon="35.1032700">
<ele>724.780029</ele>
<time>2025-06-27T13:25:08.493Z</time>
</trkpt>
<trkpt lat="31.8166100" lon="35.1036800">
<ele>729.380005</ele>
<time>2025-06-27T13:25:08.493Z</time>
</trkpt>
<trkpt lat="31.8166300" lon="35.1037800">
<ele>730.000000</ele>
<time>2025-06-27T13:25:08.493Z</time>
</trkpt>
<trkpt lat="31.8166400" lon="35.1040300">
<ele>730.979980</ele>
<time>2025-06-27T13:25:08.493Z</time>
</trkpt>
<trkpt lat="31.8166400" lon="35.1044800">
<ele>732.880005</ele>
<time>2025-06-27T13:25:08.493Z</time>
</trkpt>
<trkpt lat="31.8166100" lon="35.1045800">
<ele>733.239990</ele>
<time>2025-06-27T13:25:08.493Z</time>
</trkpt>
<trkpt lat="31.8165100" lon="35.1046900">
<ele>731.830017</ele>
<time>2025-06-27T13:25:08.494Z</time>
</trkpt>
<trkpt lat="31.8164100" lon="35.1047400">
<ele>729.909973</ele>
<time>2025-06-27T13:25:08.494Z</time>
</trkpt>
<trkpt lat="31.8160800" lon="35.1048400">
<ele>729.939941</ele>
<time>2025-06-27T13:25:08.494Z</time>
</trkpt>
<trkpt lat="31.8160300" lon="35.1049200">
<ele>731.179993</ele>
<time>2025-06-27T13:25:08.494Z</time>
</trkpt>
<trkpt lat="31.8160300" lon="35.1050000">
<ele>732.710022</ele>
<time>2025-06-27T13:25:08.494Z</time>
</trkpt>
<trkpt lat="31.8159600" lon="35.1050800">
<ele>734.500000</ele>
<time>2025-06-27T13:25:08.494Z</time>
</trkpt>
<trkpt lat="31.8160900" lon="35.1050800">
<ele>734.700012</ele>
<time>2025-06-27T13:25:08.494Z</time>
</trkpt>
<trkpt lat="31.8161700" lon="35.1050600">
<ele>734.670044</ele>
<time>2025-06-27T13:25:08.494Z</time>
</trkpt>
<trkpt lat="31.8162800" lon="35.1050200">
<ele>734.599976</ele>
<time>2025-06-27T13:25:08.494Z</time>
</trkpt>
<trkpt lat="31.8163600" lon="35.1050000">
<ele>734.789978</ele>
<time>2025-06-27T13:25:08.495Z</time>
</trkpt>
<trkpt lat="31.8165700" lon="35.1048600">
<ele>735.889954</ele>
<time>2025-06-27T13:25:08.495Z</time>
</trkpt>
<trkpt lat="31.8166900" lon="35.1047700">
<ele>737.020020</ele>
<time>2025-06-27T13:25:08.495Z</time>
</trkpt>
<trkpt lat="31.8168500" lon="35.1045900">
<ele>738.150024</ele>
<time>2025-06-27T13:25:08.495Z</time>
</trkpt>
<trkpt lat="31.8169000" lon="35.1045200">
<ele>739.010010</ele>
<time>2025-06-27T13:25:08.495Z</time>
</trkpt>
<trkpt lat="31.8170300" lon="35.1041800">
<ele>741.510010</ele>
<time>2025-06-27T13:25:08.495Z</time>
</trkpt>
<trkpt lat="31.8170600" lon="35.1039400">
<ele>741.040039</ele>
<time>2025-06-27T13:25:08.495Z</time>
</trkpt>
<trkpt lat="31.8170700" lon="35.1037300">
<ele>740.700012</ele>
<time>2025-06-27T13:25:08.495Z</time>
</trkpt>
<trkpt lat="31.8170800" lon="35.1036800">
<ele>740.989990</ele>
<time>2025-06-27T13:25:08.496Z</time>
</trkpt>
<trkpt lat="31.8170900" lon="35.1035000">
<ele>740.679993</ele>
<time>2025-06-27T13:25:08.496Z</time>
</trkpt>
<trkpt lat="31.8171100" lon="35.1034100">
<ele>741.000000</ele>
<time>2025-06-27T13:25:08.496Z</time>
</trkpt>
<trkpt lat="31.8171300" lon="35.1033300">
<ele>741.320007</ele>
<time>2025-06-27T13:25:08.496Z</time>
</trkpt>
<trkpt lat="31.8172400" lon="35.1030500">
<ele>742.349976</ele>
<time>2025-06-27T13:25:08.496Z</time>
</trkpt>
<trkpt lat="31.8177100" lon="35.1022400">
<ele>739.840027</ele>
<time>2025-06-27T13:25:08.496Z</time>
</trkpt>
<trkpt lat="31.8178200" lon="35.1020900">
<ele>739.080017</ele>
<time>2025-06-27T13:25:08.496Z</time>
</trkpt>
<trkpt lat="31.8180900" lon="35.1018200">
<ele>737.320007</ele>
<time>2025-06-27T13:25:08.497Z</time>
</trkpt>
<trkpt lat="31.8186900" lon="35.1012600">
<ele>742.299988</ele>
<time>2025-06-27T13:25:08.497Z</time>
</trkpt>
<trkpt lat="31.8189100" lon="35.1010300">
<ele>744.969971</ele>
<time>2025-06-27T13:25:08.497Z</time>
</trkpt>
<trkpt lat="31.8191900" lon="35.1008900">
<ele>740.190002</ele>
<time>2025-06-27T13:25:08.497Z</time>
</trkpt>
<trkpt lat="31.8192700" lon="35.1008300">
<ele>739.160034</ele>
<time>2025-06-27T13:25:08.497Z</time>
</trkpt>
<trkpt lat="31.8193500" lon="35.1009800">
<ele>736.990051</ele>
<time>2025-06-27T13:25:08.497Z</time>
</trkpt>
<trkpt lat="31.8193600" lon="35.1010200">
<ele>736.640015</ele>
<time>2025-06-27T13:25:08.497Z</time>
</trkpt>
<trkpt lat="31.8193800" lon="35.1011300">
<ele>735.979980</ele>
<time>2025-06-27T13:25:08.497Z</time>
</trkpt>
<trkpt lat="31.8194900" lon="35.1016900">
<ele>740.360046</ele>
<time>2025-06-27T13:25:08.498Z</time>
</trkpt>
<trkpt lat="31.8195300" lon="35.1017800">
<ele>740.399963</ele>
<time>2025-06-27T13:25:08.498Z</time>
</trkpt>
<trkpt lat="31.8196300" lon="35.1019600">
<ele>740.289978</ele>
<time>2025-06-27T13:25:08.498Z</time>
</trkpt>
<trkpt lat="31.8198000" lon="35.1021600">
<ele>737.100037</ele>
<time>2025-06-27T13:25:08.498Z</time>
</trkpt>
<trkpt lat="31.8198400" lon="35.1021900">
<ele>736.420044</ele>
<time>2025-06-27T13:25:08.498Z</time>
</trkpt>
<trkpt lat="31.8200900" lon="35.1024300">
<ele>735.900024</ele>
<time>2025-06-27T13:25:08.498Z</time>
</trkpt>
<trkpt lat="31.8201500" lon="35.1024500">
<ele>736.279968</ele>
<time>2025-06-27T13:25:08.498Z</time>
</trkpt>
<trkpt lat="31.8202300" lon="35.1024700">
<ele>736.699951</ele>
<time>2025-06-27T13:25:08.498Z</time>
</trkpt>
<trkpt lat="31.8203200" lon="35.1024600">
<ele>738.179993</ele>
<time>2025-06-27T13:25:08.499Z</time>
</trkpt>
<trkpt lat="31.8204200" lon="35.1024300">
<ele>741.099976</ele>
<time>2025-06-27T13:25:08.499Z</time>
</trkpt>
<trkpt lat="31.8206300" lon="35.1020700">
<ele>742.699951</ele>
<time>2025-06-27T13:25:08.499Z</time>
</trkpt>
<trkpt lat="31.8206800" lon="35.1020400">
<ele>743.269958</ele>
<time>2025-06-27T13:25:08.499Z</time>
</trkpt>
<trkpt lat="31.8207400" lon="35.1020400">
<ele>744.350037</ele>
<time>2025-06-27T13:25:08.499Z</time>
</trkpt>
<trkpt lat="31.8207900" lon="35.1024400">
<ele>748.909973</ele>
<time>2025-06-27T13:25:08.499Z</time>
</trkpt>
<trkpt lat="31.8208100" lon="35.1027000">
<ele>751.039978</ele>
<time>2025-06-27T13:25:08.499Z</time>
</trkpt>
<trkpt lat="31.8208400" lon="35.1028900">
<ele>753.380005</ele>
<time>2025-06-27T13:25:08.499Z</time>
</trkpt>
<trkpt lat="31.8208700" lon="35.1031400">
<ele>756.100037</ele>
<time>2025-06-27T13:25:08.500Z</time>
</trkpt>
<trkpt lat="31.8208900" lon="35.1032300">
<ele>756.850037</ele>
<time>2025-06-27T13:25:08.500Z</time>
</trkpt>
<trkpt lat="31.8210200" lon="35.1034500">
<ele>760.450012</ele>
<time>2025-06-27T13:25:08.500Z</time>
</trkpt>
<trkpt lat="31.8211300" lon="35.1041200">
<ele>762.739990</ele>
<time>2025-06-27T13:25:08.500Z</time>
</trkpt>
<trkpt lat="31.8211700" lon="35.1042300">
<ele>763.530029</ele>
<time>2025-06-27T13:25:08.500Z</time>
</trkpt>
<trkpt lat="31.8212100" lon="35.1043400">
<ele>764.500000</ele>
<time>2025-06-27T13:25:08.500Z</time>
</trkpt>
<trkpt lat="31.8213600" lon="35.1045200">
<ele>765.549988</ele>
<time>2025-06-27T13:25:08.500Z</time>
</trkpt>
<trkpt lat="31.8215200" lon="35.1046400">
<ele>766.709961</ele>
<time>2025-06-27T13:25:08.500Z</time>
</trkpt>
<trkpt lat="31.8216300" lon="35.1046900">
<ele>767.719971</ele>
<time>2025-06-27T13:25:08.501Z</time>
</trkpt>
<trkpt lat="31.8219100" lon="35.1047000">
<ele>771.580017</ele>
<time>2025-06-27T13:25:08.501Z</time>
</trkpt>
<trkpt lat="31.8219800" lon="35.1047500">
<ele>772.330017</ele>
<time>2025-06-27T13:25:08.501Z</time>
</trkpt>
<trkpt lat="31.8220900" lon="35.1048800">
<ele>773.019958</ele>
<time>2025-06-27T13:25:08.501Z</time>
</trkpt>
<trkpt lat="31.8222000" lon="35.1049800">
<ele>773.059998</ele>
<time>2025-06-27T13:25:08.501Z</time>
</trkpt>
<trkpt lat="31.8224000" lon="35.1050000">
<ele>767.239990</ele>
<time>2025-06-27T13:25:08.501Z</time>
</trkpt>
<trkpt lat="31.8224900" lon="35.1050400">
<ele>764.609985</ele>
<time>2025-06-27T13:25:08.501Z</time>
</trkpt>
<trkpt lat="31.8225700" lon="35.1051000">
<ele>762.960022</ele>
<time>2025-06-27T13:25:08.501Z</time>
</trkpt>
<trkpt lat="31.8226500" lon="35.1052100">
<ele>761.730042</ele>
<time>2025-06-27T13:25:08.502Z</time>
</trkpt>
<trkpt lat="31.8227600" lon="35.1054900">
<ele>763.220032</ele>
<time>2025-06-27T13:25:08.502Z</time>
</trkpt>
<trkpt lat="31.8229000" lon="35.1059200">
<ele>759.559937</ele>
<time>2025-06-27T13:25:08.502Z</time>
</trkpt>
<trkpt lat="31.8229700" lon="35.1062000">
<ele>757.809998</ele>
<time>2025-06-27T13:25:08.502Z</time>
</trkpt>
<trkpt lat="31.8230400" lon="35.1067700">
<ele>755.109985</ele>
<time>2025-06-27T13:25:08.502Z</time>
</trkpt>
<trkpt lat="31.8230400" lon="35.1069200">
<ele>753.489990</ele>
<time>2025-06-27T13:25:08.502Z</time>
</trkpt>
<trkpt lat="31.8230200" lon="35.1070100">
<ele>752.539978</ele>
<time>2025-06-27T13:25:08.502Z</time>
</trkpt>
<trkpt lat="31.8229200" lon="35.1072900">
<ele>748.979980</ele>
<time>2025-06-27T13:25:08.502Z</time>
</trkpt>
<trkpt lat="31.8226900" lon="35.1074600">
<ele>750.430054</ele>
<time>2025-06-27T13:25:08.503Z</time>
</trkpt>
<trkpt lat="31.8226400" lon="35.1075200">
<ele>750.090027</ele>
<time>2025-06-27T13:25:08.503Z</time>
</trkpt>
<trkpt lat="31.8225900" lon="35.1075600">
<ele>749.950012</ele>
<time>2025-06-27T13:25:08.503Z</time>
</trkpt>
<trkpt lat="31.8224500" lon="35.1077500">
<ele>749.140015</ele>
<time>2025-06-27T13:25:08.503Z</time>
</trkpt>
<trkpt lat="31.8223500" lon="35.1079400">
<ele>747.870056</ele>
<time>2025-06-27T13:25:08.503Z</time>
</trkpt>
<trkpt lat="31.8222700" lon="35.1081300">
<ele>747.289978</ele>
<time>2025-06-27T13:25:08.503Z</time>
</trkpt>
<trkpt lat="31.8222200" lon="35.1083800">
<ele>746.910034</ele>
<time>2025-06-27T13:25:08.503Z</time>
</trkpt>
<trkpt lat="31.8222000" lon="35.1085300">
<ele>747.070007</ele>
<time>2025-06-27T13:25:08.503Z</time>
</trkpt>
<trkpt lat="31.8222000" lon="35.1086500">
<ele>746.830017</ele>
<time>2025-06-27T13:25:08.504Z</time>
</trkpt>
<trkpt lat="31.8222400" lon="35.1089500">
<ele>745.790039</ele>
<time>2025-06-27T13:25:08.504Z</time>
</trkpt>
<trkpt lat="31.8223300" lon="35.1092300">
<ele>745.049988</ele>
<time>2025-06-27T13:25:08.504Z</time>
</trkpt>
<trkpt lat="31.8223800" lon="35.1093300">
<ele>745.359985</ele>
<time>2025-06-27T13:25:08.504Z</time>
</trkpt>
<trkpt lat="31.8225200" lon="35.1095300">
<ele>744.369995</ele>
<time>2025-06-27T13:25:08.504Z</time>
</trkpt>
<trkpt lat="31.8226500" lon="35.1096100">
<ele>741.790039</ele>
<time>2025-06-27T13:25:08.504Z</time>
</trkpt>
<trkpt lat="31.8229200" lon="35.1096900">
<ele>733.899963</ele>
<time>2025-06-27T13:25:08.504Z</time>
</trkpt>
<trkpt lat="31.8229400" lon="35.1097600">
<ele>733.929993</ele>
<time>2025-06-27T13:25:08.504Z</time>
</trkpt>
<trkpt lat="31.8229600" lon="35.1100200">
<ele>735.489990</ele>
<time>2025-06-27T13:25:08.505Z</time>
</trkpt>
<trkpt lat="31.8229800" lon="35.1103200">
<ele>735.330017</ele>
<time>2025-06-27T13:25:08.505Z</time>
</trkpt>
<trkpt lat="31.8230200" lon="35.1106800">
<ele>732.989990</ele>
<time>2025-06-27T13:25:08.505Z</time>
</trkpt>
<trkpt lat="31.8230400" lon="35.1110000">
<ele>729.380005</ele>
<time>2025-06-27T13:25:08.505Z</time>
</trkpt>
<trkpt lat="31.8230400" lon="35.1112600">
<ele>726.450012</ele>
<time>2025-06-27T13:25:08.505Z</time>
</trkpt>
<trkpt lat="31.8230200" lon="35.1114500">
<ele>723.779968</ele>
<time>2025-06-27T13:25:08.505Z</time>
</trkpt>
<trkpt lat="31.8229600" lon="35.1116400">
<ele>720.519958</ele>
<time>2025-06-27T13:25:08.505Z</time>
</trkpt>
<trkpt lat="31.8228900" lon="35.1117600">
<ele>718.819946</ele>
<time>2025-06-27T13:25:08.506Z</time>
</trkpt>
<trkpt lat="31.8223000" lon="35.1125900">
<ele>723.279968</ele>
<time>2025-06-27T13:25:08.506Z</time>
</trkpt>
<trkpt lat="31.8221600" lon="35.1128300">
<ele>723.519958</ele>
<time>2025-06-27T13:25:08.506Z</time>
</trkpt>
<trkpt lat="31.8221000" lon="35.1129100">
<ele>723.640015</ele>
<time>2025-06-27T13:25:08.506Z</time>
</trkpt>
<trkpt lat="31.8220000" lon="35.1129900">
<ele>725.239990</ele>
<time>2025-06-27T13:25:08.506Z</time>
</trkpt>
<trkpt lat="31.8218000" lon="35.1130800">
<ele>729.679993</ele>
<time>2025-06-27T13:25:08.506Z</time>
</trkpt>
<trkpt lat="31.8214400" lon="35.1134400">
<ele>734.609985</ele>
<time>2025-06-27T13:25:08.506Z</time>
</trkpt>
<trkpt lat="31.8204800" lon="35.1139800">
<ele>735.989990</ele>
<time>2025-06-27T13:25:08.507Z</time>
</trkpt>
<trkpt lat="31.8202600" lon="35.1140800">
<ele>739.069946</ele>
<time>2025-06-27T13:25:08.507Z</time>
</trkpt>
<trkpt lat="31.8201600" lon="35.1141800">
<ele>740.520020</ele>
<time>2025-06-27T13:25:08.507Z</time>
</trkpt>
<trkpt lat="31.8201500" lon="35.1142500">
<ele>741.469971</ele>
<time>2025-06-27T13:25:08.507Z</time>
</trkpt>
<trkpt lat="31.8201500" lon="35.1143200">
<ele>742.130005</ele>
<time>2025-06-27T13:25:08.507Z</time>
</trkpt>
<trkpt lat="31.8201500" lon="35.1144400">
<ele>743.260010</ele>
<time>2025-06-27T13:25:08.507Z</time>
</trkpt>
<trkpt lat="31.8202100" lon="35.1146700">
<ele>744.850037</ele>
<time>2025-06-27T13:25:08.508Z</time>
</trkpt>
<trkpt lat="31.8204300" lon="35.1151500">
<ele>743.320007</ele>
<time>2025-06-27T13:25:08.508Z</time>
</trkpt>
<trkpt lat="31.8204900" lon="35.1153800">
<ele>743.210022</ele>
<time>2025-06-27T13:25:08.508Z</time>
</trkpt>
<trkpt lat="31.8204900" lon="35.1156300">
<ele>743.789978</ele>
<time>2025-06-27T13:25:08.508Z</time>
</trkpt>
<trkpt lat="31.8205000" lon="35.1158800">
<ele>741.629944</ele>
<time>2025-06-27T13:25:08.508Z</time>
</trkpt>
<trkpt lat="31.8205000" lon="35.1160800">
<ele>740.910034</ele>
<time>2025-06-27T13:25:08.508Z</time>
</trkpt>
<trkpt lat="31.8204500" lon="35.1164500">
<ele>738.250000</ele>
<time>2025-06-27T13:25:08.509Z</time>
</trkpt>
<trkpt lat="31.8203400" lon="35.1167600">
<ele>738.090027</ele>
<time>2025-06-27T13:25:08.509Z</time>
</trkpt>
<trkpt lat="31.8197900" lon="35.1178400">
<ele>730.479980</ele>
<time>2025-06-27T13:25:08.509Z</time>
</trkpt>
<trkpt lat="31.8197100" lon="35.1179300">
<ele>731.770020</ele>
<time>2025-06-27T13:25:08.509Z</time>
</trkpt>
<trkpt lat="31.8196300" lon="35.1180700">
<ele>733.609985</ele>
<time>2025-06-27T13:25:08.509Z</time>
</trkpt>
<trkpt lat="31.8196300" lon="35.1181400">
<ele>734.949951</ele>
<time>2025-06-27T13:25:08.509Z</time>
</trkpt>
<trkpt lat="31.8196500" lon="35.1182500">
<ele>736.940002</ele>
<time>2025-06-27T13:25:08.509Z</time>
</trkpt>
<trkpt lat="31.8196800" lon="35.1183000">
<ele>737.689941</ele>
<time>2025-06-27T13:25:08.510Z</time>
</trkpt>
<trkpt lat="31.8199500" lon="35.1184100">
<ele>740.839966</ele>
<time>2025-06-27T13:25:08.510Z</time>
</trkpt>
<trkpt lat="31.8203100" lon="35.1186400">
<ele>742.059998</ele>
<time>2025-06-27T13:25:08.510Z</time>
</trkpt>
<trkpt lat="31.8205400" lon="35.1187400">
<ele>740.540039</ele>
<time>2025-06-27T13:25:08.510Z</time>
</trkpt>
<trkpt lat="31.8209300" lon="35.1189900">
<ele>738.499939</ele>
<time>2025-06-27T13:25:08.510Z</time>
</trkpt>
<trkpt lat="31.8211100" lon="35.1191300">
<ele>740.089966</ele>
<time>2025-06-27T13:25:08.510Z</time>
</trkpt>
<trkpt lat="31.8213100" lon="35.1193800">
<ele>742.909973</ele>
<time>2025-06-27T13:25:08.510Z</time>
</trkpt>
<trkpt lat="31.8213900" lon="35.1194400">
<ele>742.919983</ele>
<time>2025-06-27T13:25:08.511Z</time>
</trkpt>
<trkpt lat="31.8215200" lon="35.1194800">
<ele>743.750000</ele>
<time>2025-06-27T13:25:08.511Z</time>
</trkpt>
<trkpt lat="31.8218200" lon="35.1194900">
<ele>742.669983</ele>
<time>2025-06-27T13:25:08.511Z</time>
</trkpt>
<trkpt lat="31.8219500" lon="35.1195200">
<ele>742.890015</ele>
<time>2025-06-27T13:25:08.511Z</time>
</trkpt>
<trkpt lat="31.8223200" lon="35.1195200">
<ele>744.460022</ele>
<time>2025-06-27T13:25:08.511Z</time>
</trkpt>
<trkpt lat="31.8226600" lon="35.1196600">
<ele>752.600037</ele>
<time>2025-06-27T13:25:08.511Z</time>
</trkpt>
<trkpt lat="31.8228400" lon="35.1198400">
<ele>754.010010</ele>
<time>2025-06-27T13:25:08.511Z</time>
</trkpt>
<trkpt lat="31.8230800" lon="35.1202400">
<ele>757.169983</ele>
<time>2025-06-27T13:25:08.511Z</time>
</trkpt>
<trkpt lat="31.8234500" lon="35.1207300">
<ele>753.170044</ele>
<time>2025-06-27T13:25:08.512Z</time>
</trkpt>
<trkpt lat="31.8236100" lon="35.1209300">
<ele>755.089966</ele>
<time>2025-06-27T13:25:08.512Z</time>
</trkpt>
<trkpt lat="31.8232600" lon="35.1210500">
<ele>759.479980</ele>
<time>2025-06-27T13:25:08.512Z</time>
</trkpt>
<trkpt lat="31.8230100" lon="35.1210200">
<ele>764.890015</ele>
<time>2025-06-27T13:25:08.512Z</time>
</trkpt>
<trkpt lat="31.8225500" lon="35.1207800">
<ele>775.909973</ele>
<time>2025-06-27T13:25:08.512Z</time>
</trkpt>
<trkpt lat="31.8217900" lon="35.1206600">
<ele>770.880005</ele>
<time>2025-06-27T13:25:08.512Z</time>
</trkpt>
<trkpt lat="31.8213100" lon="35.1207200">
<ele>767.609985</ele>
<time>2025-06-27T13:25:08.512Z</time>
</trkpt>
<trkpt lat="31.8210600" lon="35.1208200">
<ele>768.839966</ele>
<time>2025-06-27T13:25:08.513Z</time>
</trkpt>
<trkpt lat="31.8207500" lon="35.1209800">
<ele>779.129944</ele>
<time>2025-06-27T13:25:08.513Z</time>
</trkpt>
<trkpt lat="31.8203700" lon="35.1211800">
<ele>791.159973</ele>
<time>2025-06-27T13:25:08.513Z</time>
</trkpt>
<trkpt lat="31.8202200" lon="35.1211800">
<ele>794.940002</ele>
<time>2025-06-27T13:25:08.513Z</time>
</trkpt>
<trkpt lat="31.8197500" lon="35.1206800">
<ele>794.099976</ele>
<time>2025-06-27T13:25:08.513Z</time>
</trkpt>
<trkpt lat="31.8195900" lon="35.1205500">
<ele>792.840027</ele>
<time>2025-06-27T13:25:08.513Z</time>
</trkpt>
<trkpt lat="31.8187900" lon="35.1199300">
<ele>800.980042</ele>
<time>2025-06-27T13:25:08.513Z</time>
</trkpt>
<trkpt lat="31.8184300" lon="35.1196800">
<ele>801.710022</ele>
<time>2025-06-27T13:25:08.513Z</time>
</trkpt>
<trkpt lat="31.8181300" lon="35.1195000">
<ele>796.089966</ele>
<time>2025-06-27T13:25:08.514Z</time>
</trkpt>
<trkpt lat="31.8177000" lon="35.1193800">
<ele>790.399963</ele>
<time>2025-06-27T13:25:08.514Z</time>
</trkpt>
<trkpt lat="31.8174300" lon="35.1195100">
<ele>794.350037</ele>
<time>2025-06-27T13:25:08.514Z</time>
</trkpt>
<trkpt lat="31.8174500" lon="35.1195400">
<ele>794.449951</ele>
<time>2025-06-27T13:25:08.514Z</time>
</trkpt>
<trkpt lat="31.8174800" lon="35.1196900">
<ele>795.739990</ele>
<time>2025-06-27T13:25:08.514Z</time>
</trkpt>
<trkpt lat="31.8175000" lon="35.1197900">
<ele>796.000000</ele>
<time>2025-06-27T13:25:08.514Z</time>
</trkpt>
<trkpt lat="31.8174600" lon="35.1198800">
<ele>795.900024</ele>
<time>2025-06-27T13:25:08.514Z</time>
</trkpt>
<trkpt lat="31.8169700" lon="35.1205700">
<ele>787.609985</ele>
<time>2025-06-27T13:25:08.514Z</time>
</trkpt>
<trkpt lat="31.8167200" lon="35.1208500">
<ele>784.369995</ele>
<time>2025-06-27T13:25:08.515Z</time>
</trkpt>
<trkpt lat="31.8165600" lon="35.1209600">
<ele>780.700012</ele>
<time>2025-06-27T13:25:08.515Z</time>
</trkpt>
<trkpt lat="31.8164700" lon="35.1210400">
<ele>778.750000</ele>
<time>2025-06-27T13:25:08.515Z</time>
</trkpt>
<trkpt lat="31.8162200" lon="35.1212100">
<ele>775.380005</ele>
<time>2025-06-27T13:25:08.515Z</time>
</trkpt>
<trkpt lat="31.8158900" lon="35.1213800">
<ele>770.589966</ele>
<time>2025-06-27T13:25:08.515Z</time>
</trkpt>
<trkpt lat="31.8156300" lon="35.1214700">
<ele>769.559998</ele>
<time>2025-06-27T13:25:08.515Z</time>
</trkpt>
<trkpt lat="31.8148900" lon="35.1216700">
<ele>760.279968</ele>
<time>2025-06-27T13:25:08.515Z</time>
</trkpt>
<trkpt lat="31.8146600" lon="35.1217500">
<ele>761.100037</ele>
<time>2025-06-27T13:25:08.516Z</time>
</trkpt>
<trkpt lat="31.8145200" lon="35.1218700">
<ele>764.119995</ele>
<time>2025-06-27T13:25:08.516Z</time>
</trkpt>
<trkpt lat="31.8144900" lon="35.1219000">
<ele>764.879944</ele>
<time>2025-06-27T13:25:08.516Z</time>
</trkpt>
<trkpt lat="31.8144100" lon="35.1220100">
<ele>766.040039</ele>
<time>2025-06-27T13:25:08.516Z</time>
</trkpt>
<trkpt lat="31.8143200" lon="35.1221400">
<ele>766.179993</ele>
<time>2025-06-27T13:25:08.516Z</time>
</trkpt>
<trkpt lat="31.8142500" lon="35.1223100">
<ele>766.720032</ele>
<time>2025-06-27T13:25:08.516Z</time>
</trkpt>
<trkpt lat="31.8142400" lon="35.1226300">
<ele>766.929993</ele>
<time>2025-06-27T13:25:08.516Z</time>
</trkpt>
<trkpt lat="31.8142400" lon="35.1227800">
<ele>766.790039</ele>
<time>2025-06-27T13:25:08.517Z</time>
</trkpt>
<trkpt lat="31.8142400" lon="35.1229400">
<ele>766.640015</ele>
<time>2025-06-27T13:25:08.517Z</time>
</trkpt>
<trkpt lat="31.8142600" lon="35.1231200">
<ele>766.049988</ele>
<time>2025-06-27T13:25:08.517Z</time>
</trkpt>
<trkpt lat="31.8143000" lon="35.1232100">
<ele>765.559998</ele>
<time>2025-06-27T13:25:08.517Z</time>
</trkpt>
<trkpt lat="31.8144500" lon="35.1234300">
<ele>765.330017</ele>
<time>2025-06-27T13:25:08.517Z</time>
</trkpt>
<trkpt lat="31.8146000" lon="35.1235800">
<ele>765.280029</ele>
<time>2025-06-27T13:25:08.517Z</time>
</trkpt>
<trkpt lat="31.8149400" lon="35.1238000">
<ele>761.780029</ele>
<time>2025-06-27T13:25:08.517Z</time>
</trkpt>
<trkpt lat="31.8151900" lon="35.1240400">
<ele>755.979980</ele>
<time>2025-06-27T13:25:08.518Z</time>
</trkpt>
<trkpt lat="31.8152400" lon="35.1240800">
<ele>755.309998</ele>
<time>2025-06-27T13:25:08.518Z</time>
</trkpt>
<trkpt lat="31.8154400" lon="35.1241700">
<ele>754.619995</ele>
<time>2025-06-27T13:25:08.518Z</time>
</trkpt>
<trkpt lat="31.8159600" lon="35.1243500">
<ele>750.850037</ele>
<time>2025-06-27T13:25:08.518Z</time>
</trkpt>
<trkpt lat="31.8170100" lon="35.1248800">
<ele>750.020020</ele>
<time>2025-06-27T13:25:08.518Z</time>
</trkpt>
<trkpt lat="31.8170900" lon="35.1249700">
<ele>749.140015</ele>
<time>2025-06-27T13:25:08.518Z</time>
</trkpt>
<trkpt lat="31.8170900" lon="35.1251100">
<ele>746.830017</ele>
<time>2025-06-27T13:25:08.518Z</time>
</trkpt>
<trkpt lat="31.8170900" lon="35.1251800">
<ele>745.690002</ele>
<time>2025-06-27T13:25:08.518Z</time>
</trkpt>
<trkpt lat="31.8170700" lon="35.1252100">
<ele>744.889954</ele>
<time>2025-06-27T13:25:08.519Z</time>
</trkpt>
<trkpt lat="31.8167200" lon="35.1253000">
<ele>739.719971</ele>
<time>2025-06-27T13:25:08.519Z</time>
</trkpt>
<trkpt lat="31.8160700" lon="35.1255400">
<ele>740.940002</ele>
<time>2025-06-27T13:25:08.519Z</time>
</trkpt>
<trkpt lat="31.8153100" lon="35.1259600">
<ele>745.070007</ele>
<time>2025-06-27T13:25:08.519Z</time>
</trkpt>
<trkpt lat="31.8139500" lon="35.1266500">
<ele>756.729980</ele>
<time>2025-06-27T13:25:08.519Z</time>
</trkpt>
<trkpt lat="31.8137700" lon="35.1267500">
<ele>758.420044</ele>
<time>2025-06-27T13:25:08.519Z</time>
</trkpt>
<trkpt lat="31.8136900" lon="35.1268400">
<ele>759.760010</ele>
<time>2025-06-27T13:25:08.519Z</time>
</trkpt>
<trkpt lat="31.8136300" lon="35.1269500">
<ele>761.320007</ele>
<time>2025-06-27T13:25:08.519Z</time>
</trkpt>
<trkpt lat="31.8135900" lon="35.1270300">
<ele>762.549988</ele>
<time>2025-06-27T13:25:08.520Z</time>
</trkpt>
<trkpt lat="31.8135200" lon="35.1272400">
<ele>765.179993</ele>
<time>2025-06-27T13:25:08.520Z</time>
</trkpt>
<trkpt lat="31.8134800" lon="35.1273700">
<ele>765.479980</ele>
<time>2025-06-27T13:25:08.520Z</time>
</trkpt>
<trkpt lat="31.8134600" lon="35.1274800">
<ele>766.099976</ele>
<time>2025-06-27T13:25:08.520Z</time>
</trkpt>
<trkpt lat="31.8134600" lon="35.1276200">
<ele>767.179993</ele>
<time>2025-06-27T13:25:08.520Z</time>
</trkpt>
<trkpt lat="31.8134600" lon="35.1278100">
<ele>768.429993</ele>
<time>2025-06-27T13:25:08.520Z</time>
</trkpt>
<trkpt lat="31.8134800" lon="35.1279400">
<ele>768.859985</ele>
<time>2025-06-27T13:25:08.521Z</time>
</trkpt>
<trkpt lat="31.8135700" lon="35.1281200">
<ele>769.239990</ele>
<time>2025-06-27T13:25:08.521Z</time>
</trkpt>
<trkpt lat="31.8138300" lon="35.1284900">
<ele>766.070007</ele>
<time>2025-06-27T13:25:08.521Z</time>
</trkpt>
<trkpt lat="31.8138700" lon="35.1286100">
<ele>764.879944</ele>
<time>2025-06-27T13:25:08.521Z</time>
</trkpt>
<trkpt lat="31.8138700" lon="35.1287500">
<ele>763.830017</ele>
<time>2025-06-27T13:25:08.521Z</time>
</trkpt>
<trkpt lat="31.8138700" lon="35.1289400">
<ele>762.729980</ele>
<time>2025-06-27T13:25:08.521Z</time>
</trkpt>
<trkpt lat="31.8138500" lon="35.1290400">
<ele>762.200012</ele>
<time>2025-06-27T13:25:08.521Z</time>
</trkpt>
<trkpt lat="31.8132300" lon="35.1297700">
<ele>747.630005</ele>
<time>2025-06-27T13:25:08.522Z</time>
</trkpt>
<trkpt lat="31.8130500" lon="35.1300200">
<ele>748.409973</ele>
<time>2025-06-27T13:25:08.522Z</time>
</trkpt>
<trkpt lat="31.8130100" lon="35.1301600">
<ele>751.110046</ele>
<time>2025-06-27T13:25:08.522Z</time>
</trkpt>
<trkpt lat="31.8130000" lon="35.1302300">
<ele>752.690002</ele>
<time>2025-06-27T13:25:08.522Z</time>
</trkpt>
<trkpt lat="31.8130000" lon="35.1303800">
<ele>755.250000</ele>
<time>2025-06-27T13:25:08.522Z</time>
</trkpt>
<trkpt lat="31.8130100" lon="35.1305000">
<ele>757.019958</ele>
<time>2025-06-27T13:25:08.522Z</time>
</trkpt>
<trkpt lat="31.8130800" lon="35.1306600">
<ele>759.009949</ele>
<time>2025-06-27T13:25:08.522Z</time>
</trkpt>
<trkpt lat="31.8132400" lon="35.1308200">
<ele>761.340027</ele>
<time>2025-06-27T13:25:08.522Z</time>
</trkpt>
<trkpt lat="31.8140700" lon="35.1315400">
<ele>772.649963</ele>
<time>2025-06-27T13:25:08.523Z</time>
</trkpt>
<trkpt lat="31.8141000" lon="35.1316000">
<ele>772.789978</ele>
<time>2025-06-27T13:25:08.523Z</time>
</trkpt>
<trkpt lat="31.8141100" lon="35.1317000">
<ele>772.359985</ele>
<time>2025-06-27T13:25:08.523Z</time>
</trkpt>
<trkpt lat="31.8141100" lon="35.1317600">
<ele>771.969971</ele>
<time>2025-06-27T13:25:08.523Z</time>
</trkpt>
<trkpt lat="31.8141100" lon="35.1318500">
<ele>771.390015</ele>
<time>2025-06-27T13:25:08.523Z</time>
</trkpt>
<trkpt lat="31.8140800" lon="35.1318900">
<ele>770.459961</ele>
<time>2025-06-27T13:25:08.523Z</time>
</trkpt>
<trkpt lat="31.8125700" lon="35.1328300">
<ele>768.210022</ele>
<time>2025-06-27T13:25:08.523Z</time>
</trkpt>
<trkpt lat="31.8124200" lon="35.1329400">
<ele>768.460022</ele>
<time>2025-06-27T13:25:08.524Z</time>
</trkpt>
<trkpt lat="31.8123200" lon="35.1330300">
<ele>769.079956</ele>
<time>2025-06-27T13:25:08.524Z</time>
</trkpt>
<trkpt lat="31.8123000" lon="35.1331300">
<ele>770.380005</ele>
<time>2025-06-27T13:25:08.524Z</time>
</trkpt>
<trkpt lat="31.8122900" lon="35.1332500">
<ele>772.029968</ele>
<time>2025-06-27T13:25:08.524Z</time>
</trkpt>
<trkpt lat="31.8122900" lon="35.1334500">
<ele>774.369995</ele>
<time>2025-06-27T13:25:08.524Z</time>
</trkpt>
<trkpt lat="31.8123000" lon="35.1339500">
<ele>776.019958</ele>
<time>2025-06-27T13:25:08.524Z</time>
</trkpt>
<trkpt lat="31.8123300" lon="35.1340900">
<ele>775.759949</ele>
<time>2025-06-27T13:25:08.524Z</time>
</trkpt>
<trkpt lat="31.8124200" lon="35.1345900">
<ele>771.039978</ele>
<time>2025-06-27T13:25:08.524Z</time>
</trkpt>
<trkpt lat="31.8124100" lon="35.1346900">
<ele>769.480042</ele>
<time>2025-06-27T13:25:08.525Z</time>
</trkpt>
<trkpt lat="31.8123900" lon="35.1348200">
<ele>768.410034</ele>
<time>2025-06-27T13:25:08.525Z</time>
</trkpt>
<trkpt lat="31.8123600" lon="35.1349300">
<ele>767.600037</ele>
<time>2025-06-27T13:25:08.525Z</time>
</trkpt>
<trkpt lat="31.8122800" lon="35.1349800">
<ele>766.049988</ele>
<time>2025-06-27T13:25:08.525Z</time>
</trkpt>
<trkpt lat="31.8122200" lon="35.1349800">
<ele>764.970032</ele>
<time>2025-06-27T13:25:08.525Z</time>
</trkpt>
<trkpt lat="31.8121500" lon="35.1349800">
<ele>763.960022</ele>
<time>2025-06-27T13:25:08.525Z</time>
</trkpt>
<trkpt lat="31.8119200" lon="35.1348700">
<ele>761.570007</ele>
<time>2025-06-27T13:25:08.526Z</time>
</trkpt>
<trkpt lat="31.8117800" lon="35.1347500">
<ele>764.609985</ele>
<time>2025-06-27T13:25:08.526Z</time>
</trkpt>
<trkpt lat="31.8116400" lon="35.1346000">
<ele>765.089966</ele>
<time>2025-06-27T13:25:08.526Z</time>
</trkpt>
<trkpt lat="31.8112400" lon="35.1340500">
<ele>753.709961</ele>
<time>2025-06-27T13:25:08.526Z</time>
</trkpt>
<trkpt lat="31.8111600" lon="35.1339500">
<ele>751.409973</ele>
<time>2025-06-27T13:25:08.526Z</time>
</trkpt>
<trkpt lat="31.8111100" lon="35.1339400">
<ele>750.700012</ele>
<time>2025-06-27T13:25:08.526Z</time>
</trkpt>
<trkpt lat="31.8110100" lon="35.1339300">
<ele>747.480042</ele>
<time>2025-06-27T13:25:08.527Z</time>
</trkpt>
<trkpt lat="31.8105700" lon="35.1339400">
<ele>733.929993</ele>
<time>2025-06-27T13:25:08.527Z</time>
</trkpt>
<trkpt lat="31.8101000" lon="35.1340400">
<ele>733.279968</ele>
<time>2025-06-27T13:25:08.527Z</time>
</trkpt>
<trkpt lat="31.8098100" lon="35.1341200">
<ele>735.599976</ele>
<time>2025-06-27T13:25:08.527Z</time>
</trkpt>
<trkpt lat="31.8096300" lon="35.1341600">
<ele>736.279968</ele>
<time>2025-06-27T13:25:08.527Z</time>
</trkpt>
<trkpt lat="31.8095800" lon="35.1341600">
<ele>735.929993</ele>
<time>2025-06-27T13:25:08.527Z</time>
</trkpt>
<trkpt lat="31.8095200" lon="35.1341300">
<ele>735.339966</ele>
<time>2025-06-27T13:25:08.527Z</time>
</trkpt>
<trkpt lat="31.8087700" lon="35.1329700">
<ele>724.479980</ele>
<time>2025-06-27T13:25:08.527Z</time>
</trkpt>
<trkpt lat="31.8087100" lon="35.1329500">
<ele>723.090027</ele>
<time>2025-06-27T13:25:08.528Z</time>
</trkpt>
<trkpt lat="31.8086700" lon="35.1329500">
<ele>722.239990</ele>
<time>2025-06-27T13:25:08.528Z</time>
</trkpt>
<trkpt lat="31.8086300" lon="35.1329500">
<ele>721.399963</ele>
<time>2025-06-27T13:25:08.528Z</time>
</trkpt>
<trkpt lat="31.8085300" lon="35.1330000">
<ele>718.839966</ele>
<time>2025-06-27T13:25:08.528Z</time>
</trkpt>
<trkpt lat="31.8080500" lon="35.1336100">
<ele>711.919983</ele>
<time>2025-06-27T13:25:08.528Z</time>
</trkpt>
<trkpt lat="31.8078600" lon="35.1338800">
<ele>710.830017</ele>
<time>2025-06-27T13:25:08.528Z</time>
</trkpt>
<trkpt lat="31.8077800" lon="35.1340600">
<ele>710.640015</ele>
<time>2025-06-27T13:25:08.528Z</time>
</trkpt>
<trkpt lat="31.8076100" lon="35.1345300">
<ele>705.549988</ele>
<time>2025-06-27T13:25:08.529Z</time>
</trkpt>
<trkpt lat="31.8075400" lon="35.1345600">
<ele>704.240051</ele>
<time>2025-06-27T13:25:08.529Z</time>
</trkpt>
<trkpt lat="31.8074500" lon="35.1345600">
<ele>702.650024</ele>
<time>2025-06-27T13:25:08.529Z</time>
</trkpt>
<trkpt lat="31.8073300" lon="35.1345400">
<ele>700.410034</ele>
<time>2025-06-27T13:25:08.529Z</time>
</trkpt>
<trkpt lat="31.8072700" lon="35.1345200">
<ele>699.210022</ele>
<time>2025-06-27T13:25:08.529Z</time>
</trkpt>
<trkpt lat="31.8072100" lon="35.1344500">
<ele>697.889954</ele>
<time>2025-06-27T13:25:08.529Z</time>
</trkpt>
<trkpt lat="31.8071700" lon="35.1343100">
<ele>697.919983</ele>
<time>2025-06-27T13:25:08.529Z</time>
</trkpt>
<trkpt lat="31.8071600" lon="35.1339500">
<ele>698.929993</ele>
<time>2025-06-27T13:25:08.530Z</time>
</trkpt>
<trkpt lat="31.8071400" lon="35.1338300">
<ele>698.580017</ele>
<time>2025-06-27T13:25:08.530Z</time>
</trkpt>
<trkpt lat="31.8070800" lon="35.1337300">
<ele>697.690002</ele>
<time>2025-06-27T13:25:08.530Z</time>
</trkpt>
<trkpt lat="31.8070100" lon="35.1337000">
<ele>697.140015</ele>
<time>2025-06-27T13:25:08.530Z</time>
</trkpt>
<trkpt lat="31.8069700" lon="35.1337000">
<ele>696.859985</ele>
<time>2025-06-27T13:25:08.530Z</time>
</trkpt>
<trkpt lat="31.8069200" lon="35.1337000">
<ele>696.509949</ele>
<time>2025-06-27T13:25:08.530Z</time>
</trkpt>
<trkpt lat="31.8068900" lon="35.1337300">
<ele>696.119995</ele>
<time>2025-06-27T13:25:08.530Z</time>
</trkpt>
<trkpt lat="31.8068800" lon="35.1340300">
<ele>694.839966</ele>
<time>2025-06-27T13:25:08.531Z</time>
</trkpt>
<trkpt lat="31.8068500" lon="35.1341400">
<ele>694.029968</ele>
<time>2025-06-27T13:25:08.531Z</time>
</trkpt>
<trkpt lat="31.8066900" lon="35.1343600">
<ele>691.720032</ele>
<time>2025-06-27T13:25:08.531Z</time>
</trkpt>
<trkpt lat="31.8061600" lon="35.1349400">
<ele>689.030029</ele>
<time>2025-06-27T13:25:08.531Z</time>
</trkpt>
<trkpt lat="31.8061500" lon="35.1350200">
<ele>690.009949</ele>
<time>2025-06-27T13:25:08.531Z</time>
</trkpt>
<trkpt lat="31.8061500" lon="35.1351100">
<ele>690.059998</ele>
<time>2025-06-27T13:25:08.531Z</time>
</trkpt>
<trkpt lat="31.8061600" lon="35.1351900">
<ele>690.120056</ele>
<time>2025-06-27T13:25:08.531Z</time>
</trkpt>
<trkpt lat="31.8062000" lon="35.1352400">
<ele>690.280029</ele>
<time>2025-06-27T13:25:08.531Z</time>
</trkpt>
<trkpt lat="31.8064900" lon="35.1354500">
<ele>686.970032</ele>
<time>2025-06-27T13:25:08.532Z</time>
</trkpt>
<trkpt lat="31.8066200" lon="35.1355200">
<ele>684.419983</ele>
<time>2025-06-27T13:25:08.532Z</time>
</trkpt>
<trkpt lat="31.8071200" lon="35.1357100">
<ele>679.339966</ele>
<time>2025-06-27T13:25:08.532Z</time>
</trkpt>
<trkpt lat="31.8072100" lon="35.1357600">
<ele>678.309998</ele>
<time>2025-06-27T13:25:08.532Z</time>
</trkpt>
<trkpt lat="31.8072700" lon="35.1358400">
<ele>677.840027</ele>
<time>2025-06-27T13:25:08.532Z</time>
</trkpt>
<trkpt lat="31.8072800" lon="35.1359000">
<ele>677.899963</ele>
<time>2025-06-27T13:25:08.532Z</time>
</trkpt>
<trkpt lat="31.8072900" lon="35.1359700">
<ele>677.970032</ele>
<time>2025-06-27T13:25:08.532Z</time>
</trkpt>
<trkpt lat="31.8072900" lon="35.1360700">
<ele>677.780029</ele>
<time>2025-06-27T13:25:08.533Z</time>
</trkpt>
<trkpt lat="31.8070600" lon="35.1374300">
<ele>669.889954</ele>
<time>2025-06-27T13:25:08.533Z</time>
</trkpt>
<trkpt lat="31.8069900" lon="35.1382000">
<ele>667.359985</ele>
<time>2025-06-27T13:25:08.533Z</time>
</trkpt>
<trkpt lat="31.8069500" lon="35.1385500">
<ele>663.649963</ele>
<time>2025-06-27T13:25:08.533Z</time>
</trkpt>
<trkpt lat="31.8069000" lon="35.1391000">
<ele>661.559998</ele>
<time>2025-06-27T13:25:08.533Z</time>
</trkpt>
<trkpt lat="31.8068900" lon="35.1392000">
<ele>661.190002</ele>
<time>2025-06-27T13:25:08.533Z</time>
</trkpt>
<trkpt lat="31.8068900" lon="35.1395300">
<ele>660.040039</ele>
<time>2025-06-27T13:25:08.533Z</time>
</trkpt>
<trkpt lat="31.8068900" lon="35.1397800">
<ele>657.450012</ele>
<time>2025-06-27T13:25:08.534Z</time>
</trkpt>
<trkpt lat="31.8069200" lon="35.1400200">
<ele>656.830017</ele>
<time>2025-06-27T13:25:08.534Z</time>
</trkpt>
<trkpt lat="31.8069300" lon="35.1402600">
<ele>660.339966</ele>
<time>2025-06-27T13:25:08.534Z</time>
</trkpt>
<trkpt lat="31.8069200" lon="35.1403300">
<ele>660.359985</ele>
<time>2025-06-27T13:25:08.534Z</time>
</trkpt>
<trkpt lat="31.8069000" lon="35.1403600">
<ele>659.910034</ele>
<time>2025-06-27T13:25:08.534Z</time>
</trkpt>
<trkpt lat="31.8068500" lon="35.1403600">
<ele>658.679993</ele>
<time>2025-06-27T13:25:08.534Z</time>
</trkpt>
<trkpt lat="31.8067800" lon="35.1403600">
<ele>656.960022</ele>
<time>2025-06-27T13:25:08.534Z</time>
</trkpt>
<trkpt lat="31.8065700" lon="35.1403100">
<ele>653.419983</ele>
<time>2025-06-27T13:25:08.534Z</time>
</trkpt>
<trkpt lat="31.8063600" lon="35.1401600">
<ele>652.380005</ele>
<time>2025-06-27T13:25:08.535Z</time>
</trkpt>
<trkpt lat="31.8061200" lon="35.1399500">
<ele>651.609985</ele>
<time>2025-06-27T13:25:08.535Z</time>
</trkpt>
<trkpt lat="31.8059500" lon="35.1398900">
<ele>653.300049</ele>
<time>2025-06-27T13:25:08.535Z</time>
</trkpt>
<trkpt lat="31.8058600" lon="35.1398100">
<ele>653.630005</ele>
<time>2025-06-27T13:25:08.535Z</time>
</trkpt>
<trkpt lat="31.8058000" lon="35.1397300">
<ele>652.960022</ele>
<time>2025-06-27T13:25:08.535Z</time>
</trkpt>
<trkpt lat="31.8056500" lon="35.1396700">
<ele>652.089966</ele>
<time>2025-06-27T13:25:08.535Z</time>
</trkpt>
<trkpt lat="31.8055000" lon="35.1395000">
<ele>650.760010</ele>
<time>2025-06-27T13:25:08.535Z</time>
</trkpt>
<trkpt lat="31.8053800" lon="35.1394100">
<ele>649.659973</ele>
<time>2025-06-27T13:25:08.536Z</time>
</trkpt>
<trkpt lat="31.8051100" lon="35.1390300">
<ele>646.800049</ele>
<time>2025-06-27T13:25:08.536Z</time>
</trkpt>
<trkpt lat="31.8050500" lon="35.1389300">
<ele>645.779968</ele>
<time>2025-06-27T13:25:08.536Z</time>
</trkpt>
<trkpt lat="31.8050100" lon="35.1387900">
<ele>646.479980</ele>
<time>2025-06-27T13:25:08.536Z</time>
</trkpt>
<trkpt lat="31.8049600" lon="35.1384900">
<ele>647.940002</ele>
<time>2025-06-27T13:25:08.536Z</time>
</trkpt>
<trkpt lat="31.8048900" lon="35.1382600">
<ele>646.419983</ele>
<time>2025-06-27T13:25:08.536Z</time>
</trkpt>
<trkpt lat="31.8047200" lon="35.1379300">
<ele>647.010010</ele>
<time>2025-06-27T13:25:08.536Z</time>
</trkpt>
<trkpt lat="31.8044500" lon="35.1376100">
<ele>649.179993</ele>
<time>2025-06-27T13:25:08.538Z</time>
</trkpt>
<trkpt lat="31.8043800" lon="35.1372800">
<ele>649.630005</ele>
<time>2025-06-27T13:25:08.539Z</time>
</trkpt>
<trkpt lat="31.8043500" lon="35.1372100">
<ele>649.289978</ele>
<time>2025-06-27T13:25:08.539Z</time>
</trkpt>
<trkpt lat="31.8042200" lon="35.1370800">
<ele>647.559998</ele>
<time>2025-06-27T13:25:08.540Z</time>
</trkpt>
<trkpt lat="31.8041600" lon="35.1370500">
<ele>646.679993</ele>
<time>2025-06-27T13:25:08.540Z</time>
</trkpt>
<trkpt lat="31.8038800" lon="35.1368200">
<ele>641.960022</ele>
<time>2025-06-27T13:25:08.541Z</time>
</trkpt>
<trkpt lat="31.8037200" lon="35.1366500">
<ele>643.620056</ele>
<time>2025-06-27T13:25:08.541Z</time>
</trkpt>
<trkpt lat="31.8036300" lon="35.1365300">
<ele>644.359985</ele>
<time>2025-06-27T13:25:08.545Z</time>
</trkpt>
<trkpt lat="31.8036000" lon="35.1364400">
<ele>644.809998</ele>
<time>2025-06-27T13:25:08.546Z</time>
</trkpt>
<trkpt lat="31.8034700" lon="35.1361700">
<ele>642.130005</ele>
<time>2025-06-27T13:25:08.546Z</time>
</trkpt>
<trkpt lat="31.8031900" lon="35.1358100">
<ele>639.450012</ele>
<time>2025-06-27T13:25:08.546Z</time>
</trkpt>
<trkpt lat="31.8029800" lon="35.1355000">
<ele>638.779968</ele>
<time>2025-06-27T13:25:08.547Z</time>
</trkpt>
<trkpt lat="31.8028100" lon="35.1352900">
<ele>638.889954</ele>
<time>2025-06-27T13:25:08.548Z</time>
</trkpt>
<trkpt lat="31.8026400" lon="35.1351400">
<ele>639.750000</ele>
<time>2025-06-27T13:25:08.548Z</time>
</trkpt>
<trkpt lat="31.8025600" lon="35.1350200">
<ele>639.550049</ele>
<time>2025-06-27T13:25:08.549Z</time>
</trkpt>
<trkpt lat="31.8024300" lon="35.1347600">
<ele>639.500000</ele>
<time>2025-06-27T13:25:08.549Z</time>
</trkpt>
<trkpt lat="31.8022900" lon="35.1343500">
<ele>639.569946</ele>
<time>2025-06-27T13:25:08.550Z</time>
</trkpt>
<trkpt lat="31.8021000" lon="35.1340900">
<ele>635.740051</ele>
<time>2025-06-27T13:25:08.550Z</time>
</trkpt>
<trkpt lat="31.8019400" lon="35.1338200">
<ele>630.299988</ele>
<time>2025-06-27T13:25:08.550Z</time>
</trkpt>
<trkpt lat="31.8018900" lon="35.1337200">
<ele>629.760010</ele>
<time>2025-06-27T13:25:08.550Z</time>
</trkpt>
<trkpt lat="31.8018400" lon="35.1336200">
<ele>629.220032</ele>
<time>2025-06-27T13:25:08.550Z</time>
</trkpt>
<trkpt lat="31.8015600" lon="35.1332600">
<ele>631.989990</ele>
<time>2025-06-27T13:25:08.551Z</time>
</trkpt>
<trkpt lat="31.8014400" lon="35.1330900">
<ele>632.240051</ele>
<time>2025-06-27T13:25:08.552Z</time>
</trkpt>
<trkpt lat="31.8014400" lon="35.1327000">
<ele>632.739990</ele>
<time>2025-06-27T13:25:08.552Z</time>
</trkpt>
<trkpt lat="31.8013900" lon="35.1324200">
<ele>631.729980</ele>
<time>2025-06-27T13:25:08.552Z</time>
</trkpt>
<trkpt lat="31.8014400" lon="35.1318100">
<ele>630.039978</ele>
<time>2025-06-27T13:25:08.553Z</time>
</trkpt>
<trkpt lat="31.8015000" lon="35.1314200">
<ele>628.090027</ele>
<time>2025-06-27T13:25:08.554Z</time>
</trkpt>
<trkpt lat="31.8016300" lon="35.1307500">
<ele>619.950012</ele>
<time>2025-06-27T13:25:08.554Z</time>
</trkpt>
<trkpt lat="31.8016900" lon="35.1304100">
<ele>618.539978</ele>
<time>2025-06-27T13:25:08.555Z</time>
</trkpt>
<trkpt lat="31.8017900" lon="35.1300400">
<ele>619.559998</ele>
<time>2025-06-27T13:25:08.555Z</time>
</trkpt>
<trkpt lat="31.8018400" lon="35.1298000">
<ele>619.169983</ele>
<time>2025-06-27T13:25:08.555Z</time>
</trkpt>
<trkpt lat="31.8018800" lon="35.1296700">
<ele>618.859985</ele>
<time>2025-06-27T13:25:08.555Z</time>
</trkpt>
<trkpt lat="31.8018900" lon="35.1293000">
<ele>617.780029</ele>
<time>2025-06-27T13:25:08.556Z</time>
</trkpt>
<trkpt lat="31.8018900" lon="35.1292200">
<ele>617.549988</ele>
<time>2025-06-27T13:25:08.556Z</time>
</trkpt>
<trkpt lat="31.8019000" lon="35.1288500">
<ele>616.850037</ele>
<time>2025-06-27T13:25:08.556Z</time>
</trkpt>
<trkpt lat="31.8018900" lon="35.1285600">
<ele>618.309998</ele>
<time>2025-06-27T13:25:08.556Z</time>
</trkpt>
<trkpt lat="31.8018700" lon="35.1283200">
<ele>618.849976</ele>
<time>2025-06-27T13:25:08.556Z</time>
</trkpt>
<trkpt lat="31.8018700" lon="35.1283200">
<ele>618.849976</ele>
<time>2025-06-27T13:25:08.557Z</time>
</trkpt>
<trkpt lat="31.8018600" lon="35.1283300">
<ele>618.720032</ele>
<time>2025-06-27T13:25:08.557Z</time>
</trkpt>
<trkpt lat="31.8018600" lon="35.1283000">
<ele>618.979980</ele>
<time>2025-06-27T13:25:08.557Z</time>
</trkpt>
<trkpt lat="31.8018500" lon="35.1281800">
<ele>619.940002</ele>
<time>2025-06-27T13:25:08.557Z</time>
</trkpt>
<trkpt lat="31.8018600" lon="35.1280000">
<ele>621.830017</ele>
<time>2025-06-27T13:25:08.557Z</time>
</trkpt>
<trkpt lat="31.8018500" lon="35.1278100">
<ele>624.219971</ele>
<time>2025-06-27T13:25:08.557Z</time>
</trkpt>
<trkpt lat="31.8017600" lon="35.1274800">
<ele>623.859985</ele>
<time>2025-06-27T13:25:08.557Z</time>
</trkpt>
<trkpt lat="31.8017300" lon="35.1274400">
<ele>623.369995</ele>
<time>2025-06-27T13:25:08.558Z</time>
</trkpt>
<trkpt lat="31.8017000" lon="35.1274000">
<ele>622.950012</ele>
<time>2025-06-27T13:25:08.558Z</time>
</trkpt>
<trkpt lat="31.8016800" lon="35.1273600">
<ele>622.849976</ele>
<time>2025-06-27T13:25:08.558Z</time>
</trkpt>
<trkpt lat="31.8016500" lon="35.1273100">
<ele>622.970032</ele>
<time>2025-06-27T13:25:08.558Z</time>
</trkpt>
<trkpt lat="31.8016300" lon="35.1272600">
<ele>623.360046</ele>
<time>2025-06-27T13:25:08.559Z</time>
</trkpt>
<trkpt lat="31.8016100" lon="35.1272100">
<ele>623.669983</ele>
<time>2025-06-27T13:25:08.559Z</time>
</trkpt>
<trkpt lat="31.8016000" lon="35.1271600">
<ele>623.910034</ele>
<time>2025-06-27T13:25:08.559Z</time>
</trkpt>
<trkpt lat="31.8015500" lon="35.1269900">
<ele>624.479980</ele>
<time>2025-06-27T13:25:08.559Z</time>
</trkpt>
<trkpt lat="31.8014900" lon="35.1267300">
<ele>625.150024</ele>
<time>2025-06-27T13:25:08.560Z</time>
</trkpt>
<trkpt lat="31.8014800" lon="35.1266900">
<ele>625.200012</ele>
<time>2025-06-27T13:25:08.560Z</time>
</trkpt>
<trkpt lat="31.8014800" lon="35.1266600">
<ele>625.350037</ele>
<time>2025-06-27T13:25:08.560Z</time>
</trkpt>
<trkpt lat="31.8014800" lon="35.1266300">
<ele>625.529968</ele>
<time>2025-06-27T13:25:08.560Z</time>
</trkpt>
<trkpt lat="31.8014800" lon="35.1265900">
<ele>625.770020</ele>
<time>2025-06-27T13:25:08.560Z</time>
</trkpt>
<trkpt lat="31.8014800" lon="35.1265600">
<ele>625.950012</ele>
<time>2025-06-27T13:25:08.560Z</time>
</trkpt>
<trkpt lat="31.8014900" lon="35.1265300">
<ele>626.259949</ele>
<time>2025-06-27T13:25:08.561Z</time>
</trkpt>
<trkpt lat="31.8015000" lon="35.1265100">
<ele>626.500000</ele>
<time>2025-06-27T13:25:08.561Z</time>
</trkpt>
<trkpt lat="31.8015100" lon="35.1264800">
<ele>626.799988</ele>
<time>2025-06-27T13:25:08.561Z</time>
</trkpt>
<trkpt lat="31.8015300" lon="35.1264500">
<ele>627.199951</ele>
<time>2025-06-27T13:25:08.561Z</time>
</trkpt>
<trkpt lat="31.8015500" lon="35.1264300">
<ele>627.529968</ele>
<time>2025-06-27T13:25:08.561Z</time>
</trkpt>
<trkpt lat="31.8014800" lon="35.1263400">
<ele>627.340027</ele>
<time>2025-06-27T13:25:08.561Z</time>
</trkpt>
<trkpt lat="31.8014200" lon="35.1262500">
<ele>627.340027</ele>
<time>2025-06-27T13:25:08.561Z</time>
</trkpt>
<trkpt lat="31.8013800" lon="35.1261400">
<ele>627.730042</ele>
<time>2025-06-27T13:25:08.561Z</time>
</trkpt>
<trkpt lat="31.8013500" lon="35.1260300">
<ele>628.009949</ele>
<time>2025-06-27T13:25:08.562Z</time>
</trkpt>
<trkpt lat="31.8013300" lon="35.1259100">
<ele>628.300049</ele>
<time>2025-06-27T13:25:08.562Z</time>
</trkpt>
<trkpt lat="31.8013200" lon="35.1257700">
<ele>628.449951</ele>
<time>2025-06-27T13:25:08.562Z</time>
</trkpt>
<trkpt lat="31.8013200" lon="35.1255600">
<ele>628.260010</ele>
<time>2025-06-27T13:25:08.562Z</time>
</trkpt>
<trkpt lat="31.8013200" lon="35.1254800">
<ele>628.119995</ele>
<time>2025-06-27T13:25:08.562Z</time>
</trkpt>
<trkpt lat="31.8013200" lon="35.1254800">
<ele>628.119995</ele>
<time>2025-06-27T13:25:08.562Z</time>
</trkpt>
<trkpt lat="31.8013200" lon="35.1254800">
<ele>628.119995</ele>
<time>2025-06-27T13:25:08.562Z</time>
</trkpt>
<trkpt lat="31.8013300" lon="35.1253800">
<ele>628.099976</ele>
<time>2025-06-27T13:25:08.563Z</time>
</trkpt>
<trkpt lat="31.8013400" lon="35.1253000">
<ele>628.150024</ele>
<time>2025-06-27T13:25:08.563Z</time>
</trkpt>
<trkpt lat="31.8013500" lon="35.1252000">
<ele>628.500000</ele>
<time>2025-06-27T13:25:08.563Z</time>
</trkpt>
<trkpt lat="31.8013600" lon="35.1251200">
<ele>628.929993</ele>
<time>2025-06-27T13:25:08.563Z</time>
</trkpt>
<trkpt lat="31.8013800" lon="35.1250400">
<ele>629.640015</ele>
<time>2025-06-27T13:25:08.563Z</time>
</trkpt>
<trkpt lat="31.8013900" lon="35.1249700">
<ele>630.140015</ele>
<time>2025-06-27T13:25:08.563Z</time>
</trkpt>
<trkpt lat="31.8014100" lon="35.1248900">
<ele>631.000000</ele>
<time>2025-06-27T13:25:08.563Z</time>
</trkpt>
<trkpt lat="31.8014300" lon="35.1248200">
<ele>631.830017</ele>
<time>2025-06-27T13:25:08.564Z</time>
</trkpt>
<trkpt lat="31.8014400" lon="35.1247500">
<ele>632.370056</ele>
<time>2025-06-27T13:25:08.564Z</time>
</trkpt>
<trkpt lat="31.8014600" lon="35.1246900">
<ele>632.900024</ele>
<time>2025-06-27T13:25:08.564Z</time>
</trkpt>
<trkpt lat="31.8014700" lon="35.1246400">
<ele>632.900024</ele>
<time>2025-06-27T13:25:08.564Z</time>
</trkpt>
<trkpt lat="31.8014800" lon="35.1246200">
<ele>633.019958</ele>
<time>2025-06-27T13:25:08.564Z</time>
</trkpt>
<trkpt lat="31.8014800" lon="35.1246200">
<ele>633.019958</ele>
<time>2025-06-27T13:25:08.564Z</time>
</trkpt>
<trkpt lat="31.8014800" lon="35.1245900">
<ele>632.840027</ele>
<time>2025-06-27T13:25:08.564Z</time>
</trkpt>
<trkpt lat="31.8014900" lon="35.1245300">
<ele>632.649963</ele>
<time>2025-06-27T13:25:08.565Z</time>
</trkpt>
<trkpt lat="31.8015000" lon="35.1244800">
<ele>632.460022</ele>
<time>2025-06-27T13:25:08.565Z</time>
</trkpt>
<trkpt lat="31.8015100" lon="35.1244300">
<ele>632.049988</ele>
<time>2025-06-27T13:25:08.565Z</time>
</trkpt>
<trkpt lat="31.8015200" lon="35.1243800">
<ele>631.260010</ele>
<time>2025-06-27T13:25:08.565Z</time>
</trkpt>
<trkpt lat="31.8015200" lon="35.1243300">
<ele>630.360046</ele>
<time>2025-06-27T13:25:08.565Z</time>
</trkpt>
<trkpt lat="31.8015300" lon="35.1242800">
<ele>629.559998</ele>
<time>2025-06-27T13:25:08.565Z</time>
</trkpt>
<trkpt lat="31.8015300" lon="35.1242400">
<ele>628.839966</ele>
<time>2025-06-27T13:25:08.565Z</time>
</trkpt>
<trkpt lat="31.8015400" lon="35.1241400">
<ele>627.290039</ele>
<time>2025-06-27T13:25:08.566Z</time>
</trkpt>
<trkpt lat="31.8015600" lon="35.1239100">
<ele>624.509949</ele>
<time>2025-06-27T13:25:08.566Z</time>
</trkpt>
<trkpt lat="31.8015600" lon="35.1238700">
<ele>624.040039</ele>
<time>2025-06-27T13:25:08.566Z</time>
</trkpt>
<trkpt lat="31.8015700" lon="35.1238300">
<ele>623.679993</ele>
<time>2025-06-27T13:25:08.566Z</time>
</trkpt>
<trkpt lat="31.8015800" lon="35.1237900">
<ele>623.289978</ele>
<time>2025-06-27T13:25:08.566Z</time>
</trkpt>
<trkpt lat="31.8015900" lon="35.1237600">
<ele>622.979980</ele>
<time>2025-06-27T13:25:08.566Z</time>
</trkpt>
<trkpt lat="31.8016000" lon="35.1237300">
<ele>622.640015</ele>
<time>2025-06-27T13:25:08.566Z</time>
</trkpt>
<trkpt lat="31.8016200" lon="35.1237100">
<ele>622.410034</ele>
<time>2025-06-27T13:25:08.567Z</time>
</trkpt>
<trkpt lat="31.8016400" lon="35.1236800">
<ele>622.020020</ele>
<time>2025-06-27T13:25:08.567Z</time>
</trkpt>
<trkpt lat="31.8016500" lon="35.1236600">
<ele>621.730042</ele>
<time>2025-06-27T13:25:08.567Z</time>
</trkpt>
<trkpt lat="31.8016700" lon="35.1236400">
<ele>621.419983</ele>
<time>2025-06-27T13:25:08.567Z</time>
</trkpt>
<trkpt lat="31.8017000" lon="35.1236200">
<ele>621.130005</ele>
<time>2025-06-27T13:25:08.567Z</time>
</trkpt>
<trkpt lat="31.8017100" lon="35.1236100">
<ele>620.979980</ele>
<time>2025-06-27T13:25:08.567Z</time>
</trkpt>
<trkpt lat="31.8017300" lon="35.1235900">
<ele>620.580017</ele>
<time>2025-06-27T13:25:08.567Z</time>
</trkpt>
<trkpt lat="31.8017700" lon="35.1235500">
<ele>619.840027</ele>
<time>2025-06-27T13:25:08.567Z</time>
</trkpt>
<trkpt lat="31.8018000" lon="35.1235000">
<ele>618.979980</ele>
<time>2025-06-27T13:25:08.568Z</time>
</trkpt>
<trkpt lat="31.8018200" lon="35.1234600">
<ele>618.340027</ele>
<time>2025-06-27T13:25:08.568Z</time>
</trkpt>
<trkpt lat="31.8018300" lon="35.1234200">
<ele>617.679993</ele>
<time>2025-06-27T13:25:08.568Z</time>
</trkpt>
<trkpt lat="31.8018300" lon="35.1233700">
<ele>616.809998</ele>
<time>2025-06-27T13:25:08.568Z</time>
</trkpt>
<trkpt lat="31.8018300" lon="35.1233300">
<ele>616.130005</ele>
<time>2025-06-27T13:25:08.568Z</time>
</trkpt>
<trkpt lat="31.8018300" lon="35.1232900">
<ele>615.590027</ele>
<time>2025-06-27T13:25:08.568Z</time>
</trkpt>
<trkpt lat="31.8018200" lon="35.1232600">
<ele>615.140015</ele>
<time>2025-06-27T13:25:08.568Z</time>
</trkpt>
<trkpt lat="31.8018100" lon="35.1232400">
<ele>614.840027</ele>
<time>2025-06-27T13:25:08.568Z</time>
</trkpt>
<trkpt lat="31.8017900" lon="35.1232100">
<ele>614.410034</ele>
<time>2025-06-27T13:25:08.569Z</time>
</trkpt>
<trkpt lat="31.8017500" lon="35.1231700">
<ele>613.890015</ele>
<time>2025-06-27T13:25:08.569Z</time>
</trkpt>
<trkpt lat="31.8016900" lon="35.1231600">
<ele>613.760010</ele>
<time>2025-06-27T13:25:08.569Z</time>
</trkpt>
<trkpt lat="31.8016300" lon="35.1231600">
<ele>614.229980</ele>
<time>2025-06-27T13:25:08.569Z</time>
</trkpt>
<trkpt lat="31.8016300" lon="35.1231600">
<ele>614.229980</ele>
<time>2025-06-27T13:25:08.569Z</time>
</trkpt>
<trkpt lat="31.8016300" lon="35.1231600">
<ele>614.229980</ele>
<time>2025-06-27T13:25:08.569Z</time>
</trkpt>
<trkpt lat="31.8015400" lon="35.1231600">
<ele>615.400024</ele>
<time>2025-06-27T13:25:08.569Z</time>
</trkpt>
<trkpt lat="31.8014600" lon="35.1231800">
<ele>616.539978</ele>
<time>2025-06-27T13:25:08.570Z</time>
</trkpt>
<trkpt lat="31.8014000" lon="35.1232100">
<ele>617.419983</ele>
<time>2025-06-27T13:25:08.570Z</time>
</trkpt>
<trkpt lat="31.8013500" lon="35.1232500">
<ele>617.799988</ele>
<time>2025-06-27T13:25:08.570Z</time>
</trkpt>
<trkpt lat="31.8013100" lon="35.1232800">
<ele>618.039978</ele>
<time>2025-06-27T13:25:08.570Z</time>
</trkpt>
<trkpt lat="31.8012500" lon="35.1233500">
<ele>618.650024</ele>
<time>2025-06-27T13:25:08.570Z</time>
</trkpt>
<trkpt lat="31.8011900" lon="35.1234400">
<ele>619.429993</ele>
<time>2025-06-27T13:25:08.570Z</time>
</trkpt>
<trkpt lat="31.8011700" lon="35.1234500">
<ele>619.479980</ele>
<time>2025-06-27T13:25:08.570Z</time>
</trkpt>
<trkpt lat="31.8011600" lon="35.1234600">
<ele>619.520020</ele>
<time>2025-06-27T13:25:08.571Z</time>
</trkpt>
<trkpt lat="31.8011500" lon="35.1234700">
<ele>619.559998</ele>
<time>2025-06-27T13:25:08.571Z</time>
</trkpt>
<trkpt lat="31.8011300" lon="35.1234800">
<ele>619.570007</ele>
<time>2025-06-27T13:25:08.571Z</time>
</trkpt>
<trkpt lat="31.8011200" lon="35.1234900">
<ele>619.590027</ele>
<time>2025-06-27T13:25:08.571Z</time>
</trkpt>
<trkpt lat="31.8011000" lon="35.1234900">
<ele>619.529968</ele>
<time>2025-06-27T13:25:08.571Z</time>
</trkpt>
<trkpt lat="31.8010800" lon="35.1235000">
<ele>619.529968</ele>
<time>2025-06-27T13:25:08.571Z</time>
</trkpt>
<trkpt lat="31.8010600" lon="35.1234900">
<ele>619.429993</ele>
<time>2025-06-27T13:25:08.571Z</time>
</trkpt>
<trkpt lat="31.8010500" lon="35.1234800">
<ele>619.330017</ele>
<time>2025-06-27T13:25:08.572Z</time>
</trkpt>
<trkpt lat="31.8010400" lon="35.1234800">
<ele>619.299988</ele>
<time>2025-06-27T13:25:08.572Z</time>
</trkpt>
<trkpt lat="31.8010000" lon="35.1234700">
<ele>619.080017</ele>
<time>2025-06-27T13:25:08.572Z</time>
</trkpt>
<trkpt lat="31.8009700" lon="35.1234700">
<ele>618.969971</ele>
<time>2025-06-27T13:25:08.572Z</time>
</trkpt>
<trkpt lat="31.8009300" lon="35.1234700">
<ele>618.820007</ele>
<time>2025-06-27T13:25:08.572Z</time>
</trkpt>
<trkpt lat="31.8008900" lon="35.1234800">
<ele>618.820007</ele>
<time>2025-06-27T13:25:08.572Z</time>
</trkpt>
<trkpt lat="31.8008600" lon="35.1235000">
<ele>619.059998</ele>
<time>2025-06-27T13:25:08.572Z</time>
</trkpt>
<trkpt lat="31.8008300" lon="35.1235200">
<ele>619.330017</ele>
<time>2025-06-27T13:25:08.573Z</time>
</trkpt>
<trkpt lat="31.8008100" lon="35.1235300">
<ele>619.309998</ele>
<time>2025-06-27T13:25:08.573Z</time>
</trkpt>
<trkpt lat="31.8008000" lon="35.1235500">
<ele>619.570007</ele>
<time>2025-06-27T13:25:08.573Z</time>
</trkpt>
<trkpt lat="31.8007800" lon="35.1235800">
<ele>619.890015</ele>
<time>2025-06-27T13:25:08.573Z</time>
</trkpt>
<trkpt lat="31.8007600" lon="35.1236100">
<ele>620.190002</ele>
<time>2025-06-27T13:25:08.573Z</time>
</trkpt>
<trkpt lat="31.8007500" lon="35.1236500">
<ele>620.039978</ele>
<time>2025-06-27T13:25:08.573Z</time>
</trkpt>
<trkpt lat="31.8007400" lon="35.1236900">
<ele>619.899963</ele>
<time>2025-06-27T13:25:08.573Z</time>
</trkpt>
<trkpt lat="31.8007400" lon="35.1237400">
<ele>619.840027</ele>
<time>2025-06-27T13:25:08.573Z</time>
</trkpt>
<trkpt lat="31.8007400" lon="35.1237800">
<ele>619.789978</ele>
<time>2025-06-27T13:25:08.574Z</time>
</trkpt>
<trkpt lat="31.8007500" lon="35.1238200">
<ele>619.799988</ele>
<time>2025-06-27T13:25:08.574Z</time>
</trkpt>
<trkpt lat="31.8007400" lon="35.1238900">
<ele>619.669983</ele>
<time>2025-06-27T13:25:08.574Z</time>
</trkpt>
<trkpt lat="31.8007300" lon="35.1239500">
<ele>619.769958</ele>
<time>2025-06-27T13:25:08.574Z</time>
</trkpt>
<trkpt lat="31.8007100" lon="35.1240100">
<ele>619.799988</ele>
<time>2025-06-27T13:25:08.574Z</time>
</trkpt>
<trkpt lat="31.8006800" lon="35.1240700">
<ele>619.739990</ele>
<time>2025-06-27T13:25:08.574Z</time>
</trkpt>
<trkpt lat="31.8006500" lon="35.1241300">
<ele>619.639954</ele>
<time>2025-06-27T13:25:08.574Z</time>
</trkpt>
<trkpt lat="31.8006200" lon="35.1241800">
<ele>619.450012</ele>
<time>2025-06-27T13:25:08.575Z</time>
</trkpt>
<trkpt lat="31.8005800" lon="35.1242300">
<ele>619.160034</ele>
<time>2025-06-27T13:25:08.575Z</time>
</trkpt>
<trkpt lat="31.8005700" lon="35.1242400">
<ele>619.089966</ele>
<time>2025-06-27T13:25:08.575Z</time>
</trkpt>
<trkpt lat="31.8005100" lon="35.1243300">
<ele>619.330017</ele>
<time>2025-06-27T13:25:08.575Z</time>
</trkpt>
<trkpt lat="31.8003900" lon="35.1244700">
<ele>620.280029</ele>
<time>2025-06-27T13:25:08.575Z</time>
</trkpt>
<trkpt lat="31.8003900" lon="35.1244700">
<ele>620.280029</ele>
<time>2025-06-27T13:25:08.575Z</time>
</trkpt>
<trkpt lat="31.8003900" lon="35.1244700">
<ele>620.280029</ele>
<time>2025-06-27T13:25:08.575Z</time>
</trkpt>
<trkpt lat="31.8000700" lon="35.1248600">
<ele>621.380005</ele>
<time>2025-06-27T13:25:08.576Z</time>
</trkpt>
<trkpt lat="31.8000400" lon="35.1248800">
<ele>621.229980</ele>
<time>2025-06-27T13:25:08.576Z</time>
</trkpt>
<trkpt lat="31.7999600" lon="35.1249700">
<ele>621.020020</ele>
<time>2025-06-27T13:25:08.576Z</time>
</trkpt>
<trkpt lat="31.7999600" lon="35.1249700">
<ele>621.020020</ele>
<time>2025-06-27T13:25:08.576Z</time>
</trkpt>
<trkpt lat="31.7999700" lon="35.1249700">
<ele>621.010010</ele>
<time>2025-06-27T13:25:08.576Z</time>
</trkpt>
<trkpt lat="31.7999300" lon="35.1250100">
<ele>620.950012</ele>
<time>2025-06-27T13:25:08.576Z</time>
</trkpt>
<trkpt lat="31.7998900" lon="35.1250500">
<ele>620.750000</ele>
<time>2025-06-27T13:25:08.576Z</time>
</trkpt>
<trkpt lat="31.7998600" lon="35.1250800">
<ele>620.570007</ele>
<time>2025-06-27T13:25:08.576Z</time>
</trkpt>
<trkpt lat="31.7998300" lon="35.1251100">
<ele>620.359985</ele>
<time>2025-06-27T13:25:08.576Z</time>
</trkpt>
<trkpt lat="31.7997900" lon="35.1251400">
<ele>620.109985</ele>
<time>2025-06-27T13:25:08.576Z</time>
</trkpt>
<trkpt lat="31.7997600" lon="35.1251600">
<ele>619.929993</ele>
<time>2025-06-27T13:25:08.576Z</time>
</trkpt>
<trkpt lat="31.7997200" lon="35.1251800">
<ele>619.700012</ele>
<time>2025-06-27T13:25:08.577Z</time>
</trkpt>
<trkpt lat="31.7997000" lon="35.1251800">
<ele>619.679993</ele>
<time>2025-06-27T13:25:08.577Z</time>
</trkpt>
<trkpt lat="31.7996700" lon="35.1252000">
<ele>619.510010</ele>
<time>2025-06-27T13:25:08.577Z</time>
</trkpt>
<trkpt lat="31.7996400" lon="35.1252200">
<ele>619.349976</ele>
<time>2025-06-27T13:25:08.577Z</time>
</trkpt>
<trkpt lat="31.7996100" lon="35.1252500">
<ele>619.160034</ele>
<time>2025-06-27T13:25:08.577Z</time>
</trkpt>
<trkpt lat="31.7995900" lon="35.1252800">
<ele>618.989990</ele>
<time>2025-06-27T13:25:08.577Z</time>
</trkpt>
<trkpt lat="31.7995800" lon="35.1252900">
<ele>618.950012</ele>
<time>2025-06-27T13:25:08.577Z</time>
</trkpt>
<trkpt lat="31.7995700" lon="35.1253200">
<ele>618.829956</ele>
<time>2025-06-27T13:25:08.578Z</time>
</trkpt>
<trkpt lat="31.7995600" lon="35.1253300">
<ele>618.780029</ele>
<time>2025-06-27T13:25:08.578Z</time>
</trkpt>
<trkpt lat="31.7995400" lon="35.1253700">
<ele>618.559998</ele>
<time>2025-06-27T13:25:08.578Z</time>
</trkpt>
<trkpt lat="31.7995200" lon="35.1253900">
<ele>618.409973</ele>
<time>2025-06-27T13:25:08.578Z</time>
</trkpt>
<trkpt lat="31.7995000" lon="35.1254200">
<ele>618.179993</ele>
<time>2025-06-27T13:25:08.578Z</time>
</trkpt>
<trkpt lat="31.7994800" lon="35.1254400">
<ele>617.979980</ele>
<time>2025-06-27T13:25:08.578Z</time>
</trkpt>
<trkpt lat="31.7994800" lon="35.1254400">
<ele>617.979980</ele>
<time>2025-06-27T13:25:08.578Z</time>
</trkpt>
<trkpt lat="31.7994600" lon="35.1254500">
<ele>617.830017</ele>
<time>2025-06-27T13:25:08.578Z</time>
</trkpt>
<trkpt lat="31.7994400" lon="35.1254700">
<ele>617.559998</ele>
<time>2025-06-27T13:25:08.579Z</time>
</trkpt>
<trkpt lat="31.7994100" lon="35.1254900">
<ele>617.029968</ele>
<time>2025-06-27T13:25:08.579Z</time>
</trkpt>
<trkpt lat="31.7993800" lon="35.1255000">
<ele>616.559998</ele>
<time>2025-06-27T13:25:08.579Z</time>
</trkpt>
<trkpt lat="31.7993600" lon="35.1255200">
<ele>616.119995</ele>
<time>2025-06-27T13:25:08.579Z</time>
</trkpt>
<trkpt lat="31.7989100" lon="35.1256800">
<ele>604.640015</ele>
<time>2025-06-27T13:25:08.579Z</time>
</trkpt>
<trkpt lat="31.7986600" lon="35.1257700">
<ele>602.260010</ele>
<time>2025-06-27T13:25:08.580Z</time>
</trkpt>
<trkpt lat="31.7986000" lon="35.1257900">
<ele>602.049988</ele>
<time>2025-06-27T13:25:08.580Z</time>
</trkpt>
<trkpt lat="31.7986000" lon="35.1257800">
<ele>602.049988</ele>
<time>2025-06-27T13:25:08.580Z</time>
</trkpt>
<trkpt lat="31.7986000" lon="35.1257800">
<ele>602.049988</ele>
<time>2025-06-27T13:25:08.580Z</time>
</trkpt>
<trkpt lat="31.7984900" lon="35.1258100">
<ele>602.470032</ele>
<time>2025-06-27T13:25:08.580Z</time>
</trkpt>
<trkpt lat="31.7983300" lon="35.1258200">
<ele>603.049988</ele>
<time>2025-06-27T13:25:08.580Z</time>
</trkpt>
<trkpt lat="31.7981900" lon="35.1258200">
<ele>603.099976</ele>
<time>2025-06-27T13:25:08.580Z</time>
</trkpt>
<trkpt lat="31.7980700" lon="35.1258100">
<ele>603.239990</ele>
<time>2025-06-27T13:25:08.581Z</time>
</trkpt>
<trkpt lat="31.7979800" lon="35.1257900">
<ele>605.020020</ele>
<time>2025-06-27T13:25:08.581Z</time>
</trkpt>
<trkpt lat="31.7978100" lon="35.1257300">
<ele>608.760010</ele>
<time>2025-06-27T13:25:08.581Z</time>
</trkpt>
<trkpt lat="31.7974900" lon="35.1255400">
<ele>614.109985</ele>
<time>2025-06-27T13:25:08.581Z</time>
</trkpt>
<trkpt lat="31.7972300" lon="35.1253700">
<ele>614.039978</ele>
<time>2025-06-27T13:25:08.581Z</time>
</trkpt>
<trkpt lat="31.7970100" lon="35.1251800">
<ele>615.470032</ele>
<time>2025-06-27T13:25:08.581Z</time>
</trkpt>
<trkpt lat="31.7969100" lon="35.1250900">
<ele>616.559998</ele>
<time>2025-06-27T13:25:08.581Z</time>
</trkpt>
<trkpt lat="31.7968400" lon="35.1250000">
<ele>617.380005</ele>
<time>2025-06-27T13:25:08.582Z</time>
</trkpt>
<trkpt lat="31.7967500" lon="35.1249000">
<ele>617.739990</ele>
<time>2025-06-27T13:25:08.582Z</time>
</trkpt>
<trkpt lat="31.7966800" lon="35.1247700">
<ele>616.570007</ele>
<time>2025-06-27T13:25:08.582Z</time>
</trkpt>
<trkpt lat="31.7966300" lon="35.1246300">
<ele>615.919983</ele>
<time>2025-06-27T13:25:08.582Z</time>
</trkpt>
<trkpt lat="31.7963500" lon="35.1238700">
<ele>615.690002</ele>
<time>2025-06-27T13:25:08.582Z</time>
</trkpt>
<trkpt lat="31.7963200" lon="35.1237400">
<ele>615.109985</ele>
<time>2025-06-27T13:25:08.582Z</time>
</trkpt>
<trkpt lat="31.7962900" lon="35.1235900">
<ele>614.070007</ele>
<time>2025-06-27T13:25:08.582Z</time>
</trkpt>
<trkpt lat="31.7962900" lon="35.1234000">
<ele>612.700012</ele>
<time>2025-06-27T13:25:08.583Z</time>
</trkpt>
<trkpt lat="31.7962800" lon="35.1230300">
<ele>609.859985</ele>
<time>2025-06-27T13:25:08.583Z</time>
</trkpt>
<trkpt lat="31.7963000" lon="35.1229900">
<ele>609.929993</ele>
<time>2025-06-27T13:25:08.583Z</time>
</trkpt>
<trkpt lat="31.7963100" lon="35.1229500">
<ele>609.820007</ele>
<time>2025-06-27T13:25:08.583Z</time>
</trkpt>
<trkpt lat="31.7963100" lon="35.1228800">
<ele>609.320007</ele>
<time>2025-06-27T13:25:08.583Z</time>
</trkpt>
<trkpt lat="31.7962800" lon="35.1228300">
<ele>608.420044</ele>
<time>2025-06-27T13:25:08.583Z</time>
</trkpt>
<trkpt lat="31.7962500" lon="35.1228100">
<ele>607.730042</ele>
<time>2025-06-27T13:25:08.584Z</time>
</trkpt>
<trkpt lat="31.7962200" lon="35.1225500">
<ele>605.820007</ele>
<time>2025-06-27T13:25:08.584Z</time>
</trkpt>
<trkpt lat="31.7962000" lon="35.1221600">
<ele>603.400024</ele>
<time>2025-06-27T13:25:08.584Z</time>
</trkpt>
<trkpt lat="31.7961800" lon="35.1218900">
<ele>602.970032</ele>
<time>2025-06-27T13:25:08.584Z</time>
</trkpt>
<trkpt lat="31.7961600" lon="35.1216400">
<ele>599.489990</ele>
<time>2025-06-27T13:25:08.584Z</time>
</trkpt>
<trkpt lat="31.7961300" lon="35.1212900">
<ele>597.640015</ele>
<time>2025-06-27T13:25:08.584Z</time>
</trkpt>
<trkpt lat="31.7960900" lon="35.1210400">
<ele>594.260010</ele>
<time>2025-06-27T13:25:08.584Z</time>
</trkpt>
<trkpt lat="31.7960200" lon="35.1206900">
<ele>591.330017</ele>
<time>2025-06-27T13:25:08.585Z</time>
</trkpt>
<trkpt lat="31.7959800" lon="35.1205900">
<ele>590.289978</ele>
<time>2025-06-27T13:25:08.585Z</time>
</trkpt>
<trkpt lat="31.7959400" lon="35.1205200">
<ele>589.280029</ele>
<time>2025-06-27T13:25:08.585Z</time>
</trkpt>
<trkpt lat="31.7958900" lon="35.1204700">
<ele>588.200012</ele>
<time>2025-06-27T13:25:08.585Z</time>
</trkpt>
<trkpt lat="31.7958600" lon="35.1204400">
<ele>587.549988</ele>
<time>2025-06-27T13:25:08.585Z</time>
</trkpt>
<trkpt lat="31.7958000" lon="35.1204100">
<ele>586.590027</ele>
<time>2025-06-27T13:25:08.585Z</time>
</trkpt>
<trkpt lat="31.7957600" lon="35.1204000">
<ele>586.089966</ele>
<time>2025-06-27T13:25:08.585Z</time>
</trkpt>
<trkpt lat="31.7956900" lon="35.1203900">
<ele>585.260010</ele>
<time>2025-06-27T13:25:08.586Z</time>
</trkpt>
<trkpt lat="31.7952800" lon="35.1204000">
<ele>584.000000</ele>
<time>2025-06-27T13:25:08.586Z</time>
</trkpt>
<trkpt lat="31.7952400" lon="35.1203800">
<ele>584.770020</ele>
<time>2025-06-27T13:25:08.586Z</time>
</trkpt>
<trkpt lat="31.7952000" lon="35.1203600">
<ele>585.600037</ele>
<time>2025-06-27T13:25:08.586Z</time>
</trkpt>
<trkpt lat="31.7951600" lon="35.1202400">
<ele>586.469971</ele>
<time>2025-06-27T13:25:08.586Z</time>
</trkpt>
<trkpt lat="31.7951600" lon="35.1201800">
<ele>586.339966</ele>
<time>2025-06-27T13:25:08.586Z</time>
</trkpt>
<trkpt lat="31.7951600" lon="35.1199800">
<ele>586.079956</ele>
<time>2025-06-27T13:25:08.586Z</time>
</trkpt>
<trkpt lat="31.7951900" lon="35.1193800">
<ele>590.220032</ele>
<time>2025-06-27T13:25:08.587Z</time>
</trkpt>
<trkpt lat="31.7951800" lon="35.1189800">
<ele>593.690002</ele>
<time>2025-06-27T13:25:08.587Z</time>
</trkpt>
<trkpt lat="31.7951600" lon="35.1186200">
<ele>593.720032</ele>
<time>2025-06-27T13:25:08.587Z</time>
</trkpt>
<trkpt lat="31.7950700" lon="35.1184000">
<ele>592.710022</ele>
<time>2025-06-27T13:25:08.587Z</time>
</trkpt>
<trkpt lat="31.7949500" lon="35.1181900">
<ele>593.309998</ele>
<time>2025-06-27T13:25:08.587Z</time>
</trkpt>
<trkpt lat="31.7946700" lon="35.1177900">
<ele>594.130005</ele>
<time>2025-06-27T13:25:08.587Z</time>
</trkpt>
<trkpt lat="31.7943500" lon="35.1174600">
<ele>595.220032</ele>
<time>2025-06-27T13:25:08.587Z</time>
</trkpt>
<trkpt lat="31.7940100" lon="35.1172100">
<ele>596.330017</ele>
<time>2025-06-27T13:25:08.588Z</time>
</trkpt>
<trkpt lat="31.7939600" lon="35.1171700">
<ele>595.640015</ele>
<time>2025-06-27T13:25:08.588Z</time>
</trkpt>
<trkpt lat="31.7935200" lon="35.1169700">
<ele>598.230042</ele>
<time>2025-06-27T13:25:08.588Z</time>
</trkpt>
<trkpt lat="31.7934900" lon="35.1169500">
<ele>597.940002</ele>
<time>2025-06-27T13:25:08.588Z</time>
</trkpt>
<trkpt lat="31.7933600" lon="35.1169200">
<ele>598.669983</ele>
<time>2025-06-27T13:25:08.588Z</time>
</trkpt>
<trkpt lat="31.7932300" lon="35.1168800">
<ele>597.450012</ele>
<time>2025-06-27T13:25:08.588Z</time>
</trkpt>
<trkpt lat="31.7929400" lon="35.1167800">
<ele>591.649963</ele>
<time>2025-06-27T13:25:08.588Z</time>
</trkpt>
<trkpt lat="31.7928400" lon="35.1167300">
<ele>588.229980</ele>
<time>2025-06-27T13:25:08.589Z</time>
</trkpt>
<trkpt lat="31.7923600" lon="35.1166500">
<ele>584.559998</ele>
<time>2025-06-27T13:25:08.589Z</time>
</trkpt>
<trkpt lat="31.7918200" lon="35.1167800">
<ele>585.020020</ele>
<time>2025-06-27T13:25:08.589Z</time>
</trkpt>
<trkpt lat="31.7915300" lon="35.1167000">
<ele>585.279968</ele>
<time>2025-06-27T13:25:08.589Z</time>
</trkpt>
<trkpt lat="31.7914900" lon="35.1164400">
<ele>584.159973</ele>
<time>2025-06-27T13:25:08.589Z</time>
</trkpt>
<trkpt lat="31.7914100" lon="35.1161300">
<ele>581.039978</ele>
<time>2025-06-27T13:25:08.589Z</time>
</trkpt>
<trkpt lat="31.7913700" lon="35.1159000">
<ele>577.320007</ele>
<time>2025-06-27T13:25:08.590Z</time>
</trkpt>
<trkpt lat="31.7912800" lon="35.1155400">
<ele>573.760010</ele>
<time>2025-06-27T13:25:08.590Z</time>
</trkpt>
<trkpt lat="31.7912400" lon="35.1153800">
<ele>573.729980</ele>
<time>2025-06-27T13:25:08.590Z</time>
</trkpt>
<trkpt lat="31.7912200" lon="35.1153300">
<ele>573.719971</ele>
<time>2025-06-27T13:25:08.590Z</time>
</trkpt>
<trkpt lat="31.7910900" lon="35.1150500">
<ele>573.409973</ele>
<time>2025-06-27T13:25:08.590Z</time>
</trkpt>
<trkpt lat="31.7910300" lon="35.1149200">
<ele>573.469971</ele>
<time>2025-06-27T13:25:08.590Z</time>
</trkpt>
<trkpt lat="31.7910000" lon="35.1148300">
<ele>573.469971</ele>
<time>2025-06-27T13:25:08.590Z</time>
</trkpt>
<trkpt lat="31.7907900" lon="35.1138000">
<ele>570.739990</ele>
<time>2025-06-27T13:25:08.591Z</time>
</trkpt>
<trkpt lat="31.7907400" lon="35.1137100">
<ele>571.440002</ele>
<time>2025-06-27T13:25:08.591Z</time>
</trkpt>
<trkpt lat="31.7907200" lon="35.1136800">
<ele>571.669983</ele>
<time>2025-06-27T13:25:08.591Z</time>
</trkpt>
<trkpt lat="31.7906300" lon="35.1135600">
<ele>572.460022</ele>
<time>2025-06-27T13:25:08.591Z</time>
</trkpt>
<trkpt lat="31.7905600" lon="35.1135100">
<ele>572.970032</ele>
<time>2025-06-27T13:25:08.591Z</time>
</trkpt>
<trkpt lat="31.7905300" lon="35.1133300">
<ele>573.080017</ele>
<time>2025-06-27T13:25:08.591Z</time>
</trkpt>
<trkpt lat="31.7905200" lon="35.1132100">
<ele>572.510010</ele>
<time>2025-06-27T13:25:08.591Z</time>
</trkpt>
<trkpt lat="31.7905300" lon="35.1131300">
<ele>572.160034</ele>
<time>2025-06-27T13:25:08.592Z</time>
</trkpt>
<trkpt lat="31.7906100" lon="35.1128100">
<ele>569.150024</ele>
<time>2025-06-27T13:25:08.592Z</time>
</trkpt>
<trkpt lat="31.7907100" lon="35.1125700">
<ele>568.690002</ele>
<time>2025-06-27T13:25:08.592Z</time>
</trkpt>
<trkpt lat="31.7907600" lon="35.1124200">
<ele>568.210022</ele>
<time>2025-06-27T13:25:08.592Z</time>
</trkpt>
<trkpt lat="31.7907700" lon="35.1123900">
<ele>568.090027</ele>
<time>2025-06-27T13:25:08.592Z</time>
</trkpt>
<trkpt lat="31.7907900" lon="35.1122900">
<ele>567.859985</ele>
<time>2025-06-27T13:25:08.592Z</time>
</trkpt>
<trkpt lat="31.7908100" lon="35.1121900">
<ele>567.500000</ele>
<time>2025-06-27T13:25:08.592Z</time>
</trkpt>
<trkpt lat="31.7908200" lon="35.1120700">
<ele>567.289978</ele>
<time>2025-06-27T13:25:08.593Z</time>
</trkpt>
<trkpt lat="31.7908500" lon="35.1119000">
<ele>566.700012</ele>
<time>2025-06-27T13:25:08.593Z</time>
</trkpt>
<trkpt lat="31.7908900" lon="35.1118100">
<ele>565.979980</ele>
<time>2025-06-27T13:25:08.593Z</time>
</trkpt>
<trkpt lat="31.7909400" lon="35.1116900">
<ele>565.080017</ele>
<time>2025-06-27T13:25:08.593Z</time>
</trkpt>
<trkpt lat="31.7911200" lon="35.1112600">
<ele>563.830017</ele>
<time>2025-06-27T13:25:08.593Z</time>
</trkpt>
<trkpt lat="31.7912800" lon="35.1109100">
<ele>562.849976</ele>
<time>2025-06-27T13:25:08.593Z</time>
</trkpt>
<trkpt lat="31.7915300" lon="35.1104700">
<ele>564.010010</ele>
<time>2025-06-27T13:25:08.593Z</time>
</trkpt>
<trkpt lat="31.7917000" lon="35.1102400">
<ele>565.200012</ele>
<time>2025-06-27T13:25:08.594Z</time>
</trkpt>
<trkpt lat="31.7918200" lon="35.1101200">
<ele>565.330017</ele>
<time>2025-06-27T13:25:08.594Z</time>
</trkpt>
<trkpt lat="31.7921600" lon="35.1098500">
<ele>562.029968</ele>
<time>2025-06-27T13:25:08.594Z</time>
</trkpt>
<trkpt lat="31.7925000" lon="35.1095100">
<ele>560.289978</ele>
<time>2025-06-27T13:25:08.594Z</time>
</trkpt>
<trkpt lat="31.7927600" lon="35.1092100">
<ele>561.609985</ele>
<time>2025-06-27T13:25:08.594Z</time>
</trkpt>
<trkpt lat="31.7929900" lon="35.1088700">
<ele>558.489990</ele>
<time>2025-06-27T13:25:08.594Z</time>
</trkpt>
<trkpt lat="31.7931800" lon="35.1086600">
<ele>557.630005</ele>
<time>2025-06-27T13:25:08.594Z</time>
</trkpt>
<trkpt lat="31.7932500" lon="35.1085300">
<ele>557.679993</ele>
<time>2025-06-27T13:25:08.595Z</time>
</trkpt>
<trkpt lat="31.7932700" lon="35.1084200">
<ele>558.070007</ele>
<time>2025-06-27T13:25:08.595Z</time>
</trkpt>
<trkpt lat="31.7932800" lon="35.1083500">
<ele>558.309998</ele>
<time>2025-06-27T13:25:08.595Z</time>
</trkpt>
<trkpt lat="31.7932700" lon="35.1081800">
<ele>558.760010</ele>
<time>2025-06-27T13:25:08.595Z</time>
</trkpt>
<trkpt lat="31.7931000" lon="35.1077400">
<ele>558.859985</ele>
<time>2025-06-27T13:25:08.595Z</time>
</trkpt>
<trkpt lat="31.7930300" lon="35.1076600">
<ele>558.769958</ele>
<time>2025-06-27T13:25:08.595Z</time>
</trkpt>
<trkpt lat="31.7929500" lon="35.1075500">
<ele>558.700012</ele>
<time>2025-06-27T13:25:08.596Z</time>
</trkpt>
<trkpt lat="31.7928500" lon="35.1073600">
<ele>556.989990</ele>
<time>2025-06-27T13:25:08.596Z</time>
</trkpt>
<trkpt lat="31.7927000" lon="35.1069100">
<ele>552.330017</ele>
<time>2025-06-27T13:25:08.596Z</time>
</trkpt>
<trkpt lat="31.7926400" lon="35.1067000">
<ele>550.799988</ele>
<time>2025-06-27T13:25:08.596Z</time>
</trkpt>
<trkpt lat="31.7925200" lon="35.1063200">
<ele>548.750000</ele>
<time>2025-06-27T13:25:08.596Z</time>
</trkpt>
<trkpt lat="31.7924900" lon="35.1060800">
<ele>548.000000</ele>
<time>2025-06-27T13:25:08.596Z</time>
</trkpt>
<trkpt lat="31.7924400" lon="35.1051700">
<ele>548.520020</ele>
<time>2025-06-27T13:25:08.596Z</time>
</trkpt>
<trkpt lat="31.7924500" lon="35.1048600">
<ele>548.130005</ele>
<time>2025-06-27T13:25:08.597Z</time>
</trkpt>
<trkpt lat="31.7924800" lon="35.1041700">
<ele>548.279968</ele>
<time>2025-06-27T13:25:08.597Z</time>
</trkpt>
<trkpt lat="31.7924900" lon="35.1040100">
<ele>548.140015</ele>
<time>2025-06-27T13:25:08.597Z</time>
</trkpt>
<trkpt lat="31.7924900" lon="35.1038100">
<ele>547.590027</ele>
<time>2025-06-27T13:25:08.597Z</time>
</trkpt>
<trkpt lat="31.7924900" lon="35.1035700">
<ele>545.890015</ele>
<time>2025-06-27T13:25:08.597Z</time>
</trkpt>
<trkpt lat="31.7924800" lon="35.1034700">
<ele>545.380005</ele>
<time>2025-06-27T13:25:08.597Z</time>
</trkpt>
<trkpt lat="31.7924600" lon="35.1031000">
<ele>544.500000</ele>
<time>2025-06-27T13:25:08.598Z</time>
</trkpt>
<trkpt lat="31.7924400" lon="35.1030000">
<ele>544.760010</ele>
<time>2025-06-27T13:25:08.598Z</time>
</trkpt>
<trkpt lat="31.7922400" lon="35.1024000">
<ele>547.049988</ele>
<time>2025-06-27T13:25:08.598Z</time>
</trkpt>
<trkpt lat="31.7921800" lon="35.1022900">
<ele>547.359985</ele>
<time>2025-06-27T13:25:08.598Z</time>
</trkpt>
<trkpt lat="31.7920400" lon="35.1020700">
<ele>548.159973</ele>
<time>2025-06-27T13:25:08.598Z</time>
</trkpt>
<trkpt lat="31.7919700" lon="35.1019800">
<ele>548.090027</ele>
<time>2025-06-27T13:25:08.598Z</time>
</trkpt>
<trkpt lat="31.7913400" lon="35.1012500">
<ele>550.440002</ele>
<time>2025-06-27T13:25:08.599Z</time>
</trkpt>
<trkpt lat="31.7909900" lon="35.1009400">
<ele>552.500000</ele>
<time>2025-06-27T13:25:08.599Z</time>
</trkpt>
<trkpt lat="31.7908700" lon="35.1008200">
<ele>551.719971</ele>
<time>2025-06-27T13:25:08.599Z</time>
</trkpt>
<trkpt lat="31.7907700" lon="35.1007100">
<ele>549.160034</ele>
<time>2025-06-27T13:25:08.599Z</time>
</trkpt>
<trkpt lat="31.7906600" lon="35.1005500">
<ele>547.219971</ele>
<time>2025-06-27T13:25:08.599Z</time>
</trkpt>
<trkpt lat="31.7904900" lon="35.1003900">
<ele>547.039978</ele>
<time>2025-06-27T13:25:08.599Z</time>
</trkpt>
<trkpt lat="31.7904000" lon="35.1002900">
<ele>546.649963</ele>
<time>2025-06-27T13:25:08.600Z</time>
</trkpt>
<trkpt lat="31.7903200" lon="35.1001800">
<ele>545.549988</ele>
<time>2025-06-27T13:25:08.600Z</time>
</trkpt>
<trkpt lat="31.7901000" lon="35.0996800">
<ele>542.090027</ele>
<time>2025-06-27T13:25:08.600Z</time>
</trkpt>
<trkpt lat="31.7900800" lon="35.0995500">
<ele>541.539978</ele>
<time>2025-06-27T13:25:08.600Z</time>
</trkpt>
<trkpt lat="31.7900800" lon="35.0991400">
<ele>538.409973</ele>
<time>2025-06-27T13:25:08.600Z</time>
</trkpt>
<trkpt lat="31.7900800" lon="35.0988500">
<ele>536.640015</ele>
<time>2025-06-27T13:25:08.600Z</time>
</trkpt>
<trkpt lat="31.7902600" lon="35.0976000">
<ele>535.169983</ele>
<time>2025-06-27T13:25:08.600Z</time>
</trkpt>
<trkpt lat="31.7903700" lon="35.0970900">
<ele>533.820007</ele>
<time>2025-06-27T13:25:08.601Z</time>
</trkpt>
<trkpt lat="31.7903800" lon="35.0969700">
<ele>534.070007</ele>
<time>2025-06-27T13:25:08.601Z</time>
</trkpt>
<trkpt lat="31.7903900" lon="35.0968300">
<ele>534.210022</ele>
<time>2025-06-27T13:25:08.601Z</time>
</trkpt>
<trkpt lat="31.7904100" lon="35.0966200">
<ele>533.919983</ele>
<time>2025-06-27T13:25:08.601Z</time>
</trkpt>
<trkpt lat="31.7906900" lon="35.0958700">
<ele>525.979980</ele>
<time>2025-06-27T13:25:08.601Z</time>
</trkpt>
<trkpt lat="31.7907700" lon="35.0957300">
<ele>525.540039</ele>
<time>2025-06-27T13:25:08.601Z</time>
</trkpt>
<trkpt lat="31.7909100" lon="35.0956300">
<ele>525.580017</ele>
<time>2025-06-27T13:25:08.601Z</time>
</trkpt>
<trkpt lat="31.7911400" lon="35.0953900">
<ele>524.070007</ele>
<time>2025-06-27T13:25:08.602Z</time>
</trkpt>
<trkpt lat="31.7913100" lon="35.0952700">
<ele>521.010010</ele>
<time>2025-06-27T13:25:08.602Z</time>
</trkpt>
<trkpt lat="31.7914500" lon="35.0952200">
<ele>521.359985</ele>
<time>2025-06-27T13:25:08.602Z</time>
</trkpt>
<trkpt lat="31.7919600" lon="35.0951600">
<ele>523.429993</ele>
<time>2025-06-27T13:25:08.602Z</time>
</trkpt>
<trkpt lat="31.7920500" lon="35.0951700">
<ele>525.020020</ele>
<time>2025-06-27T13:25:08.602Z</time>
</trkpt>
<trkpt lat="31.7922200" lon="35.0952200">
<ele>527.030029</ele>
<time>2025-06-27T13:25:08.603Z</time>
</trkpt>
<trkpt lat="31.7936000" lon="35.0954900">
<ele>519.410034</ele>
<time>2025-06-27T13:25:08.603Z</time>
</trkpt>
<trkpt lat="31.7940300" lon="35.0955200">
<ele>516.809998</ele>
<time>2025-06-27T13:25:08.603Z</time>
</trkpt>
<trkpt lat="31.7942600" lon="35.0955100">
<ele>515.929993</ele>
<time>2025-06-27T13:25:08.603Z</time>
</trkpt>
<trkpt lat="31.7944100" lon="35.0954900">
<ele>514.530029</ele>
<time>2025-06-27T13:25:08.603Z</time>
</trkpt>
<trkpt lat="31.7944600" lon="35.0954800">
<ele>514.929993</ele>
<time>2025-06-27T13:25:08.603Z</time>
</trkpt>
<trkpt lat="31.7945400" lon="35.0954400">
<ele>517.890015</ele>
<time>2025-06-27T13:25:08.603Z</time>
</trkpt>
<trkpt lat="31.7947800" lon="35.0950800">
<ele>517.140015</ele>
<time>2025-06-27T13:25:08.604Z</time>
</trkpt>
<trkpt lat="31.7948800" lon="35.0949600">
<ele>515.829956</ele>
<time>2025-06-27T13:25:08.604Z</time>
</trkpt>
<trkpt lat="31.7952700" lon="35.0946100">
<ele>513.529968</ele>
<time>2025-06-27T13:25:08.604Z</time>
</trkpt>
<trkpt lat="31.7953200" lon="35.0945600">
<ele>514.440002</ele>
<time>2025-06-27T13:25:08.604Z</time>
</trkpt>
<trkpt lat="31.7953800" lon="35.0944400">
<ele>515.460022</ele>
<time>2025-06-27T13:25:08.604Z</time>
</trkpt>
<trkpt lat="31.7954700" lon="35.0941700">
<ele>515.019958</ele>
<time>2025-06-27T13:25:08.604Z</time>
</trkpt>
<trkpt lat="31.7954900" lon="35.0940000">
<ele>516.479980</ele>
<time>2025-06-27T13:25:08.604Z</time>
</trkpt>
<trkpt lat="31.7955000" lon="35.0939600">
<ele>516.789978</ele>
<time>2025-06-27T13:25:08.605Z</time>
</trkpt>
<trkpt lat="31.7955100" lon="35.0933200">
<ele>521.340027</ele>
<time>2025-06-27T13:25:08.605Z</time>
</trkpt>
<trkpt lat="31.7955000" lon="35.0930300">
<ele>522.380005</ele>
<time>2025-06-27T13:25:08.605Z</time>
</trkpt>
<trkpt lat="31.7954900" lon="35.0929000">
<ele>523.440002</ele>
<time>2025-06-27T13:25:08.605Z</time>
</trkpt>
<trkpt lat="31.7954500" lon="35.0927500">
<ele>524.279968</ele>
<time>2025-06-27T13:25:08.605Z</time>
</trkpt>
<trkpt lat="31.7953200" lon="35.0924800">
<ele>523.789978</ele>
<time>2025-06-27T13:25:08.605Z</time>
</trkpt>
<trkpt lat="31.7952700" lon="35.0922100">
<ele>523.080017</ele>
<time>2025-06-27T13:25:08.605Z</time>
</trkpt>
<trkpt lat="31.7951700" lon="35.0919300">
<ele>523.780029</ele>
<time>2025-06-27T13:25:08.606Z</time>
</trkpt>
<trkpt lat="31.7951500" lon="35.0918900">
<ele>523.859985</ele>
<time>2025-06-27T13:25:08.606Z</time>
</trkpt>
<trkpt lat="31.7951000" lon="35.0915700">
<ele>523.330017</ele>
<time>2025-06-27T13:25:08.606Z</time>
</trkpt>
<trkpt lat="31.7949300" lon="35.0911500">
<ele>522.429993</ele>
<time>2025-06-27T13:25:08.606Z</time>
</trkpt>
<trkpt lat="31.7949000" lon="35.0910700">
<ele>522.280029</ele>
<time>2025-06-27T13:25:08.606Z</time>
</trkpt>
<trkpt lat="31.7947700" lon="35.0905000">
<ele>522.320007</ele>
<time>2025-06-27T13:25:08.606Z</time>
</trkpt>
<trkpt lat="31.7946900" lon="35.0900300">
<ele>519.099976</ele>
<time>2025-06-27T13:25:08.606Z</time>
</trkpt>
<trkpt lat="31.7946500" lon="35.0893900">
<ele>519.049988</ele>
<time>2025-06-27T13:25:08.607Z</time>
</trkpt>
<trkpt lat="31.7946600" lon="35.0891300">
<ele>519.190002</ele>
<time>2025-06-27T13:25:08.607Z</time>
</trkpt>
<trkpt lat="31.7946500" lon="35.0890200">
<ele>519.119995</ele>
<time>2025-06-27T13:25:08.607Z</time>
</trkpt>
<trkpt lat="31.7946700" lon="35.0873600">
<ele>513.900024</ele>
<time>2025-06-27T13:25:08.607Z</time>
</trkpt>
<trkpt lat="31.7947100" lon="35.0869800">
<ele>513.799988</ele>
<time>2025-06-27T13:25:08.607Z</time>
</trkpt>
<trkpt lat="31.7948000" lon="35.0863300">
<ele>513.669983</ele>
<time>2025-06-27T13:25:08.607Z</time>
</trkpt>
<trkpt lat="31.7948400" lon="35.0861900">
<ele>512.770020</ele>
<time>2025-06-27T13:25:08.607Z</time>
</trkpt>
<trkpt lat="31.7948600" lon="35.0860800">
<ele>512.369995</ele>
<time>2025-06-27T13:25:08.608Z</time>
</trkpt>
<trkpt lat="31.7949100" lon="35.0858900">
<ele>512.299988</ele>
<time>2025-06-27T13:25:08.608Z</time>
</trkpt>
<trkpt lat="31.7950900" lon="35.0853900">
<ele>508.930023</ele>
<time>2025-06-27T13:25:08.608Z</time>
</trkpt>
<trkpt lat="31.7951300" lon="35.0852500">
<ele>507.940002</ele>
<time>2025-06-27T13:25:08.608Z</time>
</trkpt>
<trkpt lat="31.7952000" lon="35.0851000">
<ele>508.100006</ele>
<time>2025-06-27T13:25:08.608Z</time>
</trkpt>
<trkpt lat="31.7952700" lon="35.0849700">
<ele>508.700012</ele>
<time>2025-06-27T13:25:08.608Z</time>
</trkpt>
<trkpt lat="31.7954200" lon="35.0847500">
<ele>510.730011</ele>
<time>2025-06-27T13:25:08.608Z</time>
</trkpt>
<trkpt lat="31.7958000" lon="35.0843500">
<ele>517.900024</ele>
<time>2025-06-27T13:25:08.609Z</time>
</trkpt>
<trkpt lat="31.7958900" lon="35.0842200">
<ele>518.919983</ele>
<time>2025-06-27T13:25:08.609Z</time>
</trkpt>
<trkpt lat="31.7959700" lon="35.0840600">
<ele>519.659973</ele>
<time>2025-06-27T13:25:08.609Z</time>
</trkpt>
<trkpt lat="31.7960000" lon="35.0839500">
<ele>520.270020</ele>
<time>2025-06-27T13:25:08.609Z</time>
</trkpt>
<trkpt lat="31.7960700" lon="35.0832700">
<ele>517.820007</ele>
<time>2025-06-27T13:25:08.609Z</time>
</trkpt>
<trkpt lat="31.7960800" lon="35.0829600">
<ele>518.390015</ele>
<time>2025-06-27T13:25:08.609Z</time>
</trkpt>
<trkpt lat="31.7960900" lon="35.0827300">
<ele>520.400024</ele>
<time>2025-06-27T13:25:08.610Z</time>
</trkpt>
<trkpt lat="31.7961000" lon="35.0824200">
<ele>525.020020</ele>
<time>2025-06-27T13:25:08.610Z</time>
</trkpt>
<trkpt lat="31.7961100" lon="35.0821400">
<ele>528.570007</ele>
<time>2025-06-27T13:25:08.610Z</time>
</trkpt>
<trkpt lat="31.7963300" lon="35.0811800">
<ele>526.659973</ele>
<time>2025-06-27T13:25:08.610Z</time>
</trkpt>
<trkpt lat="31.7963900" lon="35.0810400">
<ele>528.029968</ele>
<time>2025-06-27T13:25:08.610Z</time>
</trkpt>
<trkpt lat="31.7965500" lon="35.0807500">
<ele>532.380005</ele>
<time>2025-06-27T13:25:08.610Z</time>
</trkpt>
<trkpt lat="31.7965700" lon="35.0806300">
<ele>534.109985</ele>
<time>2025-06-27T13:25:08.610Z</time>
</trkpt>
<trkpt lat="31.7965800" lon="35.0805000">
<ele>535.989990</ele>
<time>2025-06-27T13:25:08.611Z</time>
</trkpt>
<trkpt lat="31.7965700" lon="35.0802100">
<ele>540.480042</ele>
<time>2025-06-27T13:25:08.611Z</time>
</trkpt>
<trkpt lat="31.7965800" lon="35.0796800">
<ele>550.479980</ele>
<time>2025-06-27T13:25:08.611Z</time>
</trkpt>
<trkpt lat="31.7965600" lon="35.0795000">
<ele>552.700012</ele>
<time>2025-06-27T13:25:08.611Z</time>
</trkpt>
<trkpt lat="31.7965500" lon="35.0794600">
<ele>552.989990</ele>
<time>2025-06-27T13:25:08.611Z</time>
</trkpt>
<trkpt lat="31.7964500" lon="35.0787800">
<ele>554.789978</ele>
<time>2025-06-27T13:25:08.611Z</time>
</trkpt>
<trkpt lat="31.7963600" lon="35.0786400">
<ele>554.760010</ele>
<time>2025-06-27T13:25:08.611Z</time>
</trkpt>
<trkpt lat="31.7962700" lon="35.0785600">
<ele>556.049988</ele>
<time>2025-06-27T13:25:08.612Z</time>
</trkpt>
<trkpt lat="31.7958600" lon="35.0782400">
<ele>562.250000</ele>
<time>2025-06-27T13:25:08.612Z</time>
</trkpt>
<trkpt lat="31.7957900" lon="35.0782100">
<ele>562.619995</ele>
<time>2025-06-27T13:25:08.612Z</time>
</trkpt>
<trkpt lat="31.7957100" lon="35.0782000">
<ele>562.480042</ele>
<time>2025-06-27T13:25:08.612Z</time>
</trkpt>
<trkpt lat="31.7959000" lon="35.0782000">
<ele>562.789978</ele>
<time>2025-06-27T13:25:08.612Z</time>
</trkpt>
<trkpt lat="31.7965100" lon="35.0782900">
<ele>565.019958</ele>
<time>2025-06-27T13:25:08.612Z</time>
</trkpt>
<trkpt lat="31.7968100" lon="35.0783100">
<ele>569.369995</ele>
<time>2025-06-27T13:25:08.612Z</time>
</trkpt>
<trkpt lat="31.7968800" lon="35.0783400">
<ele>569.760010</ele>
<time>2025-06-27T13:25:08.613Z</time>
</trkpt>
<trkpt lat="31.7969100" lon="35.0784500">
<ele>569.070007</ele>
<time>2025-06-27T13:25:08.613Z</time>
</trkpt>
<trkpt lat="31.7969600" lon="35.0789200">
<ele>564.320007</ele>
<time>2025-06-27T13:25:08.613Z</time>
</trkpt>
<trkpt lat="31.7970400" lon="35.0791900">
<ele>564.500000</ele>
<time>2025-06-27T13:25:08.613Z</time>
</trkpt>
<trkpt lat="31.7971100" lon="35.0794100">
<ele>563.869995</ele>
<time>2025-06-27T13:25:08.613Z</time>
</trkpt>
<trkpt lat="31.7973600" lon="35.0799100">
<ele>566.799988</ele>
<time>2025-06-27T13:25:08.613Z</time>
</trkpt>
<trkpt lat="31.7976000" lon="35.0803300">
<ele>571.559998</ele>
<time>2025-06-27T13:25:08.613Z</time>
</trkpt>
<trkpt lat="31.7976200" lon="35.0803800">
<ele>571.739990</ele>
<time>2025-06-27T13:25:08.614Z</time>
</trkpt>
<trkpt lat="31.7976200" lon="35.0803400">
<ele>571.909973</ele>
<time>2025-06-27T13:25:08.614Z</time>
</trkpt>
<trkpt lat="31.7976200" lon="35.0802800">
<ele>572.150024</ele>
<time>2025-06-27T13:25:08.614Z</time>
</trkpt>
<trkpt lat="31.7976000" lon="35.0801400">
<ele>572.510010</ele>
<time>2025-06-27T13:25:08.614Z</time>
</trkpt>
<trkpt lat="31.7975500" lon="35.0799400">
<ele>571.950012</ele>
<time>2025-06-27T13:25:08.614Z</time>
</trkpt>
<trkpt lat="31.7975000" lon="35.0797800">
<ele>570.790039</ele>
<time>2025-06-27T13:25:08.614Z</time>
</trkpt>
<trkpt lat="31.7974800" lon="35.0796200">
<ele>572.260010</ele>
<time>2025-06-27T13:25:08.615Z</time>
</trkpt>
<trkpt lat="31.7974700" lon="35.0794300">
<ele>574.929993</ele>
<time>2025-06-27T13:25:08.615Z</time>
</trkpt>
<trkpt lat="31.7974700" lon="35.0793100">
<ele>575.020020</ele>
<time>2025-06-27T13:25:08.615Z</time>
</trkpt>
<trkpt lat="31.7974500" lon="35.0793200">
<ele>574.359985</ele>
<time>2025-06-27T13:25:08.615Z</time>
</trkpt>
<trkpt lat="31.7974500" lon="35.0792700">
<ele>574.429993</ele>
<time>2025-06-27T13:25:08.615Z</time>
</trkpt>
<trkpt lat="31.7974500" lon="35.0791300">
<ele>574.979980</ele>
<time>2025-06-27T13:25:08.615Z</time>
</trkpt>
<trkpt lat="31.7974400" lon="35.0790300">
<ele>575.849976</ele>
<time>2025-06-27T13:25:08.615Z</time>
</trkpt>
<trkpt lat="31.7974100" lon="35.0789200">
<ele>576.359985</ele>
<time>2025-06-27T13:25:08.616Z</time>
</trkpt>
<trkpt lat="31.7972900" lon="35.0781200">
<ele>582.070007</ele>
<time>2025-06-27T13:25:08.616Z</time>
</trkpt>
<trkpt lat="31.7972800" lon="35.0780300">
<ele>582.789978</ele>
<time>2025-06-27T13:25:08.616Z</time>
</trkpt>
<trkpt lat="31.7972300" lon="35.0777000">
<ele>586.520020</ele>
<time>2025-06-27T13:25:08.616Z</time>
</trkpt>
<trkpt lat="31.7972100" lon="35.0776400">
<ele>587.660034</ele>
<time>2025-06-27T13:25:08.616Z</time>
</trkpt>
<trkpt lat="31.7971900" lon="35.0775800">
<ele>589.119995</ele>
<time>2025-06-27T13:25:08.616Z</time>
</trkpt>
<trkpt lat="31.7971600" lon="35.0775200">
<ele>590.919983</ele>
<time>2025-06-27T13:25:08.616Z</time>
</trkpt>
<trkpt lat="31.7971300" lon="35.0774600">
<ele>592.859985</ele>
<time>2025-06-27T13:25:08.617Z</time>
</trkpt>
<trkpt lat="31.7971000" lon="35.0774100">
<ele>594.580017</ele>
<time>2025-06-27T13:25:08.617Z</time>
</trkpt>
<trkpt lat="31.7970600" lon="35.0773600">
<ele>596.529968</ele>
<time>2025-06-27T13:25:08.617Z</time>
</trkpt>
<trkpt lat="31.7970100" lon="35.0773100">
<ele>598.690002</ele>
<time>2025-06-27T13:25:08.617Z</time>
</trkpt>
<trkpt lat="31.7969600" lon="35.0772700">
<ele>600.630005</ele>
<time>2025-06-27T13:25:08.617Z</time>
</trkpt>
<trkpt lat="31.7969100" lon="35.0772300">
<ele>601.210022</ele>
<time>2025-06-27T13:25:08.617Z</time>
</trkpt>
<trkpt lat="31.7968500" lon="35.0772000">
<ele>600.700012</ele>
<time>2025-06-27T13:25:08.617Z</time>
</trkpt>
<trkpt lat="31.7964400" lon="35.0770300">
<ele>598.020020</ele>
<time>2025-06-27T13:25:08.618Z</time>
</trkpt>
<trkpt lat="31.7964000" lon="35.0770100">
<ele>597.609985</ele>
<time>2025-06-27T13:25:08.618Z</time>
</trkpt>
<trkpt lat="31.7963600" lon="35.0769800">
<ele>597.690002</ele>
<time>2025-06-27T13:25:08.618Z</time>
</trkpt>
<trkpt lat="31.7963300" lon="35.0769600">
<ele>597.760010</ele>
<time>2025-06-27T13:25:08.618Z</time>
</trkpt>
<trkpt lat="31.7963000" lon="35.0769200">
<ele>597.960022</ele>
<time>2025-06-27T13:25:08.618Z</time>
</trkpt>
<trkpt lat="31.7962800" lon="35.0768900">
<ele>597.940002</ele>
<time>2025-06-27T13:25:08.618Z</time>
</trkpt>
<trkpt lat="31.7962600" lon="35.0768500">
<ele>598.010010</ele>
<time>2025-06-27T13:25:08.618Z</time>
</trkpt>
<trkpt lat="31.7962400" lon="35.0768100">
<ele>598.049988</ele>
<time>2025-06-27T13:25:08.619Z</time>
</trkpt>
<trkpt lat="31.7962300" lon="35.0767600">
<ele>598.320007</ele>
<time>2025-06-27T13:25:08.619Z</time>
</trkpt>
<trkpt lat="31.7962300" lon="35.0767200">
<ele>598.669983</ele>
<time>2025-06-27T13:25:08.619Z</time>
</trkpt>
<trkpt lat="31.7962300" lon="35.0767100">
<ele>598.760010</ele>
<time>2025-06-27T13:25:08.619Z</time>
</trkpt>
<trkpt lat="31.7962300" lon="35.0766500">
<ele>599.369995</ele>
<time>2025-06-27T13:25:08.619Z</time>
</trkpt>
<trkpt lat="31.7962500" lon="35.0766500">
<ele>599.739990</ele>
<time>2025-06-27T13:25:08.619Z</time>
</trkpt>
<trkpt lat="31.7962900" lon="35.0766500">
<ele>600.479980</ele>
<time>2025-06-27T13:25:08.619Z</time>
</trkpt>
<trkpt lat="31.7963200" lon="35.0766500">
<ele>601.029968</ele>
<time>2025-06-27T13:25:08.620Z</time>
</trkpt>
<trkpt lat="31.7963600" lon="35.0766500">
<ele>601.770020</ele>
<time>2025-06-27T13:25:08.620Z</time>
</trkpt>
<trkpt lat="31.7964000" lon="35.0766500">
<ele>602.529968</ele>
<time>2025-06-27T13:25:08.620Z</time>
</trkpt>
<trkpt lat="31.7965200" lon="35.0766400">
<ele>605.089966</ele>
<time>2025-06-27T13:25:08.620Z</time>
</trkpt>
<trkpt lat="31.7966400" lon="35.0766300">
<ele>607.489990</ele>
<time>2025-06-27T13:25:08.620Z</time>
</trkpt>
<trkpt lat="31.7967600" lon="35.0766200">
<ele>607.940002</ele>
<time>2025-06-27T13:25:08.620Z</time>
</trkpt>
<trkpt lat="31.7967900" lon="35.0766100">
<ele>607.909973</ele>
<time>2025-06-27T13:25:08.621Z</time>
</trkpt>
<trkpt lat="31.7968800" lon="35.0766000">
<ele>607.820007</ele>
<time>2025-06-27T13:25:08.621Z</time>
</trkpt>
<trkpt lat="31.7970000" lon="35.0765900">
<ele>607.489990</ele>
<time>2025-06-27T13:25:08.621Z</time>
</trkpt>
<trkpt lat="31.7971200" lon="35.0765700">
<ele>607.049988</ele>
<time>2025-06-27T13:25:08.621Z</time>
</trkpt>
<trkpt lat="31.7972400" lon="35.0765600">
<ele>606.729980</ele>
<time>2025-06-27T13:25:08.621Z</time>
</trkpt>
<trkpt lat="31.7973600" lon="35.0765400">
<ele>606.640015</ele>
<time>2025-06-27T13:25:08.621Z</time>
</trkpt>
<trkpt lat="31.7974400" lon="35.0765300">
<ele>606.589966</ele>
<time>2025-06-27T13:25:08.621Z</time>
</trkpt>
<trkpt lat="31.7974400" lon="35.0765300">
<ele>606.589966</ele>
<time>2025-06-27T13:25:08.622Z</time>
</trkpt>
<trkpt lat="31.7974800" lon="35.0765200">
<ele>606.619995</ele>
<time>2025-06-27T13:25:08.622Z</time>
</trkpt>
<trkpt lat="31.7976000" lon="35.0765100">
<ele>609.059998</ele>
<time>2025-06-27T13:25:08.622Z</time>
</trkpt>
<trkpt lat="31.7976300" lon="35.0765000">
<ele>609.890015</ele>
<time>2025-06-27T13:25:08.622Z</time>
</trkpt>
<trkpt lat="31.7976600" lon="35.0764900">
<ele>610.730042</ele>
<time>2025-06-27T13:25:08.622Z</time>
</trkpt>
<trkpt lat="31.7976900" lon="35.0764800">
<ele>611.580017</ele>
<time>2025-06-27T13:25:08.622Z</time>
</trkpt>
<trkpt lat="31.7977300" lon="35.0764500">
<ele>612.950012</ele>
<time>2025-06-27T13:25:08.622Z</time>
</trkpt>
<trkpt lat="31.7977600" lon="35.0764200">
<ele>614.109985</ele>
<time>2025-06-27T13:25:08.623Z</time>
</trkpt>
<trkpt lat="31.7977800" lon="35.0763900">
<ele>615.019958</ele>
<time>2025-06-27T13:25:08.623Z</time>
</trkpt>
<trkpt lat="31.7978000" lon="35.0763500">
<ele>615.320007</ele>
<time>2025-06-27T13:25:08.623Z</time>
</trkpt>
<trkpt lat="31.7978200" lon="35.0763100">
<ele>615.609985</ele>
<time>2025-06-27T13:25:08.623Z</time>
</trkpt>
<trkpt lat="31.7978500" lon="35.0762800">
<ele>616.040039</ele>
<time>2025-06-27T13:25:08.623Z</time>
</trkpt>
<trkpt lat="31.7978700" lon="35.0762500">
<ele>616.330017</ele>
<time>2025-06-27T13:25:08.623Z</time>
</trkpt>
<trkpt lat="31.7979000" lon="35.0762300">
<ele>616.760010</ele>
<time>2025-06-27T13:25:08.623Z</time>
</trkpt>
<trkpt lat="31.7979300" lon="35.0762100">
<ele>617.190002</ele>
<time>2025-06-27T13:25:08.624Z</time>
</trkpt>
<trkpt lat="31.7979800" lon="35.0761900">
<ele>617.910034</ele>
<time>2025-06-27T13:25:08.624Z</time>
</trkpt>
<trkpt lat="31.7980100" lon="35.0761500">
<ele>618.340027</ele>
<time>2025-06-27T13:25:08.624Z</time>
</trkpt>
<trkpt lat="31.7980300" lon="35.0761000">
<ele>618.590027</ele>
<time>2025-06-27T13:25:08.624Z</time>
</trkpt>
<trkpt lat="31.7980300" lon="35.0760400">
<ele>618.350037</ele>
<time>2025-06-27T13:25:08.624Z</time>
</trkpt>
<trkpt lat="31.7980300" lon="35.0759800">
<ele>618.119995</ele>
<time>2025-06-27T13:25:08.625Z</time>
</trkpt>
<trkpt lat="31.7980100" lon="35.0759300">
<ele>617.589966</ele>
<time>2025-06-27T13:25:08.625Z</time>
</trkpt>
<trkpt lat="31.7979900" lon="35.0758800">
<ele>617.029968</ele>
<time>2025-06-27T13:25:08.625Z</time>
</trkpt>
<trkpt lat="31.7979800" lon="35.0758300">
<ele>616.609985</ele>
<time>2025-06-27T13:25:08.625Z</time>
</trkpt>
<trkpt lat="31.7979800" lon="35.0757700">
<ele>616.119995</ele>
<time>2025-06-27T13:25:08.625Z</time>
</trkpt>
<trkpt lat="31.7979800" lon="35.0757200">
<ele>615.709961</ele>
<time>2025-06-27T13:25:08.625Z</time>
</trkpt>
<trkpt lat="31.7979900" lon="35.0756600">
<ele>615.419983</ele>
<time>2025-06-27T13:25:08.625Z</time>
</trkpt>
<trkpt lat="31.7980100" lon="35.0756300">
<ele>615.599976</ele>
<time>2025-06-27T13:25:08.626Z</time>
</trkpt>
<trkpt lat="31.7980200" lon="35.0755800">
<ele>615.419983</ele>
<time>2025-06-27T13:25:08.626Z</time>
</trkpt>
<trkpt lat="31.7980500" lon="35.0755500">
<ele>615.919983</ele>
<time>2025-06-27T13:25:08.626Z</time>
</trkpt>
<trkpt lat="31.7980800" lon="35.0755100">
<ele>616.919983</ele>
<time>2025-06-27T13:25:08.626Z</time>
</trkpt>
<trkpt lat="31.7981100" lon="35.0754900">
<ele>617.750000</ele>
<time>2025-06-27T13:25:08.626Z</time>
</trkpt>
<trkpt lat="31.7981400" lon="35.0754700">
<ele>618.559998</ele>
<time>2025-06-27T13:25:08.626Z</time>
</trkpt>
<trkpt lat="31.7981700" lon="35.0754600">
<ele>619.290039</ele>
<time>2025-06-27T13:25:08.626Z</time>
</trkpt>
<trkpt lat="31.7982100" lon="35.0754500">
<ele>620.230042</ele>
<time>2025-06-27T13:25:08.627Z</time>
</trkpt>
<trkpt lat="31.7982400" lon="35.0754500">
<ele>620.900024</ele>
<time>2025-06-27T13:25:08.627Z</time>
</trkpt>
<trkpt lat="31.7982700" lon="35.0754500">
<ele>621.580017</ele>
<time>2025-06-27T13:25:08.627Z</time>
</trkpt>
<trkpt lat="31.7985300" lon="35.0754900">
<ele>622.630005</ele>
<time>2025-06-27T13:25:08.627Z</time>
</trkpt>
<trkpt lat="31.7985900" lon="35.0755000">
<ele>622.450012</ele>
<time>2025-06-27T13:25:08.627Z</time>
</trkpt>
<trkpt lat="31.7986600" lon="35.0755200">
<ele>621.250000</ele>
<time>2025-06-27T13:25:08.627Z</time>
</trkpt>
<trkpt lat="31.7987200" lon="35.0755300">
<ele>619.899963</ele>
<time>2025-06-27T13:25:08.627Z</time>
</trkpt>
<trkpt lat="31.7987800" lon="35.0755500">
<ele>618.419983</ele>
<time>2025-06-27T13:25:08.628Z</time>
</trkpt>
<trkpt lat="31.7988200" lon="35.0755600">
<ele>617.479980</ele>
<time>2025-06-27T13:25:08.628Z</time>
</trkpt>
<trkpt lat="31.7988900" lon="35.0755800">
<ele>615.979980</ele>
<time>2025-06-27T13:25:08.628Z</time>
</trkpt>
<trkpt lat="31.7989400" lon="35.0756000">
<ele>614.899963</ele>
<time>2025-06-27T13:25:08.628Z</time>
</trkpt>
<trkpt lat="31.7989800" lon="35.0756200">
<ele>614.030029</ele>
<time>2025-06-27T13:25:08.628Z</time>
</trkpt>
<trkpt lat="31.7990200" lon="35.0756500">
<ele>613.170044</ele>
<time>2025-06-27T13:25:08.628Z</time>
</trkpt>
<trkpt lat="31.7990600" lon="35.0756700">
<ele>612.299988</ele>
<time>2025-06-27T13:25:08.628Z</time>
</trkpt>
<trkpt lat="31.7992600" lon="35.0757600">
<ele>608.570007</ele>
<time>2025-06-27T13:25:08.629Z</time>
</trkpt>
<trkpt lat="31.7995300" lon="35.0758900">
<ele>607.229980</ele>
<time>2025-06-27T13:25:08.629Z</time>
</trkpt>
<trkpt lat="31.8006100" lon="35.0763400">
<ele>607.619995</ele>
<time>2025-06-27T13:25:08.629Z</time>
</trkpt>
<trkpt lat="31.8006400" lon="35.0763600">
<ele>607.409973</ele>
<time>2025-06-27T13:25:08.629Z</time>
</trkpt>
<trkpt lat="31.8006800" lon="35.0763800">
<ele>607.080017</ele>
<time>2025-06-27T13:25:08.629Z</time>
</trkpt>
<trkpt lat="31.8007200" lon="35.0764200">
<ele>607.029968</ele>
<time>2025-06-27T13:25:08.629Z</time>
</trkpt>
<trkpt lat="31.8007400" lon="35.0764500">
<ele>607.149963</ele>
<time>2025-06-27T13:25:08.630Z</time>
</trkpt>
<trkpt lat="31.8007800" lon="35.0764900">
<ele>607.149963</ele>
<time>2025-06-27T13:25:08.630Z</time>
</trkpt>
<trkpt lat="31.8008000" lon="35.0765200">
<ele>607.309998</ele>
<time>2025-06-27T13:25:08.630Z</time>
</trkpt>
<trkpt lat="31.8008400" lon="35.0765800">
<ele>607.679993</ele>
<time>2025-06-27T13:25:08.630Z</time>
</trkpt>
<trkpt lat="31.8008600" lon="35.0766200">
<ele>608.039978</ele>
<time>2025-06-27T13:25:08.630Z</time>
</trkpt>
<trkpt lat="31.8008900" lon="35.0766400">
<ele>608.000000</ele>
<time>2025-06-27T13:25:08.630Z</time>
</trkpt>
<trkpt lat="31.8009300" lon="35.0766600">
<ele>607.859985</ele>
<time>2025-06-27T13:25:08.630Z</time>
</trkpt>
<trkpt lat="31.8009700" lon="35.0766600">
<ele>607.429993</ele>
<time>2025-06-27T13:25:08.631Z</time>
</trkpt>
<trkpt lat="31.8010100" lon="35.0766400">
<ele>606.710022</ele>
<time>2025-06-27T13:25:08.631Z</time>
</trkpt>
<trkpt lat="31.8010500" lon="35.0766200">
<ele>605.989990</ele>
<time>2025-06-27T13:25:08.631Z</time>
</trkpt>
<trkpt lat="31.8010700" lon="35.0765800">
<ele>605.200012</ele>
<time>2025-06-27T13:25:08.631Z</time>
</trkpt>
<trkpt lat="31.8011600" lon="35.0765800">
<ele>604.760010</ele>
<time>2025-06-27T13:25:08.631Z</time>
</trkpt>
<trkpt lat="31.8012300" lon="35.0766300">
<ele>605.729980</ele>
<time>2025-06-27T13:25:08.631Z</time>
</trkpt>
<trkpt lat="31.8012500" lon="35.0766900">
<ele>606.750000</ele>
<time>2025-06-27T13:25:08.631Z</time>
</trkpt>
<trkpt lat="31.8012600" lon="35.0767600">
<ele>607.539978</ele>
<time>2025-06-27T13:25:08.632Z</time>
</trkpt>
<trkpt lat="31.8012700" lon="35.0768000">
<ele>608.010010</ele>
<time>2025-06-27T13:25:08.632Z</time>
</trkpt>
<trkpt lat="31.8012700" lon="35.0768400">
<ele>608.440002</ele>
<time>2025-06-27T13:25:08.632Z</time>
</trkpt>
<trkpt lat="31.8012500" lon="35.0770200">
<ele>609.910034</ele>
<time>2025-06-27T13:25:08.632Z</time>
</trkpt>
<trkpt lat="31.8012900" lon="35.0770600">
<ele>610.210022</ele>
<time>2025-06-27T13:25:08.632Z</time>
</trkpt>
<trkpt lat="31.8014500" lon="35.0771000">
<ele>611.119995</ele>
<time>2025-06-27T13:25:08.632Z</time>
</trkpt>
<trkpt lat="31.8015700" lon="35.0771100">
<ele>612.289978</ele>
<time>2025-06-27T13:25:08.633Z</time>
</trkpt>
<trkpt lat="31.8016200" lon="35.0771000">
<ele>612.690002</ele>
<time>2025-06-27T13:25:08.633Z</time>
</trkpt>
<trkpt lat="31.8016500" lon="35.0770600">
<ele>612.690002</ele>
<time>2025-06-27T13:25:08.633Z</time>
</trkpt>
<trkpt lat="31.8016600" lon="35.0770100">
<ele>612.419983</ele>
<time>2025-06-27T13:25:08.633Z</time>
</trkpt>
<trkpt lat="31.8016700" lon="35.0767400">
<ele>609.130005</ele>
<time>2025-06-27T13:25:08.633Z</time>
</trkpt>
<trkpt lat="31.8016800" lon="35.0766100">
<ele>606.839966</ele>
<time>2025-06-27T13:25:08.633Z</time>
</trkpt>
<trkpt lat="31.8016800" lon="35.0764800">
<ele>603.520020</ele>
<time>2025-06-27T13:25:08.633Z</time>
</trkpt>
<trkpt lat="31.8016900" lon="35.0763600">
<ele>600.520020</ele>
<time>2025-06-27T13:25:08.633Z</time>
</trkpt>
<trkpt lat="31.8017100" lon="35.0762700">
<ele>598.330017</ele>
<time>2025-06-27T13:25:08.634Z</time>
</trkpt>
<trkpt lat="31.8018500" lon="35.0761400">
<ele>597.650024</ele>
<time>2025-06-27T13:25:08.634Z</time>
</trkpt>
<trkpt lat="31.8019000" lon="35.0760800">
<ele>597.130005</ele>
<time>2025-06-27T13:25:08.634Z</time>
</trkpt>
<trkpt lat="31.8019700" lon="35.0759500">
<ele>595.109985</ele>
<time>2025-06-27T13:25:08.634Z</time>
</trkpt>
<trkpt lat="31.8020800" lon="35.0756700">
<ele>588.359985</ele>
<time>2025-06-27T13:25:08.634Z</time>
</trkpt>
<trkpt lat="31.8021500" lon="35.0755700">
<ele>585.369995</ele>
<time>2025-06-27T13:25:08.634Z</time>
</trkpt>
<trkpt lat="31.8022900" lon="35.0755100">
<ele>585.090027</ele>
<time>2025-06-27T13:25:08.634Z</time>
</trkpt>
<trkpt lat="31.8024400" lon="35.0753900">
<ele>583.140015</ele>
<time>2025-06-27T13:25:08.635Z</time>
</trkpt>
<trkpt lat="31.8025000" lon="35.0753200">
<ele>582.059998</ele>
<time>2025-06-27T13:25:08.635Z</time>
</trkpt>
<trkpt lat="31.8024600" lon="35.0753000">
<ele>581.010010</ele>
<time>2025-06-27T13:25:08.635Z</time>
</trkpt>
<trkpt lat="31.8021800" lon="35.0752700">
<ele>575.820007</ele>
<time>2025-06-27T13:25:08.635Z</time>
</trkpt>
<trkpt lat="31.8020400" lon="35.0752600">
<ele>572.510010</ele>
<time>2025-06-27T13:25:08.635Z</time>
</trkpt>
<trkpt lat="31.8018300" lon="35.0753000">
<ele>570.880005</ele>
<time>2025-06-27T13:25:08.635Z</time>
</trkpt>
<trkpt lat="31.8016900" lon="35.0754400">
<ele>573.400024</ele>
<time>2025-06-27T13:25:08.635Z</time>
</trkpt>
<trkpt lat="31.8014600" lon="35.0756500">
<ele>576.979980</ele>
<time>2025-06-27T13:25:08.636Z</time>
</trkpt>
<trkpt lat="31.8013500" lon="35.0756500">
<ele>577.539978</ele>
<time>2025-06-27T13:25:08.636Z</time>
</trkpt>
<trkpt lat="31.8013100" lon="35.0756500">
<ele>578.739990</ele>
<time>2025-06-27T13:25:08.636Z</time>
</trkpt>
<trkpt lat="31.8012500" lon="35.0756400">
<ele>580.320007</ele>
<time>2025-06-27T13:25:08.636Z</time>
</trkpt>
<trkpt lat="31.8012100" lon="35.0755200">
<ele>579.460022</ele>
<time>2025-06-27T13:25:08.636Z</time>
</trkpt>
<trkpt lat="31.8011900" lon="35.0753800">
<ele>578.729980</ele>
<time>2025-06-27T13:25:08.636Z</time>
</trkpt>
<trkpt lat="31.8011900" lon="35.0752400">
<ele>577.359985</ele>
<time>2025-06-27T13:25:08.636Z</time>
</trkpt>
<trkpt lat="31.8011800" lon="35.0748800">
<ele>575.049988</ele>
<time>2025-06-27T13:25:08.637Z</time>
</trkpt>
<trkpt lat="31.8011900" lon="35.0748000">
<ele>574.700012</ele>
<time>2025-06-27T13:25:08.637Z</time>
</trkpt>
<trkpt lat="31.8012100" lon="35.0746700">
<ele>574.529968</ele>
<time>2025-06-27T13:25:08.637Z</time>
</trkpt>
<trkpt lat="31.8016000" lon="35.0733600">
<ele>577.369995</ele>
<time>2025-06-27T13:25:08.637Z</time>
</trkpt>
<trkpt lat="31.8016500" lon="35.0732400">
<ele>577.369995</ele>
<time>2025-06-27T13:25:08.637Z</time>
</trkpt>
<trkpt lat="31.8018100" lon="35.0728000">
<ele>577.739990</ele>
<time>2025-06-27T13:25:08.637Z</time>
</trkpt>
<trkpt lat="31.8022700" lon="35.0721300">
<ele>582.730042</ele>
<time>2025-06-27T13:25:08.637Z</time>
</trkpt>
<trkpt lat="31.8023700" lon="35.0718900">
<ele>582.239990</ele>
<time>2025-06-27T13:25:08.638Z</time>
</trkpt>
<trkpt lat="31.8023700" lon="35.0718400">
<ele>581.979980</ele>
<time>2025-06-27T13:25:08.638Z</time>
</trkpt>
<trkpt lat="31.8023600" lon="35.0717200">
<ele>581.280029</ele>
<time>2025-06-27T13:25:08.638Z</time>
</trkpt>
<trkpt lat="31.8023700" lon="35.0716000">
<ele>580.340027</ele>
<time>2025-06-27T13:25:08.638Z</time>
</trkpt>
<trkpt lat="31.8023700" lon="35.0714500">
<ele>578.719971</ele>
<time>2025-06-27T13:25:08.638Z</time>
</trkpt>
<trkpt lat="31.8024400" lon="35.0712200">
<ele>576.000000</ele>
<time>2025-06-27T13:25:08.638Z</time>
</trkpt>
<trkpt lat="31.8026000" lon="35.0709200">
<ele>575.419983</ele>
<time>2025-06-27T13:25:08.638Z</time>
</trkpt>
<trkpt lat="31.8034300" lon="35.0696400">
<ele>578.469971</ele>
<time>2025-06-27T13:25:08.639Z</time>
</trkpt>
<trkpt lat="31.8038100" lon="35.0691300">
<ele>580.290039</ele>
<time>2025-06-27T13:25:08.639Z</time>
</trkpt>
<trkpt lat="31.8039500" lon="35.0689100">
<ele>581.559998</ele>
<time>2025-06-27T13:25:08.639Z</time>
</trkpt>
<trkpt lat="31.8040600" lon="35.0686800">
<ele>582.659973</ele>
<time>2025-06-27T13:25:08.639Z</time>
</trkpt>
<trkpt lat="31.8042700" lon="35.0681300">
<ele>584.589966</ele>
<time>2025-06-27T13:25:08.639Z</time>
</trkpt>
<trkpt lat="31.8042800" lon="35.0678900">
<ele>585.229980</ele>
<time>2025-06-27T13:25:08.639Z</time>
</trkpt>
<trkpt lat="31.8042900" lon="35.0675400">
<ele>584.440002</ele>
<time>2025-06-27T13:25:08.639Z</time>
</trkpt>
<trkpt lat="31.8043100" lon="35.0673700">
<ele>582.950012</ele>
<time>2025-06-27T13:25:08.640Z</time>
</trkpt>
<trkpt lat="31.8043400" lon="35.0672500">
<ele>582.080017</ele>
<time>2025-06-27T13:25:08.640Z</time>
</trkpt>
<trkpt lat="31.8044200" lon="35.0670800">
<ele>580.489990</ele>
<time>2025-06-27T13:25:08.640Z</time>
</trkpt>
<trkpt lat="31.8046400" lon="35.0668300">
<ele>580.580017</ele>
<time>2025-06-27T13:25:08.640Z</time>
</trkpt>
<trkpt lat="31.8047200" lon="35.0667000">
<ele>580.429993</ele>
<time>2025-06-27T13:25:08.640Z</time>
</trkpt>
<trkpt lat="31.8047600" lon="35.0666300">
<ele>580.820007</ele>
<time>2025-06-27T13:25:08.640Z</time>
</trkpt>
<trkpt lat="31.8048000" lon="35.0665300">
<ele>581.260010</ele>
<time>2025-06-27T13:25:08.640Z</time>
</trkpt>
<trkpt lat="31.8048400" lon="35.0661500">
<ele>578.580017</ele>
<time>2025-06-27T13:25:08.641Z</time>
</trkpt>
<trkpt lat="31.8048700" lon="35.0659700">
<ele>575.880005</ele>
<time>2025-06-27T13:25:08.641Z</time>
</trkpt>
<trkpt lat="31.8049600" lon="35.0657400">
<ele>573.070007</ele>
<time>2025-06-27T13:25:08.641Z</time>
</trkpt>
<trkpt lat="31.8051800" lon="35.0654000">
<ele>568.010010</ele>
<time>2025-06-27T13:25:08.641Z</time>
</trkpt>
<trkpt lat="31.8054300" lon="35.0650800">
<ele>567.029968</ele>
<time>2025-06-27T13:25:08.641Z</time>
</trkpt>
<trkpt lat="31.8062800" lon="35.0637600">
<ele>566.580017</ele>
<time>2025-06-27T13:25:08.641Z</time>
</trkpt>
<trkpt lat="31.8066100" lon="35.0632600">
<ele>566.669983</ele>
<time>2025-06-27T13:25:08.641Z</time>
</trkpt>
<trkpt lat="31.8067600" lon="35.0630800">
<ele>566.299988</ele>
<time>2025-06-27T13:25:08.642Z</time>
</trkpt>
<trkpt lat="31.8073300" lon="35.0624500">
<ele>565.839966</ele>
<time>2025-06-27T13:25:08.642Z</time>
</trkpt>
<trkpt lat="31.8080700" lon="35.0614500">
<ele>560.150024</ele>
<time>2025-06-27T13:25:08.642Z</time>
</trkpt>
<trkpt lat="31.8081900" lon="35.0612500">
<ele>560.160034</ele>
<time>2025-06-27T13:25:08.642Z</time>
</trkpt>
<trkpt lat="31.8083300" lon="35.0609700">
<ele>561.419983</ele>
<time>2025-06-27T13:25:08.642Z</time>
</trkpt>
<trkpt lat="31.8086100" lon="35.0603600">
<ele>558.169983</ele>
<time>2025-06-27T13:25:08.642Z</time>
</trkpt>
<trkpt lat="31.8087700" lon="35.0598800">
<ele>554.750000</ele>
<time>2025-06-27T13:25:08.642Z</time>
</trkpt>
<trkpt lat="31.8088600" lon="35.0595700">
<ele>553.000000</ele>
<time>2025-06-27T13:25:08.642Z</time>
</trkpt>
<trkpt lat="31.8089100" lon="35.0589300">
<ele>547.690002</ele>
<time>2025-06-27T13:25:08.643Z</time>
</trkpt>
<trkpt lat="31.8089100" lon="35.0585800">
<ele>547.160034</ele>
<time>2025-06-27T13:25:08.643Z</time>
</trkpt>
<trkpt lat="31.8089100" lon="35.0580700">
<ele>548.029968</ele>
<time>2025-06-27T13:25:08.643Z</time>
</trkpt>
<trkpt lat="31.8087400" lon="35.0570800">
<ele>547.169983</ele>
<time>2025-06-27T13:25:08.643Z</time>
</trkpt>
<trkpt lat="31.8086000" lon="35.0565400">
<ele>549.210022</ele>
<time>2025-06-27T13:25:08.643Z</time>
</trkpt>
<trkpt lat="31.8085400" lon="35.0560100">
<ele>552.770020</ele>
<time>2025-06-27T13:25:08.643Z</time>
</trkpt>
<trkpt lat="31.8085100" lon="35.0552800">
<ele>554.630005</ele>
<time>2025-06-27T13:25:08.643Z</time>
</trkpt>
<trkpt lat="31.8085100" lon="35.0547600">
<ele>552.409973</ele>
<time>2025-06-27T13:25:08.644Z</time>
</trkpt>
<trkpt lat="31.8085200" lon="35.0541900">
<ele>551.640015</ele>
<time>2025-06-27T13:25:08.644Z</time>
</trkpt>
<trkpt lat="31.8085100" lon="35.0540100">
<ele>552.049988</ele>
<time>2025-06-27T13:25:08.644Z</time>
</trkpt>
<trkpt lat="31.8085100" lon="35.0538200">
<ele>552.859985</ele>
<time>2025-06-27T13:25:08.644Z</time>
</trkpt>
<trkpt lat="31.8084200" lon="35.0535200">
<ele>554.359985</ele>
<time>2025-06-27T13:25:08.644Z</time>
</trkpt>
<trkpt lat="31.8081100" lon="35.0528900">
<ele>559.190002</ele>
<time>2025-06-27T13:25:08.644Z</time>
</trkpt>
<trkpt lat="31.8079400" lon="35.0526100">
<ele>562.059998</ele>
<time>2025-06-27T13:25:08.644Z</time>
</trkpt>
<trkpt lat="31.8076000" lon="35.0521100">
<ele>563.869995</ele>
<time>2025-06-27T13:25:08.646Z</time>
</trkpt>
<trkpt lat="31.8074700" lon="35.0518400">
<ele>563.440002</ele>
<time>2025-06-27T13:25:08.646Z</time>
</trkpt>
<trkpt lat="31.8074000" lon="35.0517000">
<ele>563.160034</ele>
<time>2025-06-27T13:25:08.646Z</time>
</trkpt>
<trkpt lat="31.8073600" lon="35.0515200">
<ele>563.519958</ele>
<time>2025-06-27T13:25:08.646Z</time>
</trkpt>
<trkpt lat="31.8073300" lon="35.0510900">
<ele>564.520020</ele>
<time>2025-06-27T13:25:08.646Z</time>
</trkpt>
<trkpt lat="31.8073300" lon="35.0509200">
<ele>561.589966</ele>
<time>2025-06-27T13:25:08.647Z</time>
</trkpt>
<trkpt lat="31.8073400" lon="35.0507700">
<ele>559.289978</ele>
<time>2025-06-27T13:25:08.647Z</time>
</trkpt>
<trkpt lat="31.8073600" lon="35.0506700">
<ele>558.030029</ele>
<time>2025-06-27T13:25:08.647Z</time>
</trkpt>
<trkpt lat="31.8074100" lon="35.0505700">
<ele>557.330017</ele>
<time>2025-06-27T13:25:08.648Z</time>
</trkpt>
<trkpt lat="31.8074500" lon="35.0505000">
<ele>556.960022</ele>
<time>2025-06-27T13:25:08.648Z</time>
</trkpt>
<trkpt lat="31.8075600" lon="35.0504100">
<ele>557.139954</ele>
<time>2025-06-27T13:25:08.648Z</time>
</trkpt>
<trkpt lat="31.8076900" lon="35.0503400">
<ele>557.700012</ele>
<time>2025-06-27T13:25:08.648Z</time>
</trkpt>
<trkpt lat="31.8079000" lon="35.0502600">
<ele>558.739990</ele>
<time>2025-06-27T13:25:08.648Z</time>
</trkpt>
<trkpt lat="31.8081500" lon="35.0502000">
<ele>560.049988</ele>
<time>2025-06-27T13:25:08.649Z</time>
</trkpt>
<trkpt lat="31.8084400" lon="35.0500800">
<ele>558.530029</ele>
<time>2025-06-27T13:25:08.649Z</time>
</trkpt>
<trkpt lat="31.8085700" lon="35.0499100">
<ele>558.229980</ele>
<time>2025-06-27T13:25:08.649Z</time>
</trkpt>
<trkpt lat="31.8085600" lon="35.0497600">
<ele>558.550049</ele>
<time>2025-06-27T13:25:08.649Z</time>
</trkpt>
<trkpt lat="31.8085300" lon="35.0496700">
<ele>558.530029</ele>
<time>2025-06-27T13:25:08.650Z</time>
</trkpt>
<trkpt lat="31.8083800" lon="35.0494000">
<ele>559.210022</ele>
<time>2025-06-27T13:25:08.650Z</time>
</trkpt>
<trkpt lat="31.8082700" lon="35.0491600">
<ele>558.649963</ele>
<time>2025-06-27T13:25:08.650Z</time>
</trkpt>
<trkpt lat="31.8081500" lon="35.0488200">
<ele>555.299988</ele>
<time>2025-06-27T13:25:08.650Z</time>
</trkpt>
<trkpt lat="31.8078900" lon="35.0478800">
<ele>545.570007</ele>
<time>2025-06-27T13:25:08.650Z</time>
</trkpt>
<trkpt lat="31.8078500" lon="35.0475700">
<ele>541.570007</ele>
<time>2025-06-27T13:25:08.650Z</time>
</trkpt>
<trkpt lat="31.8078500" lon="35.0474100">
<ele>539.589966</ele>
<time>2025-06-27T13:25:08.651Z</time>
</trkpt>
<trkpt lat="31.8078500" lon="35.0471400">
<ele>537.409973</ele>
<time>2025-06-27T13:25:08.651Z</time>
</trkpt>
<trkpt lat="31.8078600" lon="35.0468200">
<ele>535.739990</ele>
<time>2025-06-27T13:25:08.651Z</time>
</trkpt>
<trkpt lat="31.8079800" lon="35.0461400">
<ele>532.840027</ele>
<time>2025-06-27T13:25:08.652Z</time>
</trkpt>
<trkpt lat="31.8080500" lon="35.0452800">
<ele>526.820007</ele>
<time>2025-06-27T13:25:08.652Z</time>
</trkpt>
<trkpt lat="31.8080700" lon="35.0443000">
<ele>518.940002</ele>
<time>2025-06-27T13:25:08.652Z</time>
</trkpt>
<trkpt lat="31.8081200" lon="35.0433200">
<ele>508.820007</ele>
<time>2025-06-27T13:25:08.652Z</time>
</trkpt>
<trkpt lat="31.8081300" lon="35.0422100">
<ele>496.990021</ele>
<time>2025-06-27T13:25:08.652Z</time>
</trkpt>
<trkpt lat="31.8081500" lon="35.0419000">
<ele>489.769989</ele>
<time>2025-06-27T13:25:08.652Z</time>
</trkpt>
<trkpt lat="31.8081900" lon="35.0418100">
<ele>487.359985</ele>
<time>2025-06-27T13:25:08.652Z</time>
</trkpt>
<trkpt lat="31.8082200" lon="35.0417700">
<ele>486.350006</ele>
<time>2025-06-27T13:25:08.653Z</time>
</trkpt>
<trkpt lat="31.8083400" lon="35.0416900">
<ele>484.610016</ele>
<time>2025-06-27T13:25:08.653Z</time>
</trkpt>
<trkpt lat="31.8085800" lon="35.0416100">
<ele>484.230011</ele>
<time>2025-06-27T13:25:08.653Z</time>
</trkpt>
<trkpt lat="31.8086500" lon="35.0415700">
<ele>484.230011</ele>
<time>2025-06-27T13:25:08.653Z</time>
</trkpt>
<trkpt lat="31.8087100" lon="35.0414900">
<ele>483.480011</ele>
<time>2025-06-27T13:25:08.653Z</time>
</trkpt>
<trkpt lat="31.8091600" lon="35.0409100">
<ele>478.769989</ele>
<time>2025-06-27T13:25:08.653Z</time>
</trkpt>
<trkpt lat="31.8092000" lon="35.0408200">
<ele>478.069977</ele>
<time>2025-06-27T13:25:08.654Z</time>
</trkpt>
<trkpt lat="31.8092200" lon="35.0407300">
<ele>477.819977</ele>
<time>2025-06-27T13:25:08.654Z</time>
</trkpt>
<trkpt lat="31.8092200" lon="35.0403900">
<ele>476.850006</ele>
<time>2025-06-27T13:25:08.654Z</time>
</trkpt>
<trkpt lat="31.8091900" lon="35.0401600">
<ele>477.149994</ele>
<time>2025-06-27T13:25:08.654Z</time>
</trkpt>
<trkpt lat="31.8089600" lon="35.0397400">
<ele>480.259979</ele>
<time>2025-06-27T13:25:08.654Z</time>
</trkpt>
<trkpt lat="31.8087900" lon="35.0394300">
<ele>478.309998</ele>
<time>2025-06-27T13:25:08.655Z</time>
</trkpt>
<trkpt lat="31.8086000" lon="35.0390300">
<ele>475.739990</ele>
<time>2025-06-27T13:25:08.655Z</time>
</trkpt>
<trkpt lat="31.8084000" lon="35.0386400">
<ele>471.869995</ele>
<time>2025-06-27T13:25:08.655Z</time>
</trkpt>
<trkpt lat="31.8083100" lon="35.0384700">
<ele>469.750000</ele>
<time>2025-06-27T13:25:08.656Z</time>
</trkpt>
<trkpt lat="31.8082500" lon="35.0382500">
<ele>466.500000</ele>
<time>2025-06-27T13:25:08.657Z</time>
</trkpt>
<trkpt lat="31.8082100" lon="35.0380200">
<ele>461.719971</ele>
<time>2025-06-27T13:25:08.657Z</time>
</trkpt>
<trkpt lat="31.8082000" lon="35.0377600">
<ele>458.590027</ele>
<time>2025-06-27T13:25:08.659Z</time>
</trkpt>
<trkpt lat="31.8082000" lon="35.0375700">
<ele>457.569977</ele>
<time>2025-06-27T13:25:08.659Z</time>
</trkpt>
<trkpt lat="31.8082000" lon="35.0372700">
<ele>454.720001</ele>
<time>2025-06-27T13:25:08.659Z</time>
</trkpt>
<trkpt lat="31.8082700" lon="35.0369100">
<ele>451.999969</ele>
<time>2025-06-27T13:25:08.659Z</time>
</trkpt>
<trkpt lat="31.8083100" lon="35.0367900">
<ele>450.869995</ele>
<time>2025-06-27T13:25:08.659Z</time>
</trkpt>
<trkpt lat="31.8083900" lon="35.0366000">
<ele>449.300018</ele>
<time>2025-06-27T13:25:08.660Z</time>
</trkpt>
<trkpt lat="31.8086300" lon="35.0362000">
<ele>447.010010</ele>
<time>2025-06-27T13:25:08.661Z</time>
</trkpt>
<trkpt lat="31.8086800" lon="35.0360900">
<ele>446.130005</ele>
<time>2025-06-27T13:25:08.662Z</time>
</trkpt>
<trkpt lat="31.8089200" lon="35.0353300">
<ele>440.559998</ele>
<time>2025-06-27T13:25:08.662Z</time>
</trkpt>
<trkpt lat="31.8090700" lon="35.0349900">
<ele>434.749969</ele>
<time>2025-06-27T13:25:08.662Z</time>
</trkpt>
<trkpt lat="31.8092500" lon="35.0346900">
<ele>431.029999</ele>
<time>2025-06-27T13:25:08.662Z</time>
</trkpt>
<trkpt lat="31.8095000" lon="35.0344000">
<ele>430.110016</ele>
<time>2025-06-27T13:25:08.662Z</time>
</trkpt>
<trkpt lat="31.8096100" lon="35.0343100">
<ele>427.540009</ele>
<time>2025-06-27T13:25:08.663Z</time>
</trkpt>
<trkpt lat="31.8097200" lon="35.0342700">
<ele>425.729980</ele>
<time>2025-06-27T13:25:08.663Z</time>
</trkpt>
<trkpt lat="31.8098500" lon="35.0342500">
<ele>421.779999</ele>
<time>2025-06-27T13:25:08.663Z</time>
</trkpt>
<trkpt lat="31.8101800" lon="35.0342400">
<ele>416.440002</ele>
<time>2025-06-27T13:25:08.663Z</time>
</trkpt>
<trkpt lat="31.8106600" lon="35.0342500">
<ele>411.660004</ele>
<time>2025-06-27T13:25:08.663Z</time>
</trkpt>
<trkpt lat="31.8108000" lon="35.0342500">
<ele>412.820007</ele>
<time>2025-06-27T13:25:08.664Z</time>
</trkpt>
<trkpt lat="31.8108900" lon="35.0342400">
<ele>413.149994</ele>
<time>2025-06-27T13:25:08.664Z</time>
</trkpt>
<trkpt lat="31.8110400" lon="35.0342100">
<ele>413.349976</ele>
<time>2025-06-27T13:25:08.664Z</time>
</trkpt>
<trkpt lat="31.8111400" lon="35.0341500">
<ele>412.889984</ele>
<time>2025-06-27T13:25:08.664Z</time>
</trkpt>
<trkpt lat="31.8113300" lon="35.0340200">
<ele>412.779999</ele>
<time>2025-06-27T13:25:08.664Z</time>
</trkpt>
<trkpt lat="31.8114200" lon="35.0339000">
<ele>412.650024</ele>
<time>2025-06-27T13:25:08.664Z</time>
</trkpt>
<trkpt lat="31.8115200" lon="35.0337200">
<ele>411.159973</ele>
<time>2025-06-27T13:25:08.665Z</time>
</trkpt>
<trkpt lat="31.8117000" lon="35.0332500">
<ele>410.149994</ele>
<time>2025-06-27T13:25:08.665Z</time>
</trkpt>
<trkpt lat="31.8118600" lon="35.0329100">
<ele>409.640015</ele>
<time>2025-06-27T13:25:08.665Z</time>
</trkpt>
<trkpt lat="31.8119400" lon="35.0327100">
<ele>410.880005</ele>
<time>2025-06-27T13:25:08.665Z</time>
</trkpt>
<trkpt lat="31.8120000" lon="35.0324400">
<ele>411.039978</ele>
<time>2025-06-27T13:25:08.665Z</time>
</trkpt>
<trkpt lat="31.8120700" lon="35.0316800">
<ele>398.740021</ele>
<time>2025-06-27T13:25:08.666Z</time>
</trkpt>
<trkpt lat="31.8120900" lon="35.0316100">
<ele>396.829987</ele>
<time>2025-06-27T13:25:08.666Z</time>
</trkpt>
<trkpt lat="31.8121600" lon="35.0315000">
<ele>394.059998</ele>
<time>2025-06-27T13:25:08.666Z</time>
</trkpt>
<trkpt lat="31.8122100" lon="35.0314700">
<ele>393.529999</ele>
<time>2025-06-27T13:25:08.666Z</time>
</trkpt>
<trkpt lat="31.8123100" lon="35.0314400">
<ele>392.600006</ele>
<time>2025-06-27T13:25:08.666Z</time>
</trkpt>
<trkpt lat="31.8124000" lon="35.0314300">
<ele>392.239990</ele>
<time>2025-06-27T13:25:08.667Z</time>
</trkpt>
<trkpt lat="31.8129100" lon="35.0314900">
<ele>386.679993</ele>
<time>2025-06-27T13:25:08.668Z</time>
</trkpt>
<trkpt lat="31.8130400" lon="35.0315000">
<ele>384.309998</ele>
<time>2025-06-27T13:25:08.668Z</time>
</trkpt>
<trkpt lat="31.8133100" lon="35.0315000">
<ele>381.069977</ele>
<time>2025-06-27T13:25:08.669Z</time>
</trkpt>
<trkpt lat="31.8134000" lon="35.0314900">
<ele>381.400024</ele>
<time>2025-06-27T13:25:08.669Z</time>
</trkpt>
<trkpt lat="31.8135600" lon="35.0314100">
<ele>383.859985</ele>
<time>2025-06-27T13:25:08.669Z</time>
</trkpt>
<trkpt lat="31.8136500" lon="35.0313200">
<ele>383.910004</ele>
<time>2025-06-27T13:25:08.669Z</time>
</trkpt>
<trkpt lat="31.8137100" lon="35.0312100">
<ele>382.619995</ele>
<time>2025-06-27T13:25:08.669Z</time>
</trkpt>
<trkpt lat="31.8137400" lon="35.0310600">
<ele>382.399994</ele>
<time>2025-06-27T13:25:08.670Z</time>
</trkpt>
<trkpt lat="31.8137600" lon="35.0308900">
<ele>383.690002</ele>
<time>2025-06-27T13:25:08.670Z</time>
</trkpt>
<trkpt lat="31.8137600" lon="35.0307600">
<ele>384.669983</ele>
<time>2025-06-27T13:25:08.670Z</time>
</trkpt>
<trkpt lat="31.8136200" lon="35.0300500">
<ele>381.620026</ele>
<time>2025-06-27T13:25:08.670Z</time>
</trkpt>
<trkpt lat="31.8136200" lon="35.0299600">
<ele>380.350006</ele>
<time>2025-06-27T13:25:08.670Z</time>
</trkpt>
<trkpt lat="31.8136200" lon="35.0298400">
<ele>378.220001</ele>
<time>2025-06-27T13:25:08.670Z</time>
</trkpt>
<trkpt lat="31.8136400" lon="35.0295800">
<ele>373.860016</ele>
<time>2025-06-27T13:25:08.671Z</time>
</trkpt>
<trkpt lat="31.8137800" lon="35.0291200">
<ele>365.520020</ele>
<time>2025-06-27T13:25:08.671Z</time>
</trkpt>
<trkpt lat="31.8138800" lon="35.0289500">
<ele>360.380005</ele>
<time>2025-06-27T13:25:08.671Z</time>
</trkpt>
<trkpt lat="31.8140000" lon="35.0288200">
<ele>358.059998</ele>
<time>2025-06-27T13:25:08.671Z</time>
</trkpt>
<trkpt lat="31.8141400" lon="35.0287700">
<ele>358.959991</ele>
<time>2025-06-27T13:25:08.671Z</time>
</trkpt>
<trkpt lat="31.8142300" lon="35.0287100">
<ele>358.639984</ele>
<time>2025-06-27T13:25:08.671Z</time>
</trkpt>
<trkpt lat="31.8143500" lon="35.0285700">
<ele>358.020020</ele>
<time>2025-06-27T13:25:08.672Z</time>
</trkpt>
<trkpt lat="31.8144300" lon="35.0284300">
<ele>358.140015</ele>
<time>2025-06-27T13:25:08.672Z</time>
</trkpt>
<trkpt lat="31.8145700" lon="35.0280800">
<ele>355.139984</ele>
<time>2025-06-27T13:25:08.672Z</time>
</trkpt>
<trkpt lat="31.8146300" lon="35.0279100">
<ele>353.079987</ele>
<time>2025-06-27T13:25:08.672Z</time>
</trkpt>
<trkpt lat="31.8146600" lon="35.0277300">
<ele>350.880005</ele>
<time>2025-06-27T13:25:08.672Z</time>
</trkpt>
<trkpt lat="31.8147500" lon="35.0274100">
<ele>345.980011</ele>
<time>2025-06-27T13:25:08.672Z</time>
</trkpt>
<trkpt lat="31.8148800" lon="35.0271600">
<ele>339.539978</ele>
<time>2025-06-27T13:25:08.673Z</time>
</trkpt>
<trkpt lat="31.8149900" lon="35.0270600">
<ele>338.070007</ele>
<time>2025-06-27T13:25:08.673Z</time>
</trkpt>
<trkpt lat="31.8153800" lon="35.0267500">
<ele>337.229980</ele>
<time>2025-06-27T13:25:08.673Z</time>
</trkpt>
<trkpt lat="31.8154700" lon="35.0267000">
<ele>336.549988</ele>
<time>2025-06-27T13:25:08.673Z</time>
</trkpt>
<trkpt lat="31.8155800" lon="35.0266800">
<ele>336.540009</ele>
<time>2025-06-27T13:25:08.673Z</time>
</trkpt>
<trkpt lat="31.8157300" lon="35.0266800">
<ele>339.299988</ele>
<time>2025-06-27T13:25:08.673Z</time>
</trkpt>
<trkpt lat="31.8158400" lon="35.0266800">
<ele>341.139984</ele>
<time>2025-06-27T13:25:08.674Z</time>
</trkpt>
<trkpt lat="31.8159900" lon="35.0267300">
<ele>340.780029</ele>
<time>2025-06-27T13:25:08.674Z</time>
</trkpt>
<trkpt lat="31.8162300" lon="35.0268700">
<ele>339.960022</ele>
<time>2025-06-27T13:25:08.674Z</time>
</trkpt>
<trkpt lat="31.8164500" lon="35.0271100">
<ele>335.800018</ele>
<time>2025-06-27T13:25:08.674Z</time>
</trkpt>
<trkpt lat="31.8167000" lon="35.0275600">
<ele>327.590027</ele>
<time>2025-06-27T13:25:08.674Z</time>
</trkpt>
<trkpt lat="31.8167200" lon="35.0276900">
<ele>325.230011</ele>
<time>2025-06-27T13:25:08.674Z</time>
</trkpt>
<trkpt lat="31.8167200" lon="35.0278900">
<ele>322.559998</ele>
<time>2025-06-27T13:25:08.674Z</time>
</trkpt>
<trkpt lat="31.8167000" lon="35.0282600">
<ele>319.660004</ele>
<time>2025-06-27T13:25:08.674Z</time>
</trkpt>
<trkpt lat="31.8166300" lon="35.0286000">
<ele>319.049988</ele>
<time>2025-06-27T13:25:08.674Z</time>
</trkpt>
<trkpt lat="31.8164500" lon="35.0294000">
<ele>313.500000</ele>
<time>2025-06-27T13:25:08.675Z</time>
</trkpt>
<trkpt lat="31.8163900" lon="35.0296300">
<ele>312.339996</ele>
<time>2025-06-27T13:25:08.675Z</time>
</trkpt>
<trkpt lat="31.8162700" lon="35.0298700">
<ele>309.959991</ele>
<time>2025-06-27T13:25:08.675Z</time>
</trkpt>
<trkpt lat="31.8160400" lon="35.0301900">
<ele>307.589996</ele>
<time>2025-06-27T13:25:08.675Z</time>
</trkpt>
<trkpt lat="31.8160400" lon="35.0302500">
<ele>307.700012</ele>
<time>2025-06-27T13:25:08.675Z</time>
</trkpt>
<trkpt lat="31.8160400" lon="35.0303200">
<ele>308.089996</ele>
<time>2025-06-27T13:25:08.675Z</time>
</trkpt>
<trkpt lat="31.8160500" lon="35.0303800">
<ele>308.600006</ele>
<time>2025-06-27T13:25:08.676Z</time>
</trkpt>
<trkpt lat="31.8161600" lon="35.0304000">
<ele>309.309998</ele>
<time>2025-06-27T13:25:08.676Z</time>
</trkpt>
<trkpt lat="31.8162800" lon="35.0303900">
<ele>310.269989</ele>
<time>2025-06-27T13:25:08.676Z</time>
</trkpt>
<trkpt lat="31.8165900" lon="35.0303500">
<ele>313.839996</ele>
<time>2025-06-27T13:25:08.676Z</time>
</trkpt>
<trkpt lat="31.8166700" lon="35.0303500">
<ele>314.910004</ele>
<time>2025-06-27T13:25:08.676Z</time>
</trkpt>
<trkpt lat="31.8168800" lon="35.0303600">
<ele>309.540009</ele>
<time>2025-06-27T13:25:08.676Z</time>
</trkpt>
<trkpt lat="31.8170100" lon="35.0303900">
<ele>307.079987</ele>
<time>2025-06-27T13:25:08.676Z</time>
</trkpt>
<trkpt lat="31.8170100" lon="35.0303900">
<ele>307.079987</ele>
<time>2025-06-27T13:25:08.677Z</time>
</trkpt>
<trkpt lat="31.8170400" lon="35.0304000">
<ele>306.639984</ele>
<time>2025-06-27T13:25:08.677Z</time>
</trkpt>
<trkpt lat="31.8171600" lon="35.0305000">
<ele>305.049988</ele>
<time>2025-06-27T13:25:08.677Z</time>
</trkpt>
<trkpt lat="31.8172600" lon="35.0306500">
<ele>305.720001</ele>
<time>2025-06-27T13:25:08.677Z</time>
</trkpt>
<trkpt lat="31.8173300" lon="35.0307900">
<ele>307.619995</ele>
<time>2025-06-27T13:25:08.677Z</time>
</trkpt>
<trkpt lat="31.8173800" lon="35.0308200">
<ele>307.919983</ele>
<time>2025-06-27T13:25:08.677Z</time>
</trkpt>
<trkpt lat="31.8174400" lon="35.0308200">
<ele>307.959991</ele>
<time>2025-06-27T13:25:08.678Z</time>
</trkpt>
<trkpt lat="31.8174800" lon="35.0308000">
<ele>307.970001</ele>
<time>2025-06-27T13:25:08.678Z</time>
</trkpt>
<trkpt lat="31.8175100" lon="35.0307500">
<ele>308.269989</ele>
<time>2025-06-27T13:25:08.678Z</time>
</trkpt>
<trkpt lat="31.8174700" lon="35.0306900">
<ele>307.779999</ele>
<time>2025-06-27T13:25:08.678Z</time>
</trkpt>
<trkpt lat="31.8173100" lon="35.0300400">
<ele>301.429993</ele>
<time>2025-06-27T13:25:08.678Z</time>
</trkpt>
<trkpt lat="31.8172600" lon="35.0297500">
<ele>295.440002</ele>
<time>2025-06-27T13:25:08.678Z</time>
</trkpt>
<trkpt lat="31.8172600" lon="35.0296100">
<ele>294.549988</ele>
<time>2025-06-27T13:25:08.679Z</time>
</trkpt>
<trkpt lat="31.8173100" lon="35.0292900">
<ele>294.679993</ele>
<time>2025-06-27T13:25:08.679Z</time>
</trkpt>
<trkpt lat="31.8174400" lon="35.0288000">
<ele>294.140015</ele>
<time>2025-06-27T13:25:08.679Z</time>
</trkpt>
<trkpt lat="31.8175200" lon="35.0283900">
<ele>291.609985</ele>
<time>2025-06-27T13:25:08.679Z</time>
</trkpt>
<trkpt lat="31.8175300" lon="35.0281800">
<ele>291.300018</ele>
<time>2025-06-27T13:25:08.680Z</time>
</trkpt>
<trkpt lat="31.8175300" lon="35.0272800">
<ele>286.100006</ele>
<time>2025-06-27T13:25:08.680Z</time>
</trkpt>
<trkpt lat="31.8175300" lon="35.0272500">
<ele>285.589996</ele>
<time>2025-06-27T13:25:08.680Z</time>
</trkpt>
<trkpt lat="31.8175900" lon="35.0268300">
<ele>283.970001</ele>
<time>2025-06-27T13:25:08.680Z</time>
</trkpt>
<trkpt lat="31.8176100" lon="35.0264500">
<ele>282.320007</ele>
<time>2025-06-27T13:25:08.680Z</time>
</trkpt>
<trkpt lat="31.8176700" lon="35.0262500">
<ele>281.220001</ele>
<time>2025-06-27T13:25:08.680Z</time>
</trkpt>
<trkpt lat="31.8177100" lon="35.0261800">
<ele>281.009979</ele>
<time>2025-06-27T13:25:08.680Z</time>
</trkpt>
<trkpt lat="31.8178600" lon="35.0261200">
<ele>281.959991</ele>
<time>2025-06-27T13:25:08.680Z</time>
</trkpt>
<trkpt lat="31.8180000" lon="35.0261000">
<ele>283.350006</ele>
<time>2025-06-27T13:25:08.680Z</time>
</trkpt>
<trkpt lat="31.8180800" lon="35.0260800">
<ele>284.399994</ele>
<time>2025-06-27T13:25:08.681Z</time>
</trkpt>
<trkpt lat="31.8180900" lon="35.0262300">
<ele>285.920013</ele>
<time>2025-06-27T13:25:08.681Z</time>
</trkpt>
<trkpt lat="31.8181600" lon="35.0264500">
<ele>288.860016</ele>
<time>2025-06-27T13:25:08.681Z</time>
</trkpt>
<trkpt lat="31.8181200" lon="35.0264700">
<ele>288.440002</ele>
<time>2025-06-27T13:25:08.681Z</time>
</trkpt>
<trkpt lat="31.8181600" lon="35.0264500">
<ele>288.860016</ele>
<time>2025-06-27T13:25:08.681Z</time>
</trkpt>
<trkpt lat="31.8180900" lon="35.0262300">
<ele>285.920013</ele>
<time>2025-06-27T13:25:08.681Z</time>
</trkpt>
<trkpt lat="31.8180800" lon="35.0260800">
<ele>284.399994</ele>
<time>2025-06-27T13:25:08.681Z</time>
</trkpt>
<trkpt lat="31.8180800" lon="35.0261000">
<ele>284.479980</ele>
<time>2025-06-27T13:25:08.682Z</time>
</trkpt>
</trkseg>
</trk>
</gpx>
